     2              OBSERVATION DATA    GPS                 RINEX VERSION / TYPE
teqc 1997Jul24 19970814                                     PGM / RUN BY / DATE
                                                            COMMENT
Original Marker Name: 1201                                  COMMENT
Campaign Name: HPGN 1991                                    COMMENT
4-Character Station Name: 1201                              COMMENT
6-Character Antenna Code: TRMSST                            COMMENT
Vertical Measurement Point: BPA                             COMMENT
Vertical Offset to Rinex Ref. Point: 0.0000                 COMMENT
Radial Measurement Point: RRP                               COMMENT
Radial Offset to Rinex Ref. Point: 0.0000                   COMMENT
Antenna Height from Field Measurement: 2.2200 m             COMMENT
Original XYZ: -2499862.5730 -4684132.3122 3522261.3145      COMMENT
New XYZ position is based on association with SCEC monument COMMENT
E1D0M8O3+0011. Position of that monument is believed to be  COMMENT
valid to within 1 m horizontally; vertical accuracy         COMMENT
should be no worse than 3-times this value.                 COMMENT
                                                            COMMENT
Revised Rinex header created by UCSD GPS archive for        COMMENT
GSAC on 12-Apr-1999 (1999:102) 14:11:57 GMT                 COMMENT
For assistance contact dagnew@ucsd.edu or hjohnson@ucsd.edu COMMENT
                                                            COMMENT
HPGN-CALIF STA 12-01 1991                                   MARKER NAME
unknown CALIF DEPT TRANSPORTATION                           OBSERVER / AGENCY
621 TRIMBLE 4000 SST NP 4.30 / SP 4.20                      REC # / TYPE / VERS
9 TR 4000SST L1/L2 GEO                                      ANT # / TYPE
 -2499860.0000 -4684131.0000  3522256.0000                  APPROX POSITION XYZ
        2.2200        0.0000        0.0000                  ANTENNA: DELTA H/E/N
     1     1     0                                          WAVELENGTH FACT L1/2
     3    C1    L1    L2                                    # / TYPES OF OBSERV
     0                                                      INTERVAL
  1991     4    23    19    55   30.000000                  TIME OF FIRST OBS
  1991     4    24     1    57   60.000000                  TIME OF LAST OBS
     0                                                      # OF SATELLITES
                                                            END OF HEADER
 91  4 23 19 55 30.0000000  0  4G18G11G19G 2
  20616585.6024         -0.80958
  23689883.3054         -0.14556
  20889136.570          -0.38717
  23706848.2894         -0.60455
 91  4 23 19 55 45.0000000  0  4G18G11G19G 2
  20618084.7974       7878.83648
  23682357.3284     -39552.09346
  20886879.500      -11869.497 7
  23696282.953      -55513.117 5
 91  4 23 19 56  0.0000000  0  4G18G11G19G 2
  20619607.2424      15874.98348        -0.46473
  23674849.0004     -79002.65246
  20884627.4224     -23693.40047        -0.17972
  23685729.938     -110973.039 6
 91  4 23 19 56 15.0000000  0  4G18G11G19G 2
  20621150.6644      23990.09848      6322.96563
  23667363.9534    -118349.29446        -0.00571
  20882389.2664     -35469.82747     -9176.61462
  23675188.961     -166377.959 6        -0.04031
 91  4 23 19 56 30.0000000  0  4G18G11G19G 2
  20622716.1094      32217.26648     12733.71163
  23659892.3054    -157598.50146    -30583.67661
  20880156.1094     -47205.48747    -18321.28762
  23664652.6804    -221734.67746    -43134.99661
 91  4 23 19 56 45.0000000  0  4G18G11G19G 2
  20624303.3364      40557.76448     19232.76263
  23652443.109     -196748.568 6    -61090.09621
  20877931.1804     -58899.14847    -27433.23462
  23654128.2814    -277041.71246    -86231.22961
 91  4 23 19 57  0.0000000  0  4G18G11G19G 2
  20625913.5004      49017.17748     25824.47463
  23645013.070     -235793.486 6    -91514.56521
  20875713.4144     -70545.25547    -36508.12463
  23643614.1334    -332293.32946   -129284.28961
 91  4 23 19 57 15.0000000  0  4G18G11G19G 2
  20627544.7974      57586.17848     32501.58063
  23637600.719     -274742.009 6   -121863.93221
  20873506.3984     -82152.85647    -45553.00362
  23633109.4304    -387498.28546   -172300.99161
 91  4 23 19 57 30.0000000  0  4G18G11G19G 2
  20629195.070       66262.096 8     39261.99723
  23630208.484     -313596.420 6   -152139.96121
  20871301.3364     -93724.75347    -54570.07462
  23622612.844     -442659.090 6   -215283.29821
 91  4 23 19 57 45.0000000  0  4G18G11G19G 2
  20630868.6484      75056.35348     46114.62163
  23622833.5944    -352345.25646   -182333.74561
  20869111.5314    -105249.71347    -63550.56062
  23612125.445     -497764.413 6   -258222.37321
 91  4 23 19 58  0.0000000  0  4G18G11G19G 2
  20632565.4144      83970.21548     53060.45063
  23615479.7974    -390986.64146   -212443.78961
  20866926.0944    -116726.25647    -72493.31762
  23601649.711     -552812.607 6   -301116.92721
 91  4 23 19 58 15.0000000  0  4G18G11G19G 2
  20634284.7114      93005.64748     60101.00563
  23608150.0634    -429518.13746   -242468.20661
  20864751.1884    -128152.56247    -81396.93462
  23591187.8524    -607801.48046   -343965.25161
 91  4 23 19 58 30.0000000  0  4G18G11G19G 2
  20636025.969      102162.424 8     67236.11323
  23600836.8444    -467939.58146   -272406.86761
  20862585.1334    -139528.59847    -90261.37862
  23580733.344     -662731.106 6   -386767.41821
 91  4 23 19 58 45.0000000  0  4G18G11G19G 2
  20637790.180      111431.845 8     74458.99023
  23593545.289     -506259.523 6   -302266.44221
  20860431.3364    -150863.19547    -99093.53262
  23570290.313     -717610.188 6   -429530.21021
 91  4 23 19 59  0.0000000  0  4G18G11G19G 2
  20639579.727      120829.846 8     81782.06523
  23586275.2344    -544461.59046   -332034.17261
  20858282.5394    -162140.55647   -107881.08762
  23559860.7734    -772422.55246   -472241.01661
 91  4 23 19 59 15.0000000  0  4G18G11G19G 2
  20641389.656      130344.378 8     89195.94223
  23579025.859     -582557.262 6   -361718.99921
  20856148.6484    -173372.56447   -116633.30162
  23549440.8914    -827179.89846   -514908.95961
 91  4 23 19 59 30.0000000  0  4G18G11G19G 2
  20643222.484      139975.286 8     96700.49923
  23571795.9694    -620546.75546   -391321.08961
  20854017.6174    -184559.73547   -125350.57362
  23539028.820     -881882.532 6   -557534.24821
 91  4 23 19 59 45.0000000  0  4G18G11G19G 2
  20645078.258      149731.728 8    104302.87623
  23564589.3364    -658420.22346   -420832.76261
  20851901.2274    -195692.69847   -134025.61062
  23528631.727     -936520.872 6   -600109.43921
 91  4 23 20  0  0.0000000  0  4G18G11G19G 2
  20646957.898      159607.134 8    111997.94923
  23557402.094     -696183.782 6   -450258.81121
  20849788.5394    -206777.93347   -142663.45462
  23518247.195     -991101.061 6   -642639.31821
 91  4 23 20  0 15.0000000  0  4G18G11G19G 2
  20648859.672      169597.530 8    119782.62323
  23550236.648     -733840.962 6   -479601.94821
  20847688.7894    -217819.27147   -151267.09562
  23507870.234    -1045626.869 6   -685126.82921
 91  4 23 20  0 30.0000000  0  4G18G11G19G 2
  20650781.945      179702.038 8    127656.22023
  23543092.0004    -771392.45046   -508862.73461
  20845597.0784    -228817.58447   -159837.20662
  23497502.906    -1100099.261 6   -727572.71721
 91  4 23 20  0 45.0000000  0  4G18G11G19G 2
  20652727.047      189921.866 8    135619.67023
  23535964.9694    -808836.52846   -538039.82261
  20843512.2894    -239771.83147   -168372.98162
  23487148.8134   -1154516.94046   -769975.97161
 91  4 23 20  1  0.0000000  0  4G18G11G19G 2
  20654695.352      200264.453 8    143678.78223
  23528861.484     -846165.526 6   -567127.22721
  20841435.4924    -250674.46647   -176868.54062
  23476806.234    -1208872.144 6   -812330.55021
 91  4 23 20  1 15.0000000  0  4G18G11G19G 2
  20656685.297      210723.279 8    151828.46723
  23521780.492     -883385.494 6   -596129.68421
  20839369.9614    -261531.83347   -185328.82862
  23466473.7664   -1263171.11846   -854641.32061
 91  4 23 20  1 30.0000000  0  4G18G11G19G 2
  20658698.344      221297.305 8    160067.91323
  23514715.422     -920497.006 6   -625047.63221
  20837312.7584    -272344.81947   -193754.53362
  23456149.3834   -1317414.60346   -896908.84461
 91  4 23 20  1 45.0000000  0  4G18G11G19G 2
  20660733.305      231992.826 8    168402.03423
  23507677.3364    -957493.59346   -653876.02061
  20835265.2734    -283107.33847   -202140.91062
  23445839.992    -1371596.355 6   -939128.25721
 91  4 23 20  2  0.0000000  0  4G18G11G19G 2
  20662791.711      242812.005 8    176832.51423
  23500658.469     -994372.663 6   -682612.84021
  20833227.3594    -293817.24347   -210486.29362
  23435542.438    -1425713.962 6   -981297.68121
 91  4 23 20  2 15.0000000  0  4G18G11G19G 2
  20664872.789      253748.525 8    185354.42123
  23493661.8284   -1031140.00646   -711262.60761
  20831198.0314    -304480.53447   -218795.34762
  23425253.164    -1479773.418 6  -1023421.79621
 91  4 23 20  2 30.0000000  0  4G18G11G19G 2
  20666978.297      264811.675 8    193975.00923
  23486689.7664   -1067785.92746   -739817.77261
  20829180.3204    -315087.87547   -227060.81262
  23414980.2584   -1533765.20246  -1065493.19161
 91  4 23 20  2 45.0000000  0  4G18G11G19G 2
  20669108.375      276004.944 8    202696.98523
  23479738.0784   -1104306.89546   -768275.54561
  20827172.3524    -325636.19747   -235280.28762
  23404720.0084   -1587686.07546  -1107509.33961
 91  4 23 20  3  0.0000000  0  4G18G11G19G 2
  20671262.133      287322.642 8    211515.92323
  23472811.219    -1140707.881 6   -796639.84021
  20825173.2814    -336131.08447   -243458.12062
  23394470.438    -1641541.226 6  -1149474.24921
 91  4 23 20  3 15.0000000  0  4G18G11G19G 2
  20673439.172      298765.465 8    220432.36023
  23465907.461    -1176987.867 6   -824909.85521
  20823188.0474    -346571.56947   -251593.56362
  23384234.8674   -1695329.54246  -1191387.10061
 91  4 23 20  3 30.0000000  0  4G18G11G19G 2
  20675640.477      310330.907 8    229444.34623
  23459027.164    -1213149.003 6   -853087.24121
  20821212.6174    -356960.27847   -259688.66462
  23374010.609    -1749053.346 6  -1233249.67621
 91  4 23 20  3 45.0000000  0  4G18G11G19G 2
  20677864.414      322020.881 8    238553.37223
  23452167.867    -1249188.794 6   -881170.08921
  20819244.4844    -367295.05747   -267741.73762
  23363800.875    -1802710.539 6  -1275060.33721
 91  4 23 20  4  0.0000000  0  4G18G11G19G 2
  20680112.930      333831.157 8    247756.12923
  23445332.688    -1285111.399 6   -909161.61121
  20817289.6174    -377580.42847   -275756.31862
  23353600.2734   -1856305.54046  -1316822.55361
 91  4 23 20  4 15.0000000  0  4G18G11G19G 2
  20682382.313      345758.214 8    257049.89123
  23438516.711    -1320920.038 6   -937064.34421
  20815338.6884    -387819.88947   -283735.12062
  23343413.766    -1909841.753 6  -1358538.95421
 91  4 23 20  4 30.0000000  0  4G18G11G19G 2
  20684675.055      357805.765 8    266437.54723
  23431725.891    -1356610.428 6   -964874.92621
  20813396.8674    -398009.45547   -291675.04862
  23333241.1484   -1963315.01046  -1400206.29461
 91  4 23 20  4 45.0000000  0  4G18G11G19G 2
  20686990.547      369975.216 8    275920.18823
  23424958.297    -1392180.869 6   -992592.04821
  20811470.3834    -408147.79947   -299575.06262
  23323074.7424   -2016723.59746  -1441823.24061
 91  4 23 20  5  0.0000000  0  4G18G11G19G 2
  20689330.391      382267.179 8    285498.29223
  23418212.7734   -1427630.17446  -1020214.76361
  20809548.9304    -418234.11447   -307434.53262
  23312923.0394   -2070066.70746  -1483389.16961
 91  4 23 20  5 15.0000000  0  4G18G11G19G 2
  20691691.234      394678.736 8    295169.59323
  23411487.4224   -1462961.04346  -1047745.18361
  20807641.7344    -428271.21247   -315255.65562
  23302787.414    -2123347.100 6  -1524906.21821
 91  4 23 20  5 30.0000000  0  4G18G11G19G 2
  20694077.492      407215.360 8    304938.34023
  23404788.1024   -1498167.53946  -1075178.69861
  20805739.8284    -438253.64147   -323034.17362
  23292659.3754   -2176559.25046  -1566370.09361
 91  4 23 20  5 45.0000000  0  4G18G11G19G 2
  20696486.820      419877.335 8    314804.76723
  23398113.469    -1533248.905 6  -1102514.72121
  20803852.6414    -448180.85547   -330769.66862
  23282544.5944   -2229702.36646  -1607780.17261
 91  4 23 20  6  0.0000000  0  4G18G11G19G 2
  20698918.102      432658.287 8    324763.91023
  23391458.492    -1568211.010 6  -1129757.79821
  20801970.5704    -458059.20847   -338467.09062
  23272445.5554   -2282782.55946  -1649141.24861
 91  4 23 20  6 15.0000000  0  4G18G11G19G 2
  20701373.938      445557.502 8    334815.19823
  23384829.7734   -1603054.48446  -1156908.44361
  20800102.7194    -467889.72947   -346127.23962
  23262356.977    -2335800.613 6  -1690453.88221
 91  4 23 20  6 30.0000000  0  4G18G11G19G 2
  20703851.281      458576.322 8    344959.68723
  23378221.4454   -1637777.69346  -1183965.36761
  20798239.6564    -477671.02647   -353749.02562
  23252276.6484   -2388754.97246  -1731716.87161
 91  4 23 20  6 45.0000000  0  4G18G11G19G 2
  20706350.148      471706.068 8    355190.61023
  23371634.422    -1672388.353 6  -1210934.59921
  20796386.8914    -487411.14647   -361338.73562
  23242211.3364   -2441653.72646  -1772936.52761
 91  4 23 20  7  0.0000000  0  4G18G11G19G 2
  20708872.625      484959.437 8    365517.86523
  23365073.391    -1706873.839 6  -1237806.28421
  20794542.7274    -497097.83747   -368886.81062
  23232159.555    -2494484.439 6  -1814103.17521
 91  4 23 20  7 15.0000000  0  4G18G11G19G 2
  20711416.516      498332.476 8    375938.36623
  23358532.7274   -1741237.79346  -1264583.27061
  20792709.9064    -506735.02647   -376396.31262
  23222118.500    -2547250.718 6  -1855219.62621
 91  4 23 20  7 30.0000000  0  4G18G11G19G 2
  20713982.953      511813.995 8    386443.39923
  23352015.0314   -1775490.97546  -1291273.94761
  20790882.2814    -516333.71547   -383875.81062
  23212085.8834   -2599963.50146  -1896294.39761
 91  4 23 20  7 45.0000000  0  4G18G11G19G 2
  20716568.539      525404.823 8    397033.60423
  23345518.0704   -1809631.92446  -1317877.16161
  20789064.4694    -525892.79447   -391324.44462
  23202066.758    -2652621.642 6  -1937326.58121
 91  4 23 20  8  0.0000000  0  4G18G11G19G 2
  20719175.539      539105.342 8    407709.28623
  23339043.055    -1843660.065 6  -1344392.48221
  20787251.5944    -535411.95047   -398741.96962
  23192056.4694   -2705224.84046  -1978315.94261
 91  4 23 20  8 15.0000000  0  4G18G11G19G 2
  20721805.234      552924.068 8    418477.07423
  23332590.070    -1877566.538 6  -1370812.99321
  20785450.5704    -544882.58347   -406121.68762
  23182058.391    -2757764.258 6  -2019255.61021
 91  4 23 20  8 30.0000000  0  4G18G11G19G 2
  20724457.984      566864.283 8    429339.52723
  23326160.9924   -1911347.60446  -1397135.78061
  20783657.4924    -554301.34647   -413460.98362
  23172073.2424   -2810236.14546  -2060142.66861
 91  4 23 20  8 45.0000000  0  4G18G11G19G 2
  20727133.023      580924.790 8    440295.71423
  23319757.852    -1945004.055 6  -1423361.46821
  20781877.1954    -563669.31647   -420760.70262
  23162100.1884   -2862641.59946  -2100977.95761
 91  4 23 20  9  0.0000000  0  4G18G11G19G 2
  20729830.641      595100.753 8    451341.87223
  23313374.586    -1978540.335 6  -1449493.52321
  20780101.9384    -572991.45047   -428024.69262
  23152139.6254   -2914985.34346  -2141765.14761
 91  4 23 20  9 15.0000000  0  4G18G11G19G 2
  20732551.523      609393.765 8    462479.23323
  23307017.047    -2011954.573 6  -1475530.47521
  20778337.2274    -582266.11947   -435251.71662
  23142191.313    -2967265.764 6  -2182503.00321
 91  4 23 20  9 30.0000000  0  4G18G11G19G 2
  20735292.633      623800.925 7    473705.53723
  23300682.250    -2045249.052 6  -1501474.11321
  20776579.7504    -591496.01047   -442443.84362
  23132255.1094   -3019485.21146  -2223193.35361
 91  4 23 20  9 45.0000000  0  4G18G11G19G 2
  20738057.273      638325.161 8    485023.07123
  23294368.875    -2078420.644 6  -1527322.00221
  20774833.2734    -600678.33047   -449598.90062
  23122329.7274   -3071640.59246  -2263833.79461
 91  4 23 20 10  0.0000000  0  4G18G11G19G 2
  20740840.484      652952.834 8    496421.20723
  23288077.203    -2111482.694 6  -1553084.52221
  20773091.1954    -609826.48147   -456727.32862
  23112412.8754   -3123745.56046  -2304434.94261
 91  4 23 20 10 15.0000000  0  4G18G11G19G 2
  20743647.0554     667702.47248    507914.37163
  23281808.961    -2144416.362 6  -1578747.02021
  20771362.2114    -618921.81047   -463814.60062
  23102511.883    -3175781.315 6  -2344982.14621
 91  4 23 20 10 30.0000000  0  4G18G11G19G 2
  20746474.719      682564.278 8    519494.94523
  23275565.1024   -2177230.95346  -1604316.71161
  20769638.7424    -627974.00247   -470868.26162
  23092621.859    -3227757.358 6  -2385482.81921
 91  4 23 20 10 45.0000000  0  4G18G11G19G 2
  20749325.5234     697543.06348    531166.66663
  23269344.211    -2209921.244 6  -1629789.55521
  20767925.4304    -636978.13547   -477884.46962
  23082741.0394   -3279668.47946  -2425932.91661
 91  4 23 20 11  0.0000000  0  4G18G11G19G 2
  20752196.5234     712630.18448    542922.80763
  23263144.422    -2242495.375 6  -1655171.89921
  20766219.8054    -645942.79747   -484869.92062
  23072874.2894   -3331523.14546  -2466339.03761
 91  4 23 20 11 15.0000000  0  4G18G11G19G 2
  20755089.4224     727829.39748    554766.29063
  23256970.023    -2274949.267 6  -1680460.53221
  20764522.1484    -654864.34447   -491821.77762
  23063019.4774   -3383317.49246  -2506698.14661
 91  4 23 20 11 30.0000000  0  4G18G11G19G 2
  20758003.570      743147.691 7    566702.56223
  23250818.3984   -2307275.58946  -1705649.78061
  20762831.8134    -663735.92347   -498734.70162
  23053174.766    -3435044.544 6  -2547004.80221
 91  4 23 20 11 45.0000000  0  4G18G11G19G 2
  20760940.3984     758577.40347    578725.65863
  23244689.9304   -2339481.44846  -1730745.14361
  20761153.4454    -672564.68847   -505614.25762
  23043343.859    -3486711.431 6  -2587264.57721
 91  4 23 20 12  0.0000000  0  4G18G11G19G 2
  20763896.8284     774115.37947    590833.11363
  23238584.297    -2371569.752 6  -1755748.90421
  20759481.7274    -681353.85647   -512462.96362
  23033522.8984   -3538321.36246  -2627479.98561
 91  4 23 20 12 15.0000000  0  4G18G11G19G 2
  20766875.695      789767.555 7    603029.55823
  23232500.8984   -2403534.35746  -1780656.30361
  20757818.0634    -690097.42147   -519276.13862
  23023713.7894   -3589868.09246  -2667646.14961
 91  4 23 20 12 30.0000000  0  5G18G11G19G 2G16
  20769874.648      805524.179 8    615307.39123
  23226440.1484   -2435384.39046  -1805474.40561
  20756160.2344    -698804.82347   -526061.12762
  23013913.2194   -3641360.93446  -2707770.31561
  24148582.7974         -0.98255
 91  4 23 20 12 44.9990000  0  5G18G11G19G 2G16
  20772893.8704     821389.60648    627670.00163
  23220402.8474   -2467111.93146  -1830197.06361
  20754512.7224    -707470.12447   -532813.31662
  23004126.5194   -3692790.78646  -2747845.40061
  24141933.0814     -34955.90745
 91  4 23 20 12 59.9990000  0  5G18G11G19G 2G16
  20775934.3784     837370.82448    640122.83863
  23214388.722    -2498716.031 6  -1854823.53421
  20752872.6204    -716089.43547   -539529.66962
  22994352.3314   -3744159.54646  -2787872.87861
  24135304.8624     -69788.85645
 91  4 23 20 13 14.9990000  0  5G18G11G19G 2G16
  20778996.9254     853460.99847    652660.57563
  23208396.784    -2530199.934 6  -1879356.35121
  20751238.9724    -724667.90947   -546214.19962
  22984587.8394   -3795469.48846  -2827854.52661
  24128698.909     -104503.046 5
 91  4 23 20 13 29.9990000  0  5G18G11G19G 2G16
  20782079.5584     869663.81247    665286.08863
  23202428.167    -2561559.757 6  -1903792.48421
  20749614.5584    -733201.92947   -552864.09262
  22974835.8004   -3846716.81446  -2867787.37861
  24122115.1594    -139094.74445        -0.35271
 91  4 23 20 13 44.9990000  0  5G18G11G19G 2G16
  20785185.4254     885986.86048    678005.28563
  23196486.105    -2592787.430 6  -1928125.63321
  20748000.8784    -741683.79547   -559473.34362
  22965095.6674   -3897893.56746  -2907665.24461
  24115559.315     -173556.248 5    -26853.46321
 91  4 23 20 13 59.9990000  0  5G18G11G19G 2G16
  20788315.1834     902432.04947    690819.65663
  23190570.1204   -2623880.65146  -1952354.03161
  20746396.9014    -750111.30547   -566040.24362
  22955373.1204   -3948997.43546  -2947486.31861
  24109023.3554    -207885.07645    -53603.21261
 91  4 23 20 14 14.9990000  0  5G18G11G19G 2G16
  20791465.894      918987.892 8    703720.25923
  23184676.5424   -2654850.41246  -1976486.21961
  20744801.8704    -758495.84747   -572573.65562
  22945659.5424   -4000039.50246  -2987259.24361
  24102516.4484    -242092.23445    -80258.14061
 91  4 23 20 14 29.9990000  0  5G18G11G19G 2G16
  20794637.1514     935655.75248    716708.14563
  23178806.8154   -2685695.12946  -2000520.96761
  20743216.5344    -766836.22846   -579072.66662
  22935957.6364   -4051018.40346  -3026982.94561
  24096030.675     -276176.314 5   -106817.18621
 91  4 23 20 14 44.9990000  0  5G18G11G19G 2G16
  20797833.0504     952444.98548    729790.60463
  23172963.980    -2716405.087 6  -2024450.71121
  20741637.3154    -775122.79046   -585529.73562
  22926270.706    -4101924.755 6  -3066650.11521
  24089567.4644    -310127.74145   -133272.85961
 91  4 23 20 14 59.9990000  0  5G18G11G19G 2G16
  20801050.4954     969351.91848    742964.77763
  23167142.8944   -2746983.51646  -2048277.95661
  20740074.1444    -783359.11146   -591947.65062
  22916595.112    -4152762.184 6  -3106263.56821
  24083133.0504    -343950.03745   -159627.89661
 91  4 23 20 15 14.9990000  0  5G18G11G19G 2G16
  20804287.6054     986367.70748    756223.77263
  23161348.5194   -2777438.78346  -2072009.24261
  20738511.2064    -791553.74946   -598333.09062
  22906933.2144   -4203538.90246  -3145829.71561
  24076720.714     -377651.516 5   -185888.81121
 91  4 23 20 15 29.9990000  0  5G18G11G19G 2G16
  20807546.3624    1003493.19248    769568.24663
  23155575.5894   -2807769.84846  -2095643.73761
  20736959.0264    -799706.08847   -604685.57162
  22897283.870    -4254253.916 6  -3185347.79421
  24070330.0654    -411231.28245   -212054.86861
 91  4 23 20 15 44.9990000  0  5G18G11G19G 2G16
  20810827.495     1020730.359 8    782999.75023
  23149828.8864   -2837974.27246  -2119179.54861
  20735417.4804    -807813.96746   -611003.40362
  22887645.167    -4304905.139 6  -3224816.17721
  24063964.230     -444686.992 5   -238124.26521
 91  4 23 20 15 59.9990000  0  5G18G11G19G 2G16
  20814129.3704    1038081.29548    796519.90363
  23144104.6364   -2868049.50046  -2142614.70161
  20733882.6984    -815874.98846   -617284.72362
  22878019.565    -4355490.186 6  -3264232.98221
  24057620.3154    -478016.30645   -264095.15861
 91  4 23 20 16 14.9990000  0  5G18G11G19G 2G16
  20817451.6364    1055541.24348    810124.99963
  23138404.5814   -2898000.06346  -2165952.71561
  20732357.3554    -823893.84446   -623533.18962
  22868404.573    -4406013.674 6  -3303601.80821
  24051302.7454    -511223.62345   -289970.99361
 91  4 23 20 16 29.9990000  0  5G18G11G19G 2G16
  20820795.386     1073109.766 8    823814.69823
  23132729.2694   -2927825.93546  -2189193.55961
  20730841.1754    -831870.99146   -629749.14762
  22858800.2844   -4456475.74246  -3342922.77161
  24045007.2534    -544309.23445   -315752.00861
 91  4 23 20 16 44.9990000  0  5G18G11G19G 2G16
  20824158.4874    1090784.92748    837587.49463
  23127076.159    -2957528.586 6  -2212338.39921
  20729328.8944    -839808.23346   -635934.01462
  22849210.7764   -4506878.00746  -3382197.14361
  24038732.8784    -577274.58645   -341439.29961
 91  4 23 20 16 59.9990000  0  5G18G11G19G 2G16
  20827541.7144    1108562.23248    851439.88163
  23121447.4954   -2987112.24246  -2235390.51061
  20727822.3784    -847710.05847   -642091.28062
  22839626.823    -4557224.832 6  -3421428.32821
  24032480.6984    -610124.42545   -367036.58661
 91  4 23 20 17 14.9990000  0  5G18G11G19G 2G16
  20830945.7374    1126452.22347    865380.07363
  23115842.0424   -3016565.99446  -2258341.39761
  20726330.0194    -855565.76947   -648212.61662
  22830061.589    -4607505.413 6  -3460607.89521
  24026253.6514    -642847.73945   -392535.26661
 91  4 23 20 17 29.9990000  0  5G18G11G19G 2G16
  20834371.1054    1144450.92548    879404.97763
  23110261.1124   -3045893.29646  -2281193.75261
  20724840.5344    -863378.97947   -654300.83362
  22820503.5734   -4657723.51046  -3499738.77261
  24020050.7924    -675447.97945   -417938.05061
 91  4 23 20 17 44.9990000  0  5G18G11G19G 2G16
  20837818.065     1162564.476 7    893519.37523
  23104707.6674   -3075087.75746  -2303942.59061
  20723365.0654    -871143.68646   -660351.25363
  22810962.0034   -4707872.76346  -3538815.97961
  24013871.019     -707918.996 5   -443240.13221
 91  4 23 20 17 59.9990000  0  5G18G11G19G 2G16
  20841286.3234    1180790.86047    907721.69263
  23099174.9804   -3104150.80346  -2326589.02861
  20721894.4804    -878861.52547   -666365.15362
  22801432.0194   -4757954.82646  -3577840.84161
  24007719.722     -740262.346 5   -468442.78021
 91  4 23 20 18 14.9990000  0  5G18G11G19G 2G16
  20844776.4954    1199129.90148    922011.79663
  23093670.2844   -3133082.68946  -2349133.27261
  20720437.0424    -886532.86646   -672342.82162
  22791913.190    -4807969.998 6  -3616813.60121
  24001588.550     -772478.427 5   -493546.21821
 91  4 23 20 18 29.9990000  0  5G18G11G19G 2G16
  20848285.6594    1217574.15447    936383.88063
  23088188.425    -3161890.029 6  -2371580.46121
  20718982.2304    -894164.76147   -678289.75762
  22782407.253    -4857925.109 6  -3655739.55521
  23995478.8004    -804573.98745   -518555.73061
 91  4 23 20 18 44.9990000  0  5G18G11G19G 2G16
  20851817.9404    1236133.11948    950845.34963
  23082731.862    -3190563.114 6  -2393923.04921
  20717542.2304    -901747.60646   -684198.46662
  22772912.9094   -4907810.41346  -3694611.10561
  23989395.1284    -836539.27245   -543463.75461
 91  4 23 20 18 59.9990000  0  5G18G11G19G 2G16
  20855370.097     1254805.875 7    965395.49323
  23077299.9404   -3219102.82346  -2416161.69561
  20716105.7374    -909282.51447   -690069.82062
  22763435.2304   -4957626.72646  -3733428.89561
  23983339.0974    -868375.13845   -568270.90761
 91  4 23 20 19 14.9990000  0  5G18G11G19G 2G16
  20858945.7454    1273591.19547    980033.34164
  23071896.089    -3247509.844 6  -2438296.96721
  20714684.1674    -916770.49146   -695904.60462
  22753967.581    -5007375.194 6  -3772193.82121
  23977306.0034    -900082.40545   -592977.88561
 91  4 23 20 19 29.9990000  0  5G18G11G19G 2G16
  20862541.7374    1292493.04847    994762.00263
  23066514.722    -3275779.640 6  -2460325.30021
  20713265.7374    -924207.11747   -701699.37962
  22744514.839    -5057051.498 6  -3810902.52121
  23971296.214     -931656.903 5   -617581.37621
 91  4 23 20 19 44.9990000  0  5G18G11G19G 2G16
  20866161.9174    1311514.18647   1009583.60463
  23061163.230    -3303909.140 6  -2482244.31321
  20711863.0734    -931589.84446   -707452.15262
  22735075.5194   -5106652.73946  -3849552.72461
  23965313.7614    -963095.70545   -642079.15961
 91  4 23 20 19 59.9990000  0  5G18G11G19G 2G16
  20869803.0504    1330647.46847   1024492.59464
  23055835.308    -3331905.190 6  -2504059.34821
  20710466.0734    -938925.77946   -713168.46762
  22725649.378    -5156185.857 6  -3888149.85121
  23959358.855     -994405.705 5   -666476.56321
 91  4 23 20 20 14.9990000  0  5G18G11G19G 2G16
  20873465.3704    1349891.95547   1039488.23663
  23050533.4014   -3359768.16946  -2525770.69061
  20709080.3084    -946215.50346   -718848.77362
  22716236.769    -5205651.230 6  -3926694.18921
  23953421.6904   -1025587.30645   -690773.90361
 91  4 23 20 20 29.9990000  0  5G18G11G19G 2G16
  20877149.9954    1369255.01947   1054576.27763
  23045258.456    -3387490.585 6  -2547372.49121
  20707700.1514    -953451.68646   -724487.36062
  22706838.0034   -5255041.66946  -3965180.13361
  23947512.644    -1056633.135 5   -714965.45321
 91  4 23 20 20 44.9990000  0  5G18G11G19G 2G16
  20880855.8944    1388730.54747   1069751.95263
  23040008.7144   -3415077.88246  -2568869.01461
  20706335.8554    -960640.01146   -730088.65162
  22697453.2374   -5304362.73146  -4003612.00561
  23941632.4174   -1087548.77945   -739055.59461
 91  4 23 20 20 59.9990000  0  5G18G11G19G 2G16
  20884584.1904    1408318.93247   1085015.56763
  23034783.440    -3442529.551 6  -2590259.85821
  20704974.1444    -967780.20647   -735652.44062
  22688078.948    -5353613.889 6  -4041989.41621
  23935777.3474   -1118333.75845   -763043.87561
 91  4 23 20 21 14.9990000  0  5G18G11G19G 2G16
  20888340.2374    1428058.67047   1100397.12263
  23029593.237    -3469806.747 6  -2611514.74121
  20703634.7844    -974833.58946   -741148.58662
  22678728.909    -5402756.518 6  -4080282.26821
  23929949.972    -1148949.514 5   -786900.30821
 91  4 23 20 21 29.9990000  0  5G18G11G19G 2G16
  20892119.6444    1447920.02147   1115873.43763
  23024430.4174   -3496938.67146  -2632656.44061
  20702302.1284    -981829.64446   -746600.06162
  22669392.487    -5451820.051 6  -4118513.49021
  23924150.034    -1179425.400 5   -810647.77621
 91  4 23 20 21 44.9990000  0  5G18G11G19G 2G16
  20895919.8784    1467889.05147   1131433.65963
  23019291.8704   -3523938.86046  -2653695.47761
  20700980.0654    -988782.11546   -752017.57962
  22660067.245    -5500818.037 6  -4156693.62921
  23918372.581    -1209774.726 5   -834296.59521
 91  4 23 20 21 59.9990000  0  5G18G11G19G 2G16
  20899741.0584    1487970.84547   1147081.74663
  23014180.698    -3550801.956 6  -2674627.68921
  20699664.7454    -995685.89847   -757397.15562
  22650757.5734   -5549745.18946  -4194818.54861
  23912623.605    -1239992.681 5   -857843.03721
 91  4 23 20 22 14.9990000  0  5G18G11G19G 2G16
  20903584.9174    1508168.91447   1162820.43863
  23009096.8944   -3577524.32246  -2695450.24661
  20698363.5734   -1002537.55346   -762736.11562
  22641459.948    -5598598.025 6  -4232885.58121
  23906899.315    -1270075.465 5   -881284.18521
 91  4 23 20 22 29.9990000  0  5G18G11G19G 2G16
  20907449.4804    1528473.44547   1178642.08263
  23004034.5814   -3604115.17746  -2716170.33061
  20697066.261    -1009346.644 7   -768041.91722
  22632176.8154   -5647385.90846  -4270902.01661
  23901199.2844   -1300032.54045   -904627.36461
 91  4 23 20 22 44.9990000  0  5G18G11G19G 2G16
  20911333.5584    1548885.67648   1194547.64663
  22999000.0504   -3630572.67346  -2736786.49561
  20695779.862    -1016111.540 6   -773313.27523
  22622905.487    -5696107.154 6  -4308866.53221
  23895521.7144   -1329862.13545   -927871.20961
 91  4 23 20 22 59.9990000  0  5G18G11G19G 2G16
  20915238.6054    1569409.36847   1210540.07163
  22993991.558    -3656893.038 6  -2757295.79521
  20694498.245    -1022828.496 7   -778547.28022
  22613645.5344   -5744758.11746  -4346776.25661
  23889869.3784   -1359560.45545   -951012.76561
 91  4 23 20 23 14.9990000  0  5G18G11G19G 2G16
  20919166.4254    1590042.83347   1226618.02463
  22989008.1754   -3683077.47546  -2777699.19061
  20693232.698    -1029499.087 6   -783745.16223
  22604402.5814   -5793340.33146  -4384632.40461
  23884244.245    -1389129.094 5   -974053.27421
 91  4 23 20 23 29.9990000  0  5G18G11G19G 2G16
  20923111.7144    1610784.94647   1242780.64963
  22984052.7224   -3709126.55746  -2797997.10561
  20691968.964    -1036124.090 7   -788907.52122
  22595171.792    -5841854.396 6  -4422435.45821
  23878639.5814   -1418568.63945   -996993.16961
 91  4 23 20 23 44.9990000  0  5G18G11G19G 2G16
  20927080.2454    1631635.54047   1259027.79563
  22979121.0034   -3735040.23446  -2818189.51861
  20690719.073    -1042703.584 6   -794034.41723
  22585951.159    -5890300.204 6  -4460185.33121
  23873062.5504   -1447878.95445  -1019832.39061
 91  4 23 20 23 59.9990000  0  5G18G11G19G 2G16
  20931067.9334    1652592.07447   1275357.49663
  22974214.5424   -3760820.69446  -2838278.11961
  20689473.456    -1049239.988 7   -799127.73622
  22576745.4174   -5938680.32946  -4497884.02861
  23867509.7064   -1477062.65245  -1042572.94161
 91  4 23 20 24 14.9990000  0  5G18G11G19G 2G16
  20935075.4644    1673652.31247   1291768.00363
  22969333.769    -3786469.806 6  -2858264.37221
  20688239.706    -1055735.504 7   -804189.19422
  22567549.628    -5986996.712 6  -4535533.04921
  23861982.0344   -1506121.75845  -1065216.39361
 91  4 23 20 24 29.9990000  0  5G18G11G19G 2G16
  20939104.0814    1694821.93847   1308263.74663
  22964478.8864   -3811981.36746  -2878143.43761
  20687011.855    -1062184.148 7   -809214.12422
  22558369.0734   -6035243.04446  -4573127.49361
  23856472.9484   -1535050.05245  -1087757.92261
 91  4 23 20 24 44.9990000  0  6G18G11G19G 2G16G 6
  20943153.1444    1716097.74847   1324842.23563
  22959650.0894   -3837358.57646  -2897917.82361
  20685792.925    -1068589.092 6   -814205.01122
  22549202.409    -6083422.898 6  -4610670.12621
  23850996.8474   -1563850.67445  -1110199.97761
  24228940.3474         -0.57154
 91  4 23 20 24 59.9990000  0  6G18G11G19G 2G16G 6
  20947224.5974    1737488.99847   1341510.66863
  22954847.9404   -3862591.67546  -2917579.91361
  20684582.362    -1074940.825 7   -819154.42522
  22540045.237    -6131526.518 6  -4648153.35421
  23845540.589    -1592513.847 5  -1132534.94521
  24221093.2064     -41269.96144
 91  4 23 20 25 14.9990000  0  6G18G11G19G 2G16G 6
  20951313.9254    1758982.89847   1358259.09663
  22950071.042    -3887693.076 6  -2937139.37021
  20683384.167    -1081252.123 6   -824072.33722
  22530905.558    -6179566.443 6  -4685586.95921
  23840109.5034   -1621052.25945  -1154772.66661
  24213236.8394     -82529.55644
 91  4 23 20 25 29.9990000  0  6G18G11G19G 2G16G 6
  20955424.1054    1780582.30547   1375089.73163
  22945319.511    -3912659.525 6  -2956593.67021
  20682191.472    -1087519.844 6   -828956.28722
  22521777.3554   -6227539.56446  -4722968.51361
  23834702.776    -1649462.913 5  -1176910.86221
  24205388.8784    -123776.14444
 91  4 23 20 25 44.9990000  0  6G18G11G19G 2G16G 6
  20959555.5264    1802289.21147   1392004.13363
  22940595.417    -3937488.742 6  -2975941.03921
  20681006.964    -1093741.889 6   -833804.64922
  22512658.8234   -6275443.74846  -4760296.35262
  23829323.0654   -1677743.62745  -1198947.76761
  24197543.9254    -165008.08344        -0.01871
 91  4 23 20 25 59.9990000  0  6G18G11G19G 2G16G 6
  20963707.480     1824108.062 7   1409005.76323
  22935897.026    -3962175.643 6  -2995177.50821
  20679831.714    -1099913.356 7   -838613.60022
  22503557.237    -6323273.927 6  -4797566.51422
  23823967.1594   -1705889.70945  -1220879.79161
  24189697.948     -206220.260 3    -32113.25521
 91  4 23 20 26 14.9990000  0  6G18G11G19G 2G16G 6
  20967878.870     1846035.459 7   1426091.97323
  22931226.839    -3986723.550 6  -3014305.67721
  20678668.323    -1106037.774 7   -843385.88922
  22494470.542    -6371033.579 6  -4834781.71021
  23818633.417    -1733904.063 5  -1242709.17321
  24181858.894     -247416.355 3    -64214.05121
 91  4 23 20 26 29.9990000  0  6G18G11G19G 2G16G 6
  20972071.3704    1868062.03747   1443255.46763
  22926580.128    -4011141.452 6  -3033332.54221
  20677508.011    -1112124.604 7   -848128.89022
  22485392.245    -6418731.779 6  -4871949.04021
  23813326.878    -1761795.810 5  -1264443.01521
  24174027.8084    -288605.69144    -96309.53561
 91  4 23 20 26 44.9990000  0  6G18G11G19G 2G16G 6
  20976284.0974    1890201.71247   1460507.09663
  22921961.315    -4035415.057 6  -3052246.96621
  20676360.651    -1118159.559 7   -852831.46023
  22476331.3624   -6466354.38746  -4909057.47161
  23808044.847    -1789551.229 5  -1286070.62721
  24166186.136     -329774.234 3   -128388.78821
 91  4 23 20 26 59.9990000  0  6G18G11G19G 2G16G 6
  20980517.964     1912449.357 7   1477842.84723
  22917367.8314   -4059549.20846  -3071052.72661
  20675221.581    -1124147.781 7   -857497.62722
  22467281.144    -6513906.415 6  -4946110.89721
  23802789.5894   -1817174.97345  -1307595.64161
  24158357.339     -370927.142 4   -160455.91721
 91  4 23 20 27 14.9990000  0  6G18G11G19G 2G16G 6
  20984772.4254    1934805.07947   1495262.82463
  22912801.440    -4083543.098 6  -3089749.18621
  20674090.925    -1130088.641 7   -862126.88122
  22458245.995    -6561387.290 6  -4983108.87221
  23797558.1834   -1844666.37945  -1329017.51261
  24150533.0344    -412063.98444   -192510.45961
 91  4 23 20 27 29.9990000  0  6G18G11G19G 2G16G 6
  20989045.870     1957264.491 7   1512763.59123
  22908261.925    -4107400.739 6  -3108339.48321
  20672969.526    -1135986.334 7   -866722.49822
  22449224.4644   -6608801.06546  -5020054.57561
  23792350.8234   -1872029.65845  -1350339.55561
  24142699.9564    -453189.04944   -224555.86861
 91  4 23 20 27 44.9990000  0  6G18G11G19G 2G16G 6
  20993341.7064    1979835.89547   1530351.62763
  22903748.878    -4131113.784 6  -3126817.11321
  20671855.878    -1141832.641 7   -871278.07522
  22440214.3554   -6656139.38846  -5056941.47861
  23787168.3084   -1899256.46645  -1371555.28461
  24134882.5894    -494294.03544   -256585.62161
 91  4 23 20 27 59.9990000  0  6G18G11G19G 2G16G 6
  20997656.190     2002512.594 7   1548021.71023
  22899262.4724   -4154688.58946  -3145187.02561
  20670750.808    -1147634.116 7   -875798.71822
  22431219.8944   -6703408.76946  -5093774.66561
  23782015.0424   -1926353.46745  -1392669.85761
  24127062.573     -535385.774 4   -288605.04421
 91  4 23 20 28 14.9990000  0  6G18G11G19G 2G16G 6
  21001993.0814    2025294.84047   1565774.04063
  22894802.0654   -4178124.42946  -3163448.64861
  20669656.909    -1153390.201 7   -880283.99022
  22422239.987    -6750608.442 6  -5130553.53121
  23776880.8084   -1953319.90045  -1413682.66061
  24119240.175     -576463.697 4   -320613.72321
 91  4 23 20 28 29.9990000  0  6G18G11G19G 2G16G 6
  21006348.808     2048187.826 7   1583612.65723
  22890372.8474   -4201415.78746  -3181597.69461
  20668571.026    -1159095.461 7   -884729.65923
  22413271.159    -6797733.123 6  -5167273.95421
  23771774.5344   -1980150.02145  -1434589.27161
  24111430.7694    -617522.57444   -352607.53961
 91  4 23 20 28 44.9990000  0  6G18G11G19G 2G16G 6
  21010726.214     2071185.985 7   1601533.22023
  22885964.5894   -4224567.90646  -3199638.23461
  20667493.3554   -1164755.51647   -889140.10062
  22404314.6204   -6844788.05146  -5203940.03661
  23766696.808    -2006849.681 5  -1455394.23021
  24103624.058     -658567.915 4   -384590.79821
 91  4 23 20 28 59.9990000  0  6G18G11G19G 2G16G 6
  21015121.136     2094286.817 7   1619533.80123
  22881586.8944   -4247583.05246  -3217572.04761
  20666426.901    -1170372.819 6   -893517.23223
  22395374.464    -6891775.805 6  -5240553.76321
  23761638.823    -2033420.923 5  -1476099.11421
  24095810.1204    -699602.29644   -416565.48761
 91  4 23 20 29 14.9990000  0  6G18G11G19G 2G16G 6
  21019537.472     2117493.216 7   1637616.63423
  22877232.8864   -4270457.74446  -3235396.42061
  20665364.800    -1175943.843 7   -897858.29922
  22386444.6904   -6938692.89646  -5277112.44161
  23756607.120    -2059860.645 5  -1496701.51521
  24088003.409     -740622.449 4   -448529.11921
 91  4 23 20 29 29.9990000  0  6G18G11G19G 2G16G 6
  21023974.159     2140807.331 7   1655783.40023
  22872907.1364   -4293189.63546  -3253109.50861
  20664310.4254   -1181466.40747   -902161.60863
  22377533.7924   -6985537.04846  -5313614.27862
  23751601.2064   -2086166.15945  -1517199.33861
  24080204.315     -781626.322 4   -480480.11021
 91  4 23 20 29 44.9990000  0  6G18G11G19G 2G16G 6
  21028430.362     2164226.578 7   1674032.08923
  22868608.4724   -4315780.70346  -3270712.87461
  20663271.6124   -1186942.75947   -906428.90462
  22368632.183    -7032310.502 6  -5350061.02121
  23746620.3864   -2112339.83845  -1537594.44461
  24072404.9404    -822616.25343   -512420.15261
 91  4 23 20 29 59.9990000  0  6G18G11G19G 2G16G 6
  21032906.769     2187753.090 7   1692364.36323
  22864336.5654   -4338228.51746  -3288204.61561
  20662236.7374   -1192370.64947   -910658.43362
  22359744.480    -7079010.967 6  -5386450.89221
  23741665.097    -2138379.403 5  -1557885.02421
  24064605.073     -863589.832 3   -544347.50321
 91  4 23 20 30 14.9990000  0  6G18G11G19G 2G16G 6
  21037403.855     2211381.788 7   1710776.25923
  22860090.3474   -4360537.98946  -3305588.55661
  20661214.9804   -1197755.21047   -914854.20562
  22350871.495    -7125643.298 6  -5422787.66821
  23736736.105    -2164290.045 5  -1578075.16521
  24056810.042     -904552.500 4   -576266.34921
 91  4 23 20 30 29.9990000  0  6G18G11G19G 2G16G 6
  21041919.831     2235111.847 7   1729267.13623
  22855871.3314   -4382709.68346  -3322865.14161
  20660195.6284   -1203097.10047   -919016.72162
  22342010.3474   -7172208.24546  -5459071.94961
  23731831.042    -2190072.715 5  -1598165.58121
  24049020.6834    -945504.98344   -608177.23961
 91  4 23 20 30 44.9990000  0  6G18G11G19G 2G16G 6
  21046454.620     2258938.518 7   1747833.29823
  22851678.5424   -4404747.83346  -3340037.66061
  20659188.7304   -1208400.67147   -923149.38462
  22333161.9644   -7218710.07246  -5495307.05062
  23726946.6514   -2215731.20945  -1618159.22061
  24041223.159     -986451.607 3   -640083.59621
 91  4 23 20 30 59.9990000  0  6G18G11G19G 2G16G 6
  21051008.386     2282871.691 7   1766482.44423
  22847510.8784   -4426642.20746  -3357098.15161
  20658186.1904   -1213656.02947   -927244.47263
  22324325.964    -7265138.711 6  -5531485.10222
  23722088.105    -2241255.432 5  -1638048.23921
  24033436.8704   -1027382.74244   -671977.85761
 91  4 23 20 31 14.9990000  0  6G18G11G19G 2G16G 6
  21055583.511     2306914.325 7   1785216.88423
  22843373.1124   -4448389.42046  -3374043.97361
  20657198.7614   -1218859.88147   -931299.43062
  22315505.1124   -7311490.83246  -5567603.53862
  23717260.300    -2266642.220 5  -1657830.16921
  24025652.7224   -1068295.02843   -703857.43561
 91  4 23 20 31 29.9990000  0  6G18G11G19G 2G16G 6
  21060178.292     2331062.840 7   1804033.83423
  22839260.5424   -4469992.68446  -3390877.63161
  20656214.550    -1224015.739 7   -935316.99622
  22306700.4334   -7357769.84746  -5603665.02161
  23712452.4644   -2291895.05545  -1677507.72461
  24017865.8944   -1109192.07443   -735725.13561
 91  4 23 20 31 44.9990000  0  6G18G11G19G 2G16G 6
  21064794.120     2355317.223 7   1822933.27223
  22835179.2304   -4491451.66946  -3407598.85561
  20655245.9094   -1229123.24147   -939296.87463
  22297906.8084   -7403975.49446  -5639669.33162
  23707674.190    -2317013.579 5  -1697080.63021
  24010091.8704   -1150073.72144   -767580.84261
 91  4 23 20 31 59.9990000  0  6G18G11G19G 2G16G 6
  21069429.073     2379673.210 7   1841911.88623
  22831122.487    -4512770.642 6  -3424210.98521
  20654279.8704   -1234186.79847   -943242.51462
  22289124.347    -7450112.130 6  -5675619.85422
  23702917.401    -2342002.088 5  -1716552.20121
  24002312.800    -1190944.559 4   -799428.08821
 91  4 23 20 32 14.9990000  0  6G18G11G19G 2G16G 6
  21074085.487     2404141.087 7   1860977.68023
  22827094.636    -4533938.598 6  -3440705.44221
  20653329.5034   -1239195.65947   -947145.52862
  22280362.8624   -7496168.71846  -5711508.00662
  23698189.2844   -2366849.58145  -1735913.89961
  23994536.9804   -1231793.48743   -831258.28961
 91  4 23 20 32 29.9990000  0  6G18G11G19G 2G16G 6
  21078760.401     2428707.894 7   1880120.56723
  22823090.956    -4554968.329 6  -3457092.19021
  20652382.0584   -1244162.69247   -951015.94862
  22271609.1124   -7542158.15246  -5747343.84162
  23693484.2844   -2391569.12145  -1755175.90461
  23986768.4954   -1272633.88144   -863081.90961
 91  4 23 20 32 44.9990000  0  6G18G11G19G 2G16G 6
  21083454.933     2453377.014 7   1899343.17923
  22819118.7694   -4575855.85546  -3473368.13061
  20651446.3554   -1249084.20547   -954850.90262
  22262872.394    -7588076.637 6  -5783124.39621
  23688805.698    -2416156.790 5  -1774335.14421
  23978998.0194   -1313462.14244   -894895.97161
 91  4 23 20 32 59.9990000  0  6G18G11G19G 2G16G 6
  21088168.089     2478147.139 7   1918644.48823
  22815169.315    -4596602.261 6  -3489534.10421
  20650516.1204   -1253961.27847   -958651.22762
  22254149.0344   -7633925.33046  -5818850.55162
  23684153.128    -2440613.810 5  -1793392.57421
  23971231.4404   -1354279.25243   -926701.37761
 91  4 23 20 33 14.9990000  0  6G18G11G19G 2G16G 6
  21092901.198     2503015.712 7   1938022.51323
  22811247.7764   -4617210.00246  -3505592.02561
  20649598.3704   -1258796.53847   -962418.97162
  22245436.8394   -7679706.84646  -5854524.37262
  23679522.198    -2464942.773 5  -1812350.21721
  23963465.9564   -1395087.91843   -958500.23861
 91  4 23 20 33 29.9990000  0  6G18G11G19G 2G16G 6
  21097653.315     2527991.669 7   1957484.21523
  22807352.565    -4637669.782 6  -3521534.65321
  20648684.8784   -1263580.69847   -966146.89862
  22236738.4404   -7725411.86346  -5890138.58162
  23674920.003    -2489134.235 5  -1831200.73321
  23955702.0814   -1435879.25944   -990285.56661
 91  4 23 20 33 44.9990000  0  6G18G11G19G 2G16G 6
  21102426.042     2553074.111 7   1977028.89523
  22803488.425    -4657981.945 6  -3537362.25921
  20647787.5504   -1268314.47847   -969835.56362
  22228056.3624   -7771040.82346  -5925693.52062
  23670342.4724   -2513189.02145  -1849944.72961
  23947943.2844   -1476653.85443  -1022057.87961
 91  4 23 20 33 59.9990000  0  6G18G11G19G 2G16G 6
  21107219.331     2578258.814 7   1996653.25423
  22799650.565    -4678150.406 6  -3553077.89421
  20646895.5504   -1273001.88447   -973488.09763
  22219386.4014   -7816597.71946  -5961192.30761
  23665792.362    -2537111.099 5  -1868585.32321
  23940182.440    -1517415.802 3  -1053820.25821
 91  4 23 20 34 14.9990000  0  6G18G11G19G 2G16G 6
  21112032.339     2603549.267 7   2016360.01923
  22795840.9094   -4698171.39446  -3568678.60761
  20646011.1054   -1277639.13547   -977101.53962
  22210731.534    -7862078.878 6  -5996632.09622
  23661264.9254   -2560896.53945  -1887119.43961
  23932434.2064   -1558161.46244  -1085570.05861
 91  4 23 20 34 29.9990000  0  6G18G11G19G 2G16G 6
  21116864.2924    2628938.91647   2036144.07363
  22792058.6204   -4718051.17246  -3584169.28661
  20645137.964    -1282232.843 7   -980681.06622
  22202090.3864   -7907490.67846  -6032017.82862
  23656762.753    -2584551.865 5  -1905552.17621
  23924680.5654   -1598897.47443  -1117312.27061
 91  4 23 20 34 44.9990000  0  6G18G11G19G 2G16G 6
  21121716.1754    2654433.73547   2056010.07863
  22788301.8944   -4737783.38546  -3599544.97661
  20644274.2764   -1286776.67147   -984221.71562
  22193461.980    -7952826.819 6  -6067344.59022
  23652286.4254   -2608070.89545  -1923878.70361
  23916931.198    -1639617.635 3  -1149042.15821
 91  4 23 20 34 59.9990000  0  6G18G11G19G 2G16G 6
  21126585.9724    2680032.17647   2075956.83063
  22784576.8474   -4757369.05346  -3614806.47861
  20643416.6444   -1291271.93847   -987724.52362
  22184848.4334   -7998088.41146  -6102613.26962
  23647833.370    -2631454.679 5  -1942099.84521
  23909186.261    -1680323.295 4  -1180760.74821
 91  4 23 20 35 14.9990000  0  6G18G11G19G 2G16G 6
  21131478.0264    2705733.74947   2095983.94463
  22780877.120    -4776808.378 6  -3629953.95221
  20642572.7924   -1295718.99047   -991189.76362
  22176249.972    -8043275.707 6  -6137824.06622
  23643414.901    -2654703.718 5  -1960216.00021
  23901445.1984   -1721014.93045  -1212468.36161
 91  4 23 20 35 29.9990000  0  6G18G11G19G 2G16G 6
  21136388.9334    2731546.72747   2116097.86563
  22777206.253    -4796092.961 6  -3644980.84921
  20641737.0504   -1300109.46447   -994610.91962
  22167666.4094   -8088380.54046  -6172970.61062
  23639015.503    -2677809.479 5  -1978220.48921
  23893698.0264   -1761684.21943  -1244158.64161
 91  4 23 20 35 44.9990000  0  6G18G11G19G 2G16G 6
  21141320.690     2757461.697 7   2136291.26023
  22773564.4014   -4815231.84046  -3659894.19961
  20640911.6674   -1304452.47447   -997995.09362
  22159097.5114   -8133411.91746  -6208059.90362
  23634645.698    -2700781.183 5  -1996120.53321
  23885966.417    -1802340.338 4  -1275838.63021
 91  4 23 20 35 59.9990000  0  6G18G11G19G 2G16G 6
  21146269.987     2783473.840 7   2156560.37923
  22769950.026    -4834229.430 6  -3674697.46321
  20640089.9174   -1308752.56447  -1001345.82163
  22150542.0894   -8178374.38846  -6243095.50562
  23630297.8234   -2723623.64445  -2013919.86561
  23878235.230    -1842988.136 5  -1307512.13021
 91  4 23 20 36 14.9990000  0  6G18G11G19G 2G16G 6
  21151240.5814    2809586.99147   2176908.20063
  22766361.3394   -4853081.59046  -3689387.39261
  20639282.8624   -1313005.57647  -1004659.86863
  22141999.659    -8223263.754 6  -6278074.15022
  23625977.495    -2746332.357 5  -2031615.00021
  23870495.456    -1883623.589 4  -1339175.97321
 91  4 23 20 36 29.9990000  0  6G18G11G19G 2G16G 6
  21156227.315     2835797.089 7   2197331.57423
  22762801.7844   -4871791.87446  -3703966.77861
  20638481.425    -1317215.332 7  -1007940.20922
  22133470.683    -8268083.838 6  -6312998.81622
  23621678.6124   -2768911.38345  -2049209.04961
  23862767.6444   -1924250.41044  -1370833.14961
 91  4 23 20 36 44.9990000  0  6G18G11G19G 2G16G 6
  21161232.4644    2862105.12447   2217831.25063
  22759269.745    -4890359.244 6  -3718434.81021
  20637689.472    -1321380.863 7  -1011186.09023
  22124954.8624   -8312833.59246  -6347868.66562
  23617410.2844   -2791359.66145  -2066701.23961
  23855037.3624   -1964868.01245  -1402483.13261
 91  4 23 20 36 59.9990000  0  6G18G11G19G 2G16G 6
  21166261.4254    2888519.66847   2238413.92163
  22755763.769    -4908774.757 6  -3732784.50621
  20636906.667    -1325493.368 7  -1014390.65222
  22116454.105    -8357504.087 6  -6382676.75722
  23613162.3944   -2813668.12845  -2084084.48361
  23847312.2144   -2005467.36245  -1434118.82361
 91  4 23 20 37 14.9990000  0  6G18G11G19G 2G16G 6
  21171306.605     2915037.796 7   2259077.30923
  22752288.519    -4927040.817 6  -3747017.74521
  20636133.7844   -1329555.40947  -1017555.88962
  22107968.6834   -8402097.92246  -6417425.11462
  23608945.026    -2835839.279 5  -2101360.72921
  23839586.0264   -2046051.17444  -1465742.47361
 91  4 23 20 37 29.9990000  0  6G18G11G19G 2G16G 6
  21176370.5424    2941650.19747   2279814.15763
  22748840.1674   -4945166.58946  -3761141.66861
  20635367.1514   -1333576.28547  -1020689.04962
  22099494.597    -8446624.316 6  -6452120.92122
  23604749.800    -2857882.582 5  -2118537.34221
  23831869.3394   -2086629.10045  -1497361.55961
 91  4 23 20 37 44.9990000  0  6G18G11G19G 2G16G 6
  21181455.8944    2968371.74347   2300636.04863
  22745418.831    -4963136.795 6  -3775144.37521
  20634615.323    -1337540.614 7  -1023778.15122
  22091039.081    -8491067.974 6  -6486752.27222
  23600582.8704   -2879782.61445  -2135602.32861
  23824150.6124   -2127185.66544  -1528963.95661
 91  4 23 20 37 59.9990000  0  6G18G11G19G 2G16G 6
  21186559.7924    2995190.98347   2321534.06863
  22742028.0894   -4980962.76446  -3789034.68861
  20633869.730    -1341459.900 7  -1026832.14922
  22082592.144    -8535440.192 6  -6521327.94322
  23596439.081    -2901550.954 5  -2152564.69021
  23816430.987    -2167732.426 3  -1560558.71021
 91  4 23 20 38 14.9990000  0  6G18G11G19G 2G16G 6
  21191681.4874    3022108.90047   2342508.97563
  22738663.136    -4998642.889 6  -3802811.35421
  20633132.300    -1345332.776 7  -1029849.98822
  22074162.870    -8579739.689 6  -6555846.96422
  23592324.2614   -2923186.31845  -2169423.43961
  23808719.8004   -2208268.05344  -1592144.84961
 91  4 23 20 38 29.9990000  0  6G18G11G19G 2G16G 6
  21196823.1594    3049130.80647   2363564.91163
  22735327.589    -5016171.351 6  -3816469.84821
  20632403.323    -1349153.673 7  -1032827.32622
  22065749.4094   -8623960.67446  -6590304.78662
  23588231.456    -2944682.936 5  -2186174.07621
  23801011.839    -2248787.208 4  -1623718.07921
 91  4 23 20 38 44.9990000  0  6G18G11G19G 2G16G 6
  21201984.1594    3076246.93347   2384694.26863
  22732018.167    -5033557.966 6  -3830017.81221
  20631684.644    -1352932.532 7  -1035771.90722
  22057347.120    -8668113.008 6  -6624709.12222
  23584165.0814   -2966050.88045  -2202824.43361
  23793297.776    -2289299.753 4  -1655286.20721
 91  4 23 20 38 59.9990000  0  6G18G11G19G 2G16G 6
  21207164.8314    3103468.71147   2405905.95063
  22728738.8784   -5050790.89846  -3843446.00861
  20630974.433    -1356657.447 7  -1038674.44622
  22048961.5974   -8712184.93746  -6659050.81562
  23580127.292    -2987277.999 5  -2219365.06021
  23785593.6204   -2329793.99844  -1686840.09461
 91  4 23 20 39 14.9990000  0  6G18G11G19G 2G16G 6
  21212362.7454    3130786.63447   2427192.55063
  22725487.128    -5067879.216 6  -3856761.52821
  20630275.480    -1360337.633 7  -1041542.14222
  22040585.995    -8756185.541 6  -6693336.91922
  23576112.6284   -3008373.61145  -2235803.21961
  23777888.8004   -2370279.24045  -1718386.89461
 91  4 23 20 39 29.9990000  0  6G18G11G19G 2G16G 6
  21217580.7924    3158203.24947   2448556.05063
  22722263.1364   -5084820.28446  -3869962.30961
  20629586.331    -1363970.519 7  -1044372.97422
  22032228.300    -8800112.299 6  -6727565.48722
  23572123.9724   -3029335.18545  -2252136.94461
  23770187.167    -2410753.005 4  -1749924.79621
 91  4 23 20 39 44.9990000  0  6G18G11G19G 2G16G 6
  21222815.1284    3185717.00747   2469995.24863
  22719067.058    -5101615.487 6  -3883049.42621
  20628903.081    -1367557.613 7  -1047168.12922
  22023883.417    -8843966.555 6  -6761737.55522
  23568159.6514   -3050164.20245  -2268367.35061
  23762485.8784   -2451216.81544  -1781454.96261
 91  4 23 20 39 59.9990000  0  6G18G11G19G 2G16G 6
  21228069.1204    3213322.77447   2491506.13663
  22715898.222    -5118269.032 6  -3896026.16721
  20628228.808    -1371103.205 7  -1049930.93923
  22015550.722    -8887752.574 6  -6795856.45722
  23564221.7534   -3070865.22345  -2284498.03861
  23754790.050    -2491675.267 5  -1812980.96321
 91  4 23 20 40 14.9990000  0  6G18G11G19G 2G16G 6
  21233341.8784    3241030.44947   2513096.44263
  22712756.808    -5134770.895 6  -3908884.72021
  20627561.956    -1374597.128 7  -1052653.48923
  22007232.761    -8931460.468 6  -6829914.47822
  23560306.651    -3091428.052 5  -2300521.04721
  23747095.073    -2532118.336 5  -1844494.88321
 91  4 23 20 40 29.9990000  0  6G18G11G19G 2G16G 6
  21238633.2064    3268835.86847   2534762.90463
  22709645.808    -5151125.017 6  -3921628.14321
  20626906.230    -1378043.464 7  -1055338.96523
  21998929.987    -8975094.321 6  -6863914.80722
  23556420.8944   -3111856.70645  -2316439.52861
  23739396.6674   -2572550.37044  -1876000.28461
 91  4 23 20 40 44.9990000  0  6G18G11G19G 2G16G 6
  21243942.5424    3296735.00747   2556502.40363
  22706561.190    -5167335.056 6  -3934259.29421
  20626260.1904   -1381446.13947  -1057990.41362
  21990638.901    -9018657.771 6  -6897860.28122
  23552556.6834   -3132155.08445  -2332256.44661
  23731708.909    -2612975.046 5  -1907499.91921
 91  4 23 20 40 59.9990000  0  6G18G11G19G 2G16G 6
  21249269.9644    3324729.49147   2578316.19063
  22703504.230    -5183399.540 6  -3946777.03121
  20625620.620    -1384803.883 7  -1060606.84823
  21982364.2064   -9062149.37046  -6931749.76962
  23548721.706    -3152321.699 5  -2347970.69921
  23724017.769    -2653390.961 5  -1938992.72921
 91  4 23 20 41 14.9990000  0  6G18G11G19G 2G16G 6
  21254617.3944    3352829.40147   2600212.12463
  22700476.503    -5199307.784 6  -3959173.01721
  20624991.550    -1388106.092 7  -1063180.01322
  21974102.792    -9105558.449 6  -6965574.94522
  23544910.0034   -3172345.90345  -2363574.02161
  23716326.769    -2693787.777 4  -1970470.64521
 91  4 23 20 41 29.9990000  0  6G18G11G19G 2G16G 6
  21259983.5344    3381028.82347   2622185.61063
  22697478.1124   -5215065.07746  -3971451.38661
  20624375.019    -1391358.123 6  -1065714.07622
  21965856.995    -9148890.403 6  -6999340.03322
  23541125.3154   -3192233.24345  -2379070.67461
  23708640.972    -2734170.855 4  -2001937.84621
 91  4 23 20 41 44.9990000  0  6G18G11G19G 2G16G 6
  21265367.612     3409322.183 7   2644232.27623
  22694506.956    -5230676.782 6  -3983616.30521
  20623763.558    -1394565.106 7  -1068213.03922
  21957624.159    -9192150.679 6  -7033049.26122
  23537366.167    -3211989.070 5  -2394464.84321
  23700960.136    -2774545.845 5  -2033398.79621
 91  4 23 20 41 59.9990000  0  6G18G11G19G 2G16G 6
  21270769.5504    3437709.07847   2666351.84463
  22691563.651    -5246142.848 6  -3995667.74421
  20623158.159    -1397727.183 7  -1070677.00922
  21949405.948    -9235339.230 6  -7066702.60822
  23533630.5894   -3231613.93145  -2409756.96161
  23693279.7534   -2814912.91145  -2064853.53561
 91  4 23 20 42 14.9990000  0  6G18G11G19G 2G16G 6
  21276188.4644    3466189.70647   2688544.44062
  22688650.136    -5261462.755 6  -4007605.29221
  20622568.3864   -1400844.07647  -1073105.76762
  21941202.503    -9278455.679 7  -7100299.76322
  23529921.105    -3251106.917 5  -2424946.32621
  23685597.347    -2855271.629 4  -2096301.82021
 91  4 23 20 42 29.9990000  0  6G18G11G19G 2G16G 6
  21281627.3154    3494769.51547   2710814.32363
  22685762.3234   -5276631.24146  -4019424.85061
  20621982.6984   -1403910.53347  -1075495.22262
  21933011.870    -9321494.828 6  -7133836.68622
  23526240.753    -3270462.863 5  -2440028.89821
  23677921.2064   -2895616.94645  -2127739.60661
 91  4 23 20 42 44.9990000  0  6G18G11G19G 2G16G 6
  21287086.0894    3523449.85647   2733162.54463
  22682904.5424   -5291646.44046  -4031124.97161
  20621411.2374   -1406924.64547  -1077843.89162
  21924836.620    -9364454.792 6  -7167311.91022
  23522581.706    -3289680.244 5  -2455003.50321
  23670246.698    -2935947.038 5  -2159165.57921
 91  4 23 20 42 59.9990000  0  6G18G11G19G 2G16G 6
  21292561.0974    3552223.48047   2755583.44863
  22680076.480    -5306515.291 6  -4042711.05021
  20620843.776    -1409893.410 7  -1080157.22922
  21916676.839    -9407342.580 6  -7200730.89322
  23518949.1594   -3308765.98245  -2469875.52061
  23662574.550    -2976269.233 5  -2190585.33821
 91  4 23 20 43 14.9990000  0  6G18G11G19G 2G16G 6
  21298053.6444    3581093.40947   2778079.40162
  22677275.3784   -5321234.44546  -4054180.48961
  20620290.7374   -1412813.70847  -1082432.79362
  21908528.417    -9450154.726 7  -7234090.93222
  23515343.065    -3327716.671 5  -2484642.32621
  23654902.722    -3016580.115 4  -2221996.33421
 91  4 23 20 43 29.9990000  0  6G18G11G19G 2G16G 6
  21303565.8704    3610055.19747   2800646.92363
  22674500.0424   -5335808.02046  -4065536.48961
  20619740.9484   -1415689.77347  -1084673.89463
  21900394.9174   -9492895.43546  -7267395.32062
  23511761.167    -3346536.631 5  -2499307.25021
  23647231.175    -3056884.109 5  -2253401.91221
 91  4 23 20 43 44.9990000  0  6G18G11G19G 2G16G 6
  21309096.2304    3639115.85647   2823291.50363
  22671757.0034   -5350228.61646  -4076773.27961
  20619205.753    -1418514.309 7  -1086874.84122
  21892276.128    -9535557.608 6  -7300638.48822
  23508207.222    -3365218.741 5  -2513864.74421
  23639566.120    -3097173.997 5  -2284796.51121
 91  4 23 20 43 59.9990000  0  6G18G11G19G 2G16G 6
  21314644.3704    3668275.09547   2846012.88963
  22669041.745    -5364496.164 6  -4087890.80821
  20618675.933    -1421287.333 7  -1089035.65322
  21884174.808    -9578141.164 7  -7333820.40322
  23504677.6124   -3383762.94845  -2528314.79061
  23631899.7454   -3137449.96445  -2316180.25761
 91  4 23 20 44 14.9990000  0  6G18G11G19G 2G16G 6
  21320212.5734    3697531.67147   2868810.11663
  22666356.4724   -5378611.65146  -4098889.85961
  20618160.401    -1424009.838 7  -1091157.09923
  21876084.4484   -9620647.23547  -7366941.94262
  23501172.1674   -3402170.55345  -2542658.42061
  23624241.0894   -3177713.07145  -2347554.03061
 91  4 23 20 44 29.9990000  0  6G18G11G19G 2G16G 6
  21325796.8624    3726882.00847   2891680.41362
  22663698.1514   -5392578.35646  -4109772.97361
  20617648.964    -1426684.925 7  -1093241.59723
  21868009.3864   -9663078.89346  -7400005.50762
  23497696.7144   -3420444.31745  -2556897.73661
  23616576.870    -3217966.620 5  -2378920.33821
 91  4 23 20 44 44.9990000  0  6G18G11G19G 2G16G 6
  21331401.847     3756330.501 7   2914627.18522
  22661069.0814   -5406391.81246  -4120536.66561
  20617151.245    -1429308.219 7  -1095285.73723
  21859950.315    -9705431.623 7  -7433007.55522
  23494247.8704   -3438579.96645  -2571029.45261
  23608921.3154   -3258206.37645  -2410275.84261
 91  4 23 20 44 59.9990000  0  6G18G11G19G 2G16G 6
  21337023.4334    3785870.98247   2937645.64862
  22658468.7924   -5420057.54246  -4131185.24961
  20616658.917    -1431885.406 7  -1097293.94723
  21851905.175    -9747711.203 7  -7465952.60622
  23490823.480    -3456583.397 5  -2585058.12421
  23601265.730    -3298437.975 4  -2441625.04221
 91  4 23 20 45 14.9990000  0  6G18G11G19G 2G16G 6
  21342663.253     3815505.242 7   2960737.17523
  22655896.0114   -5433573.60046  -4141717.21561
  20616180.862    -1434414.673 7  -1099264.82023
  21843873.6834   -9789915.63147  -7498839.10362
  23487419.6984   -3474452.77745  -2598982.34061
  23593610.534    -3338659.703 5  -2472966.54121
 91  4 23 20 45 29.9990000  0  6G18G11G19G 2G16G 6
  21348319.3234    3845229.56047   2983898.88362
  22653353.5194   -5446943.48146  -4152135.27061
  20615704.886    -1436899.487 7  -1101201.05722
  21835855.565    -9832048.615 6  -7531669.92922
  23484044.9874   -3492191.60045  -2612804.83961
  23585959.190    -3378875.235 5  -2504303.21921
 91  4 23 20 45 44.9990000  0  6G18G11G19G 2G16G 6
  21353992.690     3875046.611 7   3007132.85022
  22650837.3784   -5460164.27446  -4162437.15661
  20615243.386    -1439336.876 7  -1103100.33623
  21827852.034    -9874107.225 7  -7564442.79822
  23480694.8944   -3509797.22245  -2626523.54061
  23578310.3004   -3419081.73245  -2535632.84461
 91  4 23 20 45 59.9990000  0  6G18G11G19G 2G16G 6
  21359685.3394    3904955.17947   3030438.12562
  22648350.1514   -5473236.68146  -4172623.41461
  20614786.151    -1441727.898 7  -1104963.48823
  21819861.972    -9916092.211 7  -7597158.29522
  23477368.5584   -3527270.34345  -2640138.98961
  23570656.222    -3459280.159 4  -2566956.19521
 91  4 23 20 46 14.9990000  0  6G18G11G19G 2G16G 6
  21365392.651     3934950.958 7   3053811.35822
  22645889.4014   -5486164.88146  -4182697.31361
  20614342.800    -1444076.668 7  -1106793.71823
  21811885.5504   -9958007.62647  -7629819.58662
  23474069.4484   -3544615.12745  -2653654.43761
  23563010.269    -3499474.680 5  -2598276.49021
 91  4 23 20 46 29.9990000  0  6G18G11G19G 2G16G 6
  21371119.245     3965040.997 7   3077258.03622
  22643458.0194   -5498941.35146  -4192652.97061
  20613903.823    -1446375.634 7  -1108585.13423
  21803924.7374   -9999846.07947  -7662420.91262
  23470795.9484   -3561824.26745  -2667064.19961
  23555362.323    -3539658.100 5  -2629588.13521
 91  4 23 20 46 44.9990000  0  6G18G11G19G 2G16G 6
  21376862.4804    3995223.52747   3100776.79762
  22641055.2374   -5511567.65946  -4202491.61761
  20613476.136    -1448626.539 6  -1110339.10723
  21795977.542   -10041609.175 7  -7694963.51222
  23467546.855    -3578899.650 5  -2680369.73521
  23547718.9174   -3579831.93345  -2660892.30861
 91  4 23 20 46 59.9990000  0  6G18G11G19G 2G16G 6
  21382623.214     4025499.487 7   3124368.34922
  22638682.2694   -5524042.71246  -4212212.40961
  20613054.784    -1450828.130 7  -1112054.64822
  21788044.972   -10083295.700 7  -7727446.44722
  23464321.198    -3595839.802 5  -2693569.87221
  23540069.362    -3619995.336 4  -2692188.37021
 91  4 23 20 47 14.9990000  0  6G18G11G19G 2G16G 6
  21388402.3474    4055862.53547   3148027.76862
  22636334.9724   -5536372.58646  -4221820.07661
  20612646.855    -1452986.580 7  -1113736.57323
  21780125.081   -10124911.932 7  -7759874.60522
  23461121.8084   -3612650.94845  -2706669.50161
  23532432.948    -3660154.407 5  -2723481.03421
 91  4 23 20 47 29.9990000  0  6G18G11G19G 2G16G 6
  21394196.081     4086312.899 7   3171755.22422
  22634015.2304   -5548556.33946  -4231313.88161
  20612243.151    -1455101.096 7  -1115384.26922
  21772221.1674  -10166456.95847  -7792247.28562
  23457947.7844   -3629332.64145  -2719668.26461
  23524792.0734   -3700308.44145  -2754769.77661
 91  4 23 20 47 44.9990000  0  6G18G11G19G 2G16G 6
  21400006.9724    4116846.75847   3195547.74162
  22631725.339    -5560597.765 6  -4240696.78521
  20611850.714    -1457175.395 7  -1117000.62123
  21764326.3474  -10207934.66847  -7824567.51762
  23454797.355    -3645888.732 5  -2732569.13321
  23517154.5114   -3740461.42745  -2786057.72061
 91  4 23 20 47 59.9990000  0  6G18G11G19G 2G16G 6
  21405834.245     4147474.455 7   3219413.37722
  22629463.4404   -5572486.21746  -4249960.48861
  20611462.651    -1459198.654 7  -1118577.20723
  21756448.2844  -10249334.40747  -7856826.98062
  23451670.7844   -3662308.53445  -2745363.81461
  23509509.0114   -3780602.67145  -2817336.53061
 91  4 23 20 48 14.9990000  0  6G18G11G19G 2G16G 6
  21411680.745     4178191.745 7   3243348.82622
  22627229.3234   -5584225.53846  -4259107.98261
  20611088.378    -1461174.869 6  -1120117.13423
  21748584.2694  -10290659.86747  -7889028.57462
  23448572.9564   -3678596.02745  -2758055.42461
  23501874.925    -3820736.261 5  -2848609.36321
 91  4 23 20 48 29.9990000  0  6G18G11G19G 2G16G 6
  21417545.3474    4209008.22047   3267361.56662
  22625025.7224   -5595806.09246  -4268131.75961
  20610719.855    -1463094.474 7  -1121612.94723
  21740736.6284  -10331901.48047  -7921164.83162
  23445501.0894   -3694741.27945  -2770636.15961
  23494239.3234   -3860852.66845  -2879868.76861
 91  4 23 20 48 44.9990000  0  6G18G11G19G 2G16G 6
  21423426.558     4239913.243 7   3291443.29522
  22622851.706    -5607238.146 6  -4277039.82821
  20610366.862    -1464967.665 7  -1123072.59323
  21732903.3474  -10373069.53547  -7953243.76762
  23442454.761    -3710754.894 5  -2783114.34521
  23486607.394    -3900962.151 5  -2911122.81921
 91  4 23 20 48 59.9990000  0  6G18G11G19G 2G16G 6
  21429323.222     4270902.942 7   3315591.01022
  22620702.722    -5618525.301 6  -4285834.98621
  20610016.628    -1466798.308 7  -1124499.08823
  21725081.6904  -10414167.67247  -7985268.22862
  23439429.4954   -3726640.67845  -2795492.91561
  23478975.2144   -3941068.51045  -2942374.44961
 91  4 23 20 49 14.9990000  0  6G18G11G19G 2G16G 6
  21435238.269     4301984.632 7   3339810.40022
  22618583.136    -5629660.019 6  -4294511.36421
  20609679.097    -1468578.889 7  -1125886.57023
  21717275.2924  -10455188.41447  -8017232.37562
  23436434.1984   -3742391.47045  -2807766.29261
  23471345.1754   -3981164.54445  -2973618.01461
 91  4 23 20 49 29.9990000  0  6G18G11G19G 2G16G 6
  21441168.5974    4333153.22747   3364097.51862
  22616493.253    -5640646.884 6  -4303072.53221
  20609349.331    -1470314.060 7  -1127238.66823
  21709483.394   -10496136.261 7  -8049139.71622
  23433462.214    -3758011.732 5  -2819937.95921
  23463719.206    -4021254.833 5  -3004857.08521
 91  4 23 20 49 44.9990000  0  6G18G11G19G 2G16G 6
  21447116.292     4364408.183 7   3388451.92822
  22614430.667    -5651486.368 6  -4311518.85821
  20609026.753    -1472004.242 7  -1128555.70623
  21701705.4174  -10537011.79747  -8080990.72262
  23430512.3784   -3773501.88745  -2832008.23261
  23456086.198    -4061339.816 5  -3036092.01621
 91  4 23 20 49 59.9990000  0  6G18G11G19G 2G16G 6
  21453083.612     4395759.223 7   3412881.20122
  22612396.292    -5662168.152 6  -4319842.30321
  20608714.276    -1473638.826 7  -1129829.42223
  21693943.1904  -10577804.59747  -8112777.25862
  23427594.4954   -3788851.57445  -2843969.05961
  23448463.9484   -4101409.42445  -3067315.01261
 91  4 23 20 50 14.9990000  0  6G18G11G19G 2G16G 6
  21459064.839     4427197.554 7   3437378.50022
  22610392.8474   -5672700.92546  -4328049.63161
  20608414.581    -1475226.729 7  -1131066.76322
  21686194.2064  -10618523.42447  -8144506.15862
  23424694.956    -3804069.772 5  -2855827.43921
  23440838.3394   -4141472.33945  -3098532.77561
 91  4 23 20 50 29.9990000  0  6G18G11G19G 2G16G 6
  21465067.847     4458734.253 7   3461952.45022
  22608418.7064   -5683073.39146  -4336132.04661
  20608123.565    -1476756.692 7  -1132258.95323
  21678461.8784  -10659157.15447  -8176168.73862
  23421826.6984   -3819145.18845  -2867574.55261
  23433217.2534   -4181517.42445  -3129736.61861
 91  4 23 20 50 44.9990000  0  6G18G11G19G 2G16G 6
  21471085.456     4490362.738 7   3486597.91722
  22606475.159    -5693291.782 6  -4344094.40321
  20607842.323    -1478235.145 7  -1133411.01023
  21670743.1594  -10699712.08947  -8207769.92362
  23418987.3784   -3834084.01145  -2879215.22461
  23425599.995    -4221551.056 5  -3160931.56921
 91  4 23 20 50 59.9990000  0  6G18G11G19G 2G16G 6
  21477121.339     4522075.716 7   3511309.22222
  22604558.440    -5703363.187 6  -4351942.23421
  20607567.644    -1479669.003 7  -1134528.31823
  21663040.0584  -10740195.36147  -8239315.26562
  23416166.237    -3848893.606 5  -2890755.21221
  23417985.675    -4261580.518 5  -3192123.24221
 91  4 23 20 51 14.9990000  0  6G18G11G19G 2G16G 6
  21483171.433     4553876.545 7   3536088.97922
  22602669.362    -5713283.949 6  -4359672.67921
  20607306.034    -1481054.572 7  -1135607.99723
  21655351.4334  -10780603.13147  -8270801.77062
  23413375.6124   -3863570.58245  -2902191.85961
  23410364.8784   -4301602.21845  -3223308.92961
 91  4 23 20 51 29.9990000  0  6G18G11G19G 2G16G 6
  21489240.909     4585767.005 7   3560938.58322
  22600810.753    -5723051.975 6  -4367284.10321
  20607050.987    -1482389.798 7  -1136648.44423
  21647676.4804  -10820933.19947  -8302227.73962
  23410608.0584   -3878112.84345  -2913523.51661
  23402755.651    -4341614.062 5  -3254486.87621
 91  4 23 20 51 44.9990000  0  6G18G11G19G 2G16G 6
  21495326.3084    4617751.24147   3585861.26162
  22598982.042    -5732662.888 6  -4374773.10821
  20606807.714    -1483670.288 7  -1137646.24023
  21640017.1594  -10861181.29647  -8333589.82862
  23407865.8554   -3892516.13345  -2924746.90861
  23395142.9404   -4381611.71345  -3285653.82361
 91  4 23 20 51 59.9990000  0  6G18G11G19G 2G16G 6
  21501427.503     4649816.540 7   3610847.10322
  22597180.4874   -5742129.21446  -4382149.44161
  20606572.980    -1484908.494 7  -1138611.08423
  21632371.4334  -10901360.01347  -8364897.85562
  23405150.6834   -3906793.12245  -2935871.86961
  23387530.565    -4421607.847 5  -3316819.55921
 91  4 23 20 52 14.9990000  0  6G18G11G19G 2G16G 6
  21507548.269     4681971.709 7   3635902.96722
  22595409.878    -5751442.062 6  -4389406.18721
  20606345.2844   -1486095.57447  -1139536.09263
  21624739.8234  -10941460.50347
  23402457.8314   -3920934.72445  -2946891.36861
  23379923.495    -4461593.742 5
 91  4 23 20 52 29.9990000  0  6G18G11G19G 2G16G 6
  21513683.019     4714211.815 7   3661025.03122
  22593665.644    -5760605.651 6  -4396546.62021
  20606129.7304   -1487235.76547  -1140424.56663
  21617123.6514  -10981486.90847
  23399789.4334   -3934945.23945  -2957808.67661
  23372314.995    -4501573.685 5
 91  4 23 20 52 44.9990000  0  6G18G11G19G 2G16G 6
  21519833.995     4746537.236 7   3686213.56922
  22591949.722    -5769619.383 6  -4403570.28221
  20605920.808    -1488328.490 7  -1141276.04923
  21609520.8784  -11021438.77147
  23397152.7144   -3948824.22945  -2968623.52761
  23364708.784    -4541547.149 5
 91  4 23 20 52 59.9990000  0  6G18G11G19G 2G16G 6
  21526001.573     4778943.304 7   3711464.94022
  22590260.948    -5778487.739 6  -4410480.66421
  20605719.628    -1489378.230 7  -1142094.04123
  21601931.5264  -11061320.43447  -8489542.08562
  23394536.7924   -3962576.47645  -2979339.62861
  23357098.9404   -4581518.65545  -3441425.03561
 91  4 23 20 53 14.9980000  0  6G18G11G19G 2G16G 6
  21532183.443     4811429.987 7   3736779.12922
  22588602.123    -5787207.731 6  -4417275.44021
  20605530.725    -1490382.524 7  -1142876.61823
  21594356.4594  -11101126.81847  -8520559.98662
  23391943.506    -3976198.530 5  -2989954.26621
  23349495.631    -4621483.309 5  -3472566.28621
 91  4 23 20 53 29.9980000  0  6G18G11G19G 2G16G 6
  21538382.795     4844005.018 7   3762162.16822
  22586970.904    -5795777.034 6  -4423952.79521
  20605348.982    -1491338.035 7  -1143621.18323
  21586796.3184  -11140859.77647  -8551520.66062
  23389375.014    -3989688.938 5  -3000466.31221
  23341889.881    -4661443.075 5  -3503703.68221
 91  4 23 20 53 44.9980000  0  6G18G11G19G 2G16G 6
  21544596.467     4876664.793 7   3787611.24222
  22585369.928    -5804195.936 6  -4430512.96021
  20605175.498    -1492245.417 7  -1144328.24723
  21579249.6004  -11180517.64347  -8582422.83162
  23386834.8574   -4003047.57845  -3010875.70261
  23334287.311    -4701396.127 5  -3534835.82321
 91  4 23 20 53 59.9980000  0  6G18G11G19G 2G16G 6
  21550828.553     4909406.749 7   3813124.33222
  22583796.279    -5812467.094 6  -4436957.99921
  20605014.5374   -1493107.44546  -1144999.96563
  21571715.7254  -11220102.98147  -8613268.48262
  23384315.3504   -4016277.37345  -3021184.70761
  23326686.6544   -4741345.22745  -3565964.94761
 91  4 23 20 54 14.9980000  0  6G18G11G19G 2G16G 6
  21557076.334     4942238.327 7   3838707.28422
  22582251.326    -5820582.743 6  -4443281.86021
  20604858.498    -1493916.386 7  -1145630.32323
  21564198.6704  -11259608.12647  -8644051.64562
  23381825.2404   -4029370.80745  -3031387.41861
  23319087.147    -4781282.740 5  -3597085.01621
 91  4 23 20 54 29.9980000  0  6G18G11G19G 2G16G 6
  21563338.1314    4975146.27647   3864349.72762
  22580733.709    -5828555.692 6  -4449494.53221
  20604708.061    -1494684.788 7  -1146229.09023
  21556694.4824  -11299045.75847  -8674782.20462
  23379358.6234   -4042340.29245  -3041493.56861
  23311486.928    -4821221.500 5  -3628206.06521
 91  4 23 20 54 44.9980000  0  6G18G11G19G 2G16G 6
  21569616.381     5008139.067 7   3890058.28522
  22579246.389    -5836377.118 6  -4455589.13221
  20604574.537    -1495403.877 7  -1146789.42923
  21549203.7014  -11338406.97447  -8705453.21062
  23376912.4674   -4055177.55745  -3051496.72561
  23303889.068    -4861152.811 5  -3659321.28221
 91  4 23 20 54 59.9980000  0  6G18G11G19G 2G16G 6
  21575911.803     5041225.948 7   3915840.16122
  22577787.490    -5844037.554 6  -4461558.29021
  20604447.701    -1496064.176 7  -1147303.96223
  21541729.8574  -11377682.61747  -8736057.55462
  23374497.725    -4067873.361 5  -3061389.59221
  23296293.545    -4901067.375 5  -3690423.47221
 91  4 23 20 55 14.9980000  0  6G18G11G19G 2G16G 6
  21582225.022     5074396.327 7   3941687.10022
  22576359.162    -5851547.488 6  -4467410.17421
  20604332.490    -1496676.236 7  -1147780.90623
  21534271.1934  -11416883.11347  -8766603.32162
  23372108.7954   -4080437.87345  -3071180.16461
  23288695.8424   -4940975.54945  -3721520.67561
 91  4 23 20 55 29.9980000  0  6G18G11G19G 2G16G 6
  21588552.904     5107650.031 7   3967598.97022
  22574957.756    -5858906.597 6  -4473144.52821
  20604224.334    -1497239.954 7  -1148220.18223
  21526824.4044  -11456007.95447  -8797090.15162
  23369742.584    -4092871.124 5  -3080868.46621
  23281105.092    -4980877.243 5  -3752612.84921
 91  4 23 20 55 44.9980000  0  6G18G11G19G 2G16G 6
  21594897.443     5140990.197 7   3993578.20822
  22573587.592    -5866111.574 6  -4478758.78521
  20604129.217    -1497751.774 7  -1148619.01423
  21519393.7644  -11495053.82147  -8827515.43762
  23367401.8574   -4105169.74345  -3090451.86661
  23273514.6934   -5020769.15445  -3783697.40461
 91  4 23 20 55 59.9980000  0  6G18G11G19G 2G16G 6
  21601259.631     5174421.622 7   4019628.56322
  22572246.248    -5873157.672 6  -4484249.23921
  20604039.404    -1498206.842 7  -1148973.63323
  21511979.9754  -11534015.90747  -8857875.44062
  23365086.8574   -4117328.91645  -3099926.60161
  23265924.029    -5060646.461 5  -3814770.55521
 91  4 23 20 56 14.9980000  0  6G18G11G19G 2G16G 6
  21607635.951     5207935.756 7   4045743.35722
  22570933.787    -5880052.714 6  -4489621.98221
  20603963.881    -1498612.903 7  -1149290.05623
  21504580.3734  -11572902.11347  -8888176.31662
  23362797.8814   -4129356.60845  -3109298.87061
  23258338.514    -5100517.058 5  -3845838.47421
 91  4 23 20 56 29.9980000  0  6G18G11G19G 2G16G 6
  21614030.818     5241533.516 7   4071923.32522
  22569651.0224   -5886795.82846  -4494876.34661
  20603894.170    -1498969.065 7  -1149567.60523
  21497194.5684  -11611711.54347  -8918417.37062
  23360532.4754   -4141252.21145  -3118568.23761
  23250748.990    -5140380.299 5  -3876900.67021
 91  4 23 20 56 44.9980000  0  6G18G11G19G 2G16G 6
  21620439.607     5275217.112 7   4098170.16922
  22568394.740    -5893384.658 6  -4500010.48521
  20603839.982    -1499272.957 7  -1149804.42023
  21489825.1314  -11650441.87247  -8948596.78562
  23358297.1784   -4153013.43045  -3127732.89861
  23243168.404    -5180233.798 5  -3907955.26921
 91  4 23 20 56 59.9980000  0  6G18G11G19G 2G16G 6
  21626867.709     5308995.365 7   4124490.77422
  22567174.654    -5899810.034 6  -4505017.25821
  20603792.131    -1499515.359 7  -1149993.32723
  21482471.3344  -11689083.90447  -8978707.39162
  23356086.2794   -4164631.03845  -3136785.62961
  23235589.748    -5220068.545 5  -3938995.26821
 91  4 23 20 57 14.9980000  0  6G18G11G19G 2G16G 6
  21633311.092     5342854.341 7   4150874.28322
  22565979.8344   -5906085.53146  -4509907.24361
  20603756.506    -1499709.968 7  -1150144.99123
  21475131.2324  -11727651.26747  -9008759.82662
  23353900.912    -4176118.808 5  -3145737.19721
  23228008.2564   -5259898.24145  -3970031.31961
 91  4 23 20 57 29.9980000  0  6G18G11G19G 2G16G 6
  21639770.607     5376801.511 7   4177326.50722
  22564815.803    -5912203.639 6  -4514674.58221
  20603728.131    -1499848.931 7
  21467808.9674  -11766136.38847  -9038748.17062
  23351739.147    -4187469.365 5  -3154581.88221
  23220429.334    -5299715.128 5  -4001057.40621
 91  4 23 20 57 44.9980000  0  6G18G11G19G 2G16G 6
  21646246.264     5410832.489 7   4203844.04122
  22563681.818    -5918168.119 6  -4519322.21321
  20603712.272    -1499936.233 7
  21460500.5534  -11804543.05447  -9068675.38162
  23349607.490    -4198686.417 5  -3163322.49521
  23212855.7644   -5339523.16245  -4032076.58561
 91  4 23 20 57 59.9980000  0  6G18G11G19G 2G16G 6
  21652739.4434    5444951.81147   4230430.40962
  22562576.326    -5923974.330 6  -4523846.52021
  20603705.193    -1499967.221 7
  21453207.4044  -11842866.48047  -9098537.72862
  23347496.795    -4209765.343 5  -3171955.45621
  23205283.2324   -5379317.86445  -4063085.37561
 91  4 23 20 58 14.9980000  0  6G18G11G19G 2G16G 6
  21659248.0764    5479149.95747   4257078.19762
  22561497.811    -5929631.571 6  -4528254.74521
  20603710.350    -1499951.055 7
  21445927.7014  -11881115.99047  -9128342.48162
  23345414.4754   -4220715.64545  -3180488.22761
  23197710.420    -5419108.563 5  -4094091.03121
 91  4 23 20 58 29.9980000  0  6G18G11G19G 2G16G 6
  21665773.178     5513438.685 7   4283796.57522
  22560454.248    -5935127.933 6  -4532537.61621
  20603722.709    -1499875.711 7
  21438666.7874  -11919279.65147  -9158080.33762
  23343354.029    -4231525.501 5  -3188911.55921
  23190140.912    -5458883.273 5  -4125084.23521
 91  4 23 20 58 44.9980000  0  6G18G11G19G 2G16G 6
  21672315.639     5547816.677 7   4310584.50822
  22559438.8034   -5940464.43446  -4536695.91361
  20603749.498    -1499742.025 7
  21431420.3734  -11957358.36747  -9187752.00262
  23341327.1394   -4242196.20445  -3197226.46161
  23182575.318    -5498642.887 5  -4156065.67021
 91  4 23 20 58 59.9980000  0  6G18G11G19G 2G16G 6
  21678871.9594    5582271.80146   4337432.53662
  22558450.873    -5945653.104 6  -4540739.02421
  20603783.6474   -1499562.08847
  21424188.2174  -11995364.18447  -9217366.86762
  23339318.2174   -4252739.59345  -3205442.15261
  23175009.897    -5538399.644 5  -4187044.88321
 91  4 23 20 59 14.9980000  0  6G18G11G19G 2G16G 6
  21685442.897     5616805.947 7   4364342.14522
  22557490.6314   -5950691.64746  -4544665.15161
  20603828.061    -1499333.604 7
  21416970.0454  -12033294.92047  -9246923.22162
  23337339.5144   -4263153.60445  -3213557.02361
  23167446.9364   -5578151.35045  -4218020.17661
 91  4 23 20 59 29.9980000  0  6G18G11G19G 2G16G 6
  21692030.9284    5651425.73246   4391318.49262
  22556564.764    -5955573.465 6  -4548469.14521
  20603878.467    -1499050.004 7  -1149630.93923
  21409766.3974  -12071143.80947  -9276415.79962
  23335380.4754   -4273431.52245  -3221565.87461
  23159885.217    -5617891.430 5  -4248986.39421
 91  4 23 20 59 44.9980000  0  6G18G11G19G 2G16G 6
  21698633.186     5686122.884 6   4418355.09822
  22555662.342    -5960306.333 6  -4552157.08021
  20603943.537    -1498718.872 7  -1149372.93923
  21402580.3114  -12108918.61747  -9305850.65562
  23333449.662    -4283581.782 5  -3229475.22721
  23152320.529    -5657627.658 5  -4279949.60921
 91  4 23 20 59 59.9980000  0  6G18G11G19G 2G16G 6
  21705251.568     5720900.044 6   4445454.08022
  22554790.123    -5964887.381 6  -4555726.71221
  20604017.295    -1498337.330 7  -1149075.65923
  21395405.4514  -12146616.49547  -9335225.56062
  23331542.795    -4293601.327 5  -3237282.70021
  23144762.592    -5697357.252 5  -4310907.64421
 91  4 23 21  0 14.9980000  0  6G18G11G19G 2G16G 6
  21711884.6704    5755758.64246   4472616.50262
  22553947.834    -5969314.949 6  -4559176.74621
  20604100.584    -1497903.533 7  -1148737.65623
  21388246.1934  -12184235.91147  -9364539.33562
  23329662.3184   -4303488.05345  -3244986.73961
  23137204.045    -5737078.428 5  -4341859.12921
 91  4 23 21  0 29.9980000  0  6G18G11G19G 2G16G 6
  21718535.248     5790699.627 6   4499843.12222
  22553136.123    -5973587.910 6  -4562506.30621
  20604190.342    -1497416.426 7  -1148358.11323
  21381103.3734  -12221775.54647  -9393790.92962
  23327805.662    -4313241.300 5  -3252586.72221
  23129645.217    -5776790.238 5  -4372803.31621
 91  4 23 21  0 44.9980000  0  6G18G11G19G 2G16G 6
  21725197.9284    5825724.50446   4527135.12262
  22552350.740    -5977704.511 6  -4565714.03221
  20604294.209    -1496874.188 7  -1147935.61323
  21373972.3894  -12259233.68247  -9422979.02962
  23325978.537    -4322859.272 5  -3260081.29621
  23122093.076    -5816490.959 5  -4403738.85621
 91  4 23 21  0 59.9980000  0  6G18G11G19G 2G16G 6
  21731880.1704    5860828.15147   4554488.48862
  22551596.037    -5981669.553 6  -4568803.65721
  20604405.732    -1496281.375 7  -1147473.70223
  21366860.8184  -12296614.89047  -9452107.18562
  23324170.850    -4332346.689 5  -3267474.17721
  23114539.068    -5856185.259 5  -4434669.40221
 91  4 23 21  1 14.9980000  0  6G18G11G19G 2G16G 6
  21738575.5224    5896023.44946   4581913.27862
  22550872.357    -5985470.202 6  -4571765.18121
  20604534.131    -1495625.201 7  -1146962.41823
  21359765.1004  -12333906.41447  -9481165.44662
  23322391.678    -4341691.329 5  -3274755.78721
  23106988.170    -5895860.335 5  -4465584.95821
 91  4 23 21  1 29.9980000  0  6G18G11G19G 2G16G 6
  21745291.5294    5931308.62646   4609408.08862
  22550180.537    -5989107.823 6  -4574599.67821
  20604669.561    -1494907.096 7  -1146402.87623
  21352684.8894  -12371109.52747  -9510154.81662
  23320643.0454   -4350894.47445  -3281927.12761
  23099441.514    -5935517.630 5  -4496486.64121
 91  4 23 21  1 44.9980000  0  6G18G11G19G 2G16G 6
  21752021.701     5966672.270 6   4636964.07222
  22549518.9824   -5992593.48546  -4577315.76961
  20604816.365    -1494137.863 7  -1145803.49523
  21345620.1074  -12408235.28747  -9539083.92262
  23318914.373    -4359966.960 5  -3288996.68021
  23091894.1864   -5975168.18545  -4527383.12661
 91  4 23 21  1 59.9980000  0  6G18G11G19G 2G16G 6
  21758763.654     6002114.159 6   4664580.99222
  22548886.0144   -5995927.24646  -4579913.49061
  20604971.561    -1493317.515 7  -1145164.28123
  21338569.6784  -12445283.66747  -9567952.72562
  23317213.5924   -4368909.05945  -3295964.59261
  23084353.1314   -6014812.16645  -4558274.42861
 91  4 23 21  2 14.9980000  0  6G18G11G19G 2G16G 6
  21765523.857     6037632.194 6   4692257.25722
  22548276.623    -5999111.199 6  -4582394.48021
  20605138.131    -1492448.073 7  -1144486.81723
  21331534.8734  -12482256.82547  -9596762.91463
  23315538.3264   -4377723.02645  -3302832.69161
  23076807.7724   -6054451.59045  -4589162.19961
 91  4 23 21  2 29.9980000  0  6G18G11G19G 2G16G 6
  21772298.615     6073233.153 6   4719998.17022
  22547703.1704   -6002138.11946  -4584753.10761
  20605311.600    -1491522.252 7  -1143765.41723
  21324514.7874  -12519147.55147  -9625508.86762
  23313883.0294   -4386401.69245  -3309595.37961
  23069267.529    -6094079.371 5  -4620040.90521
 91  4 23 21  2 44.9980000  0  6G18G11G19G 2G16G 6
  21779087.389     6108911.915 6   4747799.66022
  22547155.607    -6005012.853 6  -4586993.14721
  20605501.022    -1490544.768 7  -1143003.75723
  21317508.9754  -12555960.49747  -9654194.21363
  23312259.3344   -4394949.70845  -3316256.20661
  23061728.232    -6133700.126 5  -4650914.14621
 91  4 23 21  2 59.9980000  0  6G18G11G19G 2G16G 6
  21785893.147     6144664.688 6   4775658.84422
  22546636.975    -6007739.089 6  -4589117.47121
  20605694.990    -1489519.244 7  -1142204.66223
  21310518.0144  -12592699.41647  -9682821.87663
  23310656.647    -4403371.340 5  -3322818.61521
  23054188.4124   -6173317.69045  -4681784.88461
 91  4 23 21  3 14.9980000  0  6G18G11G19G 2G16G 6
  21792710.490     6180496.205 6   4803579.39722
  22546145.2174   -6010311.98446  -4591122.31161
  20605901.717    -1488440.873 7  -1141364.39023
  21303540.1394  -12629359.44347  -9711388.06963
  23309077.2254   -4411661.78345  -3329278.77261
  23046651.9514   -6212927.26745  -4712649.39761
 91  4 23 21  3 29.9980000  0  6G18G11G19G 2G16G 6
  21799545.9754    6216410.08446   4831564.10962
  22545688.022    -6012727.522 6  -4593004.53221
  20606115.084    -1487305.519 7  -1140479.71223
  21296581.6074  -12665936.50347  -9739889.61362
  23307525.7954   -4419816.86845  -3335633.40661
  23039117.6234   -6252524.86045  -4743504.57261
 91  4 23 21  3 44.9980000  0  6G18G11G19G 2G16G 6
  21806393.2954    6252401.18646   4859608.99961
  22545257.748    -6014990.532 6  -4594767.90021
  20606341.053    -1486117.944 7  -1139554.34223
  21289634.4434  -12702435.48347  -9768330.31062
  23306000.311    -4427841.819 5  -3341886.69421
  23031584.381    -6292115.263 5  -4774354.17121
 91  4 23 21  3 59.9980000  0  6G18G11G19G 2G16G 6
  21813258.8814    6288473.00646   4887716.78962
  22544855.428    -6017097.596 6  -4596409.74821
  20606577.584    -1484874.477 7  -1138585.42023
  21282705.7724  -12738852.55947  -9796707.19763
  23304496.2564   -4435733.00645  -3348035.77561
  23024049.639    -6331695.050 5  -4805195.47821
 91  4 23 21  4 14.9980000  0  6G18G11G19G 2G16G 6
  21820136.9284    6324616.50046   4915880.43262
  22544482.225    -6019057.337 6  -4597936.80321
  20606825.303    -1483583.846 7  -1137579.74623
  21275788.3504  -12775196.50447  -9825027.08263
  23303020.2954   -4443499.08445  -3354087.33161
  23016519.342    -6371272.919 5  -4836035.27221
 91  4 23 21  4 29.9980000  0  6G18G11G19G 2G16G 6
  21827028.139     6360837.311 6   4944104.30022
  22544138.615    -6020863.846 6  -4599344.46321
  20607081.818    -1482239.856 6  -1136532.49823
  21268887.9044  -12811461.41747  -9853285.40363
  23301568.131    -4451134.525 5  -3360037.07221
  23008987.936    -6410842.849 5  -4866868.90221
 91  4 23 21  4 44.9980000  0  6G18G11G19G 2G16G 6
  21833937.373     6397134.503 6   4972387.70922
  22543823.975    -6022517.755 6  -4600633.20821
  20607345.803    -1480843.186 6  -1135444.19822
  21262002.7724  -12847647.94847  -9881482.63563
  23300137.397    -4458639.901 5  -3365885.48921
  23001459.3264   -6450405.48645  -4897696.86161
 91  4 23 21  4 59.9980000  0  6G18G11G19G 2G16G 6
  21840856.0224    6433504.18446   5000727.60562
  22543537.795    -6024022.967 6  -4601806.08421
  20607621.3264   -1479397.55646  -1134317.74563
  21255128.9434  -12883759.81047  -9909621.68763
  23298737.3894   -4466018.93045  -3371635.43461
  22993933.639    -6489964.718 5  -4928522.16121
 91  4 23 21  5 14.9980000  0  6G18G11G19G 2G16G 6
  21847793.225     6469950.792 6   5029127.41521
  22543280.982    -6025374.732 6  -4602859.40021
  20607906.084    -1477898.120 6  -1133149.36723
  21248273.8654  -12919792.24647  -9937698.86363
  23297355.873    -4473267.210 5  -3377283.53621
  22986405.8344   -6529515.71645  -4959341.01961
 91  4 23 21  5 29.9980000  0  6G18G11G19G 2G16G 6
  21854741.897     6506469.755 6   5057583.64421
  22543052.053    -6026577.676 6  -4603796.74521
  20608200.2724   -1476349.46347  -1131942.63263
  21241430.9284  -12955749.86347  -9965717.71863
  23295998.803    -4480389.307 5  -3382833.27121
  22978880.178    -6569063.162 5  -4990157.11521
 91  4 23 21  5 44.9980000  0  6G18G11G19G 2G16G 6
  21861704.647     6543060.118 6   5086095.49522
  22542851.295    -6027632.423 6  -4604618.60921
  20608506.5294   -1474752.13647  -1130697.97163
  21234602.4284  -12991633.01847  -9993678.56263
  23294670.373    -4487385.816 5  -3388285.16521
  22971356.607    -6608607.590 5  -5020970.88021
 91  4 23 21  5 59.9980000  0  6G18G11G19G 2G16G 6
  21868682.834     6579725.206 6   5114665.54622
  22542678.0224   -6028535.26246  -4605322.10961
  20608819.467    -1473102.181 6  -1129412.30823
  21227789.6394  -13027438.14647 -10021578.60163
  23293363.553    -4494253.284 5  -3393636.52621
  22963829.850    -6648145.240 5  -5051779.35921
 91  4 23 21  6 14.9980000  0  6G18G11G19G 2G16G 6
  21875672.7094    6616459.22846   5143289.34662
  22542533.787    -6029292.028 6  -4605911.78721
  20609141.897    -1471405.409 6  -1128090.16022
  21220989.4514  -13063170.91847 -10049422.26063
  23292079.4674   -4500997.40045  -3398891.75161
  22956308.6004   -6687681.96545  -5082587.10661
 91  4 23 21  6 29.9980000  0  6G18G11G19G 2G16G 6
  21882677.4514    6653267.97246   5171971.35162
  22542418.6624   -6029896.67846  -4606382.93061
  20609479.5924   -1469655.65346  -1126726.72963
  21214203.3424  -13098825.11647 -10077204.69263
  23290821.022    -4507612.379 5  -3404046.33321
  22948786.3504   -6727211.69445  -5113389.40361
 91  4 23 21  6 44.9980000  0  6G18G11G19G 2G16G 6
  21889696.178     6690148.977 6   5200709.66222
  22542336.397    -6030351.229 6  -4606737.10921
  20609817.6704   -1467854.83947  -1125323.50562
  21207434.1234  -13134402.89747 -10104927.58263
  23289586.131    -4514100.360 5  -3409102.00421
  22941264.482    -6766736.511 5  -5144187.88021
 91  4 23 21  6 59.9980000  0  6G18G11G19G 2G16G 6
  21896726.373     6727099.288 6   5229501.97721
  22542275.5224   -6030658.68046  -4606976.67961
  20610165.990    -1466005.960 7  -1123882.83223
  21200679.0924  -13169907.40047 -10132593.36663
  23288376.865    -4520464.527 5  -3414061.11721
  22933742.4824   -6806259.29145  -5174984.76161
 91  4 23 21  7 14.9980000  0  6G18G11G19G 2G16G 6
  21903772.4044    6764122.92846   5258351.43962
  22542243.6004   -6030814.73946
  20610532.990    -1464104.462 6  -1122401.16522
  21193936.631   -13205334.203 7 -10160198.60923
  23287188.7724   -4526700.49645  -3418920.36561
  22926224.951    -6845775.771 5  -5205776.74221
 91  4 23 21  7 29.9980000  0  5G18G11G19G 2G 6
  21910832.623     6801218.255 6   5287256.75522
  22542243.7174   -6030820.76946
  20610901.014    -1462151.495 7  -1120879.38723
  21187210.9984  -13240684.43247 -10187744.18263
  22918705.0144   -6885287.22945  -5236564.79961
 91  4 23 21  7 44.9980000  0  6G18G11G19G 2G16G 6
  21917904.662     6838381.712 6   5316215.14322
  22542271.107    -6030680.178 6
  20611283.303    -1460150.433 7  -1119320.13323
  21180497.1864  -13275961.41847 -10215232.68263
  23284887.5924         -0.40555
  22911183.2174   -6924797.09245  -5267351.61161
 91  4 23 21  7 59.9980000  0  6G18G11G19G 2G16G 6
  21924991.4904    6875617.66146   5345230.04962
  22542329.764    -6030388.299 6
  20611671.725    -1458096.369 7  -1117719.58323
  21173799.764   -13311160.402 7 -10242660.41123
  23283774.428       -5858.225 5
  22903670.264    -6964300.516 5  -5298133.42521
 91  4 23 21  8 14.9980000  0  6G18G11G19G 2G16G 6
  21932090.561     6912924.768 6   5374300.38522
  22542413.3184   -6029946.49046  -4606421.71361
  20612075.193    -1455990.590 6  -1116078.73023
  21167114.9284  -13346282.75947 -10270028.41363
  23282681.779      -11589.722 5
  22896154.5924   -7003798.93245  -5328911.29861
 91  4 23 21  8 29.9980000  0  6G18G11G19G 2G16G 6
  21939203.654     6950301.636 6   5403425.08322
  22542523.4204   -6029355.90246  -4605961.51361
  20612482.522    -1453834.129 6  -1114398.38923
  21160445.2564  -13381329.39447 -10297337.43563
  23281615.381      -17195.661 5        -0.15831
  22888639.100    -7043293.376 5  -5359686.09721
 91  4 23 21  8 44.9980000  0  6G18G11G19G 2G16G 6
  21946329.8504    6987754.57546   5432609.06461
  22542666.9124   -6028610.04646  -4605380.33061
  20612907.717    -1451620.483 6  -1112673.48523
  21153791.2404  -13416293.94147 -10324582.46863
  23280575.068      -22670.122 5     -4266.05021
  22881125.9674   -7082777.36745  -5390452.75861
 91  4 23 21  8 59.9980000  0  6G18G11G19G 2G16G 6
  21953471.647     7025275.399 6   5461845.92622
  22542837.8894   -6027716.72646  -4604684.23461
  20613334.686    -1449357.333 6  -1110910.01123
  21147152.514   -13451183.997 7 -10351769.47323
  23279555.8974     -28020.95045     -8435.55761
  22873612.561    -7122258.632 5  -5421217.27221
 91  4 23 21  9 14.9980000  0  6G18G11G19G 2G16G 6
  21960622.107     7062861.088 6   5491133.34421
  22543034.0684   -6026679.05946  -4603875.66161
  20613776.826    -1447047.682 6  -1109110.29923
  21140527.2874  -13486002.77347 -10378900.93063
  23278559.686      -33251.018 5    -12510.97721
  22866097.514    -7161740.196 5  -5451982.02721
 91  4 23 21  9 29.9980000  0  6G18G11G19G 2G16G 6
  21967788.623     7100516.479 6   5520475.07121
  22543257.9204   -6025491.60946  -4602950.37561
  20614224.8344   -1444686.19347  -1107270.19163
  21133915.647   -13520744.865 7 -10405972.63123
  23277588.8734     -38355.43345    -16488.51361
  22858586.0534   -7201216.81445  -5482742.92761
 91  4 23 21  9 44.9980000  0  6G18G11G19G 2G16G 6
  21974968.982     7138246.937 6   5549875.29621
  22543513.7794   -6024149.00746  -4601904.19761
  20614688.506    -1442266.995 6  -1105385.11623
  21127319.2324  -13555404.67947 -10432980.22063
  23276641.115      -43328.668 5    -20363.80021
  22851074.686    -7240682.843 5  -5513495.58321
 91  4 23 21  9 59.9980000  0  6G18G11G19G 2G16G 6
  21982161.8574    7176047.15246   5579329.85661
  22543799.0374   -6022656.46946  -4600741.18661
  20615155.654    -1439795.207 7  -1103459.06723
  21120739.272   -13589987.332 7 -10459927.69323
  23275718.357      -48175.885 5    -24140.88221
  22843565.1544   -7280143.66245  -5544244.17361
 91  4 23 21 10 14.9980000  0  6G18G11G19G 2G16G 6
  21989366.990     7213913.814 6   5608836.21121
  22544108.6864   -6021016.82546  -4599463.54661
  20615637.920    -1437273.601 6  -1101494.19823
  21114173.717   -13624495.559 7 -10486817.16723
  23274821.475      -52899.992 5    -27822.09521
  22836055.3504   -7319601.80545  -5574990.68361
 91  4 23 21 10 29.9980000  0  6G18G11G19G 2G16G 6
  21996586.037     7251851.383 6   5638397.82821
  22544450.6154   -6019225.71146  -4598067.87861
  20616124.264    -1434697.769 7  -1099487.07523
  21107620.0294  -13658924.90147 -10513645.16363
  23273945.318      -57496.948 5    -31404.19521
  22828550.647    -7359052.987 5  -5605731.75921
 91  4 23 21 10 44.9980000  0  6G18G11G19G 2G16G 6
  22003817.4674    7289853.04546   5668009.35661
  22544816.7174   -6017289.73946  -4596559.34061
  20616628.725    -1432073.961 6  -1097442.57123
  21101082.943   -13693281.951 7 -10540416.83823
  23273094.1314     -61972.96945    -34892.05361
  22821042.0454   -7398503.69445  -5636472.47561
 91  4 23 21 10 59.9980000  0  6G18G11G19G 2G16G 6
  22011063.0144    7327929.14146   5697678.91561
  22545218.3654   -6015198.33746  -4594929.67361
  20617133.811    -1429391.369 7  -1095352.25522
  21094560.686   -13727556.076 7 -10567123.89623
  23272265.811      -66317.774 5    -38277.68221
  22813534.7874   -7437943.31645  -5667204.54861
 91  4 23 21 11 14.9980000  0  6G18G11G19G 2G16G 6
  22018321.623     7366073.456 6   5727401.62221
  22545644.5924   -6012957.68046  -4593183.70961
  20617658.014    -1426656.089 6  -1093220.88422
  21088053.943   -13761753.228 7 -10593770.97423
  23271462.8504     -70537.81945    -41566.08461
  22806032.9284   -7477377.88145  -5697932.68461
 91  4 23 21 11 29.9980000  0  6G18G11G19G 2G16G 6
  22025595.2094    7404287.62846   5757178.74761
  22546098.5294   -6010566.00546  -4591320.06961
  20618189.545    -1423866.300 6  -1091047.03623
  21081561.240   -13795871.659 7 -10620356.70923
  23270687.4364     -74631.48145    -44756.01361
  22798529.514    -7516805.618 5  -5728655.49321
 91  4 23 21 11 44.9980000  0  6G18G11G19G 2G16G 6
  22032879.545     7442565.645 6   5787005.64321
  22546580.5844   -6008028.91846  -4589343.12161
  20618730.037    -1421027.672 6  -1088835.13523
  21075081.615   -13829917.019 7 -10646885.50523
  23269928.3974     -78604.07445    -47851.61461
  22791026.686    -7556232.160 5  -5759377.37621
 91  4 23 21 11 59.9980000  0  6G18G11G19G 2G16G 6
  22040173.7014    7480904.00046   5816879.53961
  22547092.4904   -6005349.88046  -4587255.56761
  20619275.037    -1418143.387 7  -1086587.66123
  21068617.4984  -13863892.63947 -10673359.95163
  23269195.4984     -82459.08745    -50855.56561
  22783521.9824   -7595660.76445  -5790100.87861
 91  4 23 21 12 14.9980000  0  6G18G11G19G 2G16G 6
  22047484.897     7519320.285 6   5846814.16321
  22547632.459    -6002510.849 6
  20619837.795    -1415195.371 6
  21062166.397   -13897780.294 7 -10699765.86923
  23268488.1154     -86178.93545    -53754.23861
  22776024.3654   -7635073.38345  -5820811.91761
 91  4 23 21 12 29.9980000  0  6G18G11G19G 2G16G 6
  22054807.5684    7557804.56046   5876801.75961
  22548201.850    -5999521.722 6
  20620407.420    -1412193.214 6
  21055734.5294  -13931589.93347 -10726110.98563
  23267805.5534     -89773.46545    -56555.24261
  22768523.1314   -7674479.91145  -5851518.20361
 91  4 23 21 12 44.9980000  0  6G18G11G19G 2G16G 6
  22062145.240     7596358.325 6   5906843.51421
  22548798.0684   -5996381.00346  -4580266.83061
  20620991.482    -1409135.238 6  -1079568.37422
  21049315.2484  -13965319.92347 -10752394.03363
  23267145.178      -93241.070 5    -59257.31221
  22761026.865    -7713878.618 5  -5882218.40621
 91  4 23 21 12 59.9980000  0  6G18G11G19G 2G16G 6
  22069493.139     7634975.615 6   5936934.77121
  22549424.3734   -5993094.42746  -4577705.88061
  20621581.482    -1406027.003 7  -1077146.38823
  21042910.8654  -13998975.84647 -10778619.37363
  23266507.7254     -96587.62745    -61865.12161
  22753531.1864   -7753275.16045  -5912916.91161
 91  4 23 21 13 14.9980000  0  6G18G11G19G 2G16G 6
  22076855.397     7673662.185 6   5967079.98621
  22550075.6394   -5989655.90246  -4575026.50961
  20622186.732    -1402862.152 6  -1074680.29123
  21036520.6934  -14032551.58847 -10804782.23263
  23265896.3264     -99806.95045    -64373.74561
  22746034.4594   -7792663.42045  -5943608.97661
 91  4 23 21 13 29.9980000  0  6G18G11G19G 2G16G 6
  22084230.7324    7712413.83446   5997275.94761
  22550758.4754   -5986069.60846  -4572231.99561
  20622796.857    -1399644.702 6  -1072173.21123
  21030146.2874  -14066051.10447 -10830885.69363
  23265309.6544    -102903.41345    -66786.62961
  22738540.897    -7832047.410 5  -5974297.71021
 91  4 23 21 13 44.9980000  0  6G18G11G19G 2G16G 6
  22091615.8894    7751229.62646   6027521.88061
  22551471.2564   -5982336.54746  -4569323.13061
  20623418.350    -1396375.572 6  -1069625.85422
  21023786.3894  -14099475.30747 -10856930.47163
  23264739.123     -105878.181 5    -69104.70421
  22731045.7174   -7871428.04045  -6004983.82361
 91  4 23 21 13 59.9980000  0  6G18G11G19G 2G16G 6
  22099015.686     7790104.301 6   6057813.66521
  22552207.5844   -5978461.43646  -4566303.56861
  20624049.154    -1393059.475 7  -1067041.90122
  21017439.2794  -14132828.97547 -10882920.28163
  23264196.615     -108736.185 5    -71331.79821
  22723551.084    -7910810.085 5  -6035671.05521
 91  4 23 21 14 14.9980000  0  5G18G11G19G 2G 6
  22106426.209     7829048.133 6   6088159.37221
  22552973.1544   -5974433.85046  -4563165.20061
  20624692.795    -1389685.743 6  -1064413.04223
  21011107.4674  -14166101.41947 -10908846.80563
  22716057.787    -7950183.045 5  -6066351.19421
 91  4 23 21 14 29.9980000  0  6G18G11G19G 2G16G 6
  22113847.9284    7868055.70346   6118554.74161
  22553768.9514   -5970259.16346  -4559912.20361
  20625344.912    -1386259.660 7  -1061743.38723
  21004790.4434  -14199297.95547 -10934714.17963
  23263178.8734         -0.57155
  22708567.1624   -7989552.09045  -6097028.28561
 91  4 23 21 14 44.9980000  0  6G18G11G19G 2G16G 6
  22121284.1784    7907130.76946   6149002.68461
  22554591.5224   -5965933.34246  -4556541.43961
  20626007.311    -1382776.886 6  -1059029.55122
  20998488.6314  -14232414.49747 -10960519.21863
  23262708.147       -2483.514 5
  22701077.9434   -8028913.10845  -6127699.11561
 91  4 23 21 14 59.9980000  0  6G18G11G19G 2G16G 6
  22128731.1704    7946267.15846   6179498.41961
  22555441.4284   -5961462.52146  -4553057.69261
  20626679.217    -1379243.354 7  -1056276.17422
  20992200.545   -14265457.090 7 -10986266.64123
  23262258.295       -4846.639 5        -0.32731
  22693586.498    -8068272.072 5  -6158368.35721
 91  4 23 21 15 14.9980000  0  6G18G11G19G 2G16G 6
  22136192.193     7985472.055 6   6210047.54621
  22556321.3114   -5956839.47446  -4549455.32261
  20627363.467    -1375651.675 6  -1053477.48322
  20985928.9284  -14298418.31447 -11011950.65663
  23261830.5534      -7083.00945     -1743.03361
  22686099.436    -8107621.697 5  -6189030.32321
 91  4 23 21 15 29.9980000  0  6G18G11G19G 2G16G 6
  22143663.772     8024738.587 6   6240644.70421
  22557229.8574   -5952070.70346  -4545739.40361
  20628057.201    -1372008.264 6  -1050638.48022
  20979669.115   -14331304.626 7 -11037576.29623
  23261432.272       -9199.000 5     -3391.91721
  22678613.3264   -8146968.37445  -6219689.97961
 91  4 23 21 15 44.9980000  0  6G18G11G19G 2G16G 6
  22151147.6314    8064064.51546   6271288.10761
  22558163.3894   -5947158.38446  -4541911.63061
  20628760.0454   -1368315.12647  -1047760.73762
  20973425.232   -14364118.233 7 -11063145.29023
  23261054.1624     -11196.90545     -4948.79861
  22671125.678    -8186314.169 5  -6250348.96621
 91  4 23 21 15 59.9980000  0  6G18G11G19G 2G16G 6
  22158644.264     8103450.186 6   6301978.08921
  22559126.0064   -5942102.00446  -4537971.60061
  20629471.389    -1364571.509 7  -1044843.65522
  20967194.397   -14396858.413 7 -11088657.06023
  23260690.826      -13076.312 5     -6413.33021
  22663637.4124   -8225658.51045  -6281006.81061
 91  4 23 21 16 14.9980000  0  6G18G11G19G 2G16G 6
  22166150.990     8142904.193 6   6332721.34621
  22560117.3654   -5936892.78246  -4533912.47961
  20630196.3974   -1360768.62847  -1041880.39962
  20960981.139   -14429516.254 7 -11114104.67523
  23260360.8114     -14828.69145     -7778.89861
  22656153.889    -8264992.561 5  -6311656.63021
 91  4 23 21 16 29.9980000  0  6G18G11G19G 2G16G 6
  22173669.5614    8182423.00546   6363515.04861
  22561136.4284   -5931534.32146  -4529737.07061
  20630929.7404   -1356909.68647  -1038873.46262
  20954780.857   -14462095.191 7 -11139490.81523
  23260049.709      -16457.514 5     -9048.18621
  22648668.701    -8304319.635 5  -6342301.03821
 91  4 23 21 16 44.9980000  0  6G18G11G19G 2G16G 6
  22181203.7954    8222004.40846   6394357.53461
  22562184.1234   -5926028.54546  -4525446.86561
  20631676.7014   -1352996.42747  -1035824.19763
  20948596.131   -14494597.085 7 -11164816.91723
  23259763.201      -17964.712 5    -10222.70421
  22641185.1704   -8343641.58145  -6372941.44161
 91  4 23 21 16 59.9980000  0  6G18G11G19G 2G16G 6
  22188745.8184    8261647.63546   6425248.24061
  22563260.029    -5920375.806 6  -4521042.14421
  20632431.7874   -1349029.20847  -1032732.88662
  20942425.381   -14527022.250 7 -11190083.23323
  23259496.9824     -19350.93645    -11302.96361
  22633705.8574   -8382958.74245  -6403578.11561
 91  4 23 21 17 14.9980000  0  6G18G11G19G 2G16G 6
  22196303.311     8301352.731 6   6456187.10721
  22564362.826    -5914576.030 6  -4516522.85321
  20633195.9124   -1345007.61147  -1029599.20763
  20936271.131   -14559370.622 7 -11215289.70823
  23259258.3184     -20616.05845    -12288.86161
  22626222.647    -8422270.934 5  -6434210.91121
 91  4 23 21 17 29.9980000  0  6G18G11G19G 2G16G 6
  22203870.193     8341117.295 6   6487172.29821
  22565496.787    -5908631.580 6  -4511890.83721
  20633971.3654   -1340933.71147  -1026424.77363
  20930127.662   -14591644.338 7 -11240438.01423
  23259037.053      -21762.259 5    -13182.08821
  22618744.7324   -8461580.31445  -6464841.52061
 91  4 23 21 17 44.9980000  0  6G18G11G19G 2G16G 6
  22211447.4824    8380940.30246   6518203.07561
  22566655.576    -5902543.349 6  -4507146.78021
  20634755.3344   -1336808.29347  -1023210.19063
  20924001.311   -14623844.191 7 -11265528.76223
  23258847.3424     -22790.55945    -13983.46461
  22611263.3424   -8500887.67345  -6495470.56361
 91  4 23 21 17 59.9980000  0  6G18G11G19G 2G16G 6
  22219039.459     8420833.680 6   6549288.67821
  22567841.318    -5896299.241 6  -4502281.25521
  20635552.7174   -1332619.20947  -1019946.00162
  20917890.100   -14655957.893 7 -11290552.37423
  23258673.654      -23689.330 5    -14683.84321
  22603784.8184   -8540180.82045  -6526088.53161
 91  4 23 21 18 14.9980000  0  6G18G11G19G 2G16G 6
  22226640.998     8460781.394 6   6580416.60821
  22569058.381    -5889914.983 6  -4497306.52421
  20636359.1074   -1328381.98947  -1016644.30262
  20911793.053   -14688001.135 7 -11315521.08623
  23258521.4514     -24474.12145    -15295.43561
  22596309.326    -8579475.406 5  -6556707.60721
 91  4 23 21 18 29.9980000  0  6G18G11G19G 2G16G 6
  22234254.482     8500786.282 6   6611589.07921
  22570299.154    -5883387.752 6  -4492220.39421
  20637176.8654   -1324093.52247  -1013302.67362
  20905709.443   -14719971.008 7 -11340432.62523
  23258399.1704     -25142.29045    -15816.15961
  22588831.5144   -8618768.46245  -6587325.50661
 91  4 23 21 18 44.9980000  0  6G18G11G19G 2G16G 6
  22241880.3654    8540857.38046   6642813.16761
  22571570.967    -5876708.425 6  -4487015.74121
  20638002.9284   -1319744.56547  -1009913.90962
  20899640.928   -14751858.272 7 -11365279.79623
  23258296.1394     -25684.58545    -16238.84261
  22581355.4364   -8658050.64945  -6617934.93561
 91  4 23 21 18 59.9980000  0  6G18G11G19G 2G16G 6
  22249517.178     8580987.264 6   6674083.04721
  22572867.967    -5869884.082 6  -4481698.08821
  20638843.8734   -1315341.97347  -1006483.35363
  20893588.092   -14783669.802 7 -11390067.95623
  23258213.9754     -26108.19245    -16568.97861
  22573880.256    -8697329.024 5  -6648541.39121
 91  4 23 21 19 14.9980000  0  6G18G11G19G 2G16G 6
  22257164.537     8621177.566 6   6705399.98921
  22574197.537    -5862912.823 6  -4476265.96521
  20639687.9044   -1310883.55747  -1003009.29263
  20887549.232   -14815403.705 7 -11414795.62723
  23258157.326      -26411.141 5    -16805.14721
  22566406.670    -8736601.481 5  -6679143.23421
 91  4 23 21 19 29.9980000  0  6G18G11G19G 2G16G 6
  22264823.240     8661425.171 6   6736761.62321
  22575548.865    -5855797.775 6  -4470721.79321
  20640543.7174   -1306372.52947   -999494.24062
  20881524.678   -14847063.019 7 -11439465.17023
  23258121.670      -26596.894 5
  22558934.4434   -8775871.14045  -6709742.90761
 91  4 23 21 19 44.9980000  0  6G18G11G19G 2G16G 6
  22272494.5684    8701735.26946   6768171.93861
  22576929.920    -5848533.692 6  -4465061.49221
  20641418.5454   -1301803.39147   -995933.90362
  20875514.865   -14878642.292 7 -11464072.34623
  23258109.3264     -26660.24745
  22551465.131    -8815132.591 5  -6740336.17321
 91  4 23 21 19 59.9980000  0  6G18G11G19G 2G16G 6
  22280176.2254    8742105.99246   6799629.45961
  22578343.2484   -5841122.16646  -4459286.30761
  20642296.0224   -1297177.36047   -992329.23762
  20869520.553   -14910143.117 7 -11488618.39623
  23258121.8734     -26602.81245
  22543993.4824   -8854387.23245  -6770924.13761
 91  4 23 21 20 14.9980000  0  6G18G11G19G 2G16G 6
  22287868.8424    8782532.42646   6831130.42361
  22579779.506    -5833568.379 6  -4453400.26321
  20643187.8504   -1292499.40547   -988684.10662
  20863539.514   -14941570.472 7 -11513107.19423
  23258153.0224     -26429.88245
  22536523.436    -8893640.053 5  -6801510.68421
 91  4 23 21 20 29.9980000  0  6G18G11G19G 2G16G 6
  22295571.6154    8823009.29246   6862670.69661
  22581244.6474   -5825876.96346  -4447406.97761
  20644083.2954   -1287774.03547   -985002.02762
  20857573.295   -14972928.891 7 -11537542.27523
  23258209.8424     -26146.13845
  22529054.3574   -8932895.69045  -6832099.42661
 91  4 23 21 20 44.9980000  0  6G18G11G19G 2G16G 6
  22303286.826     8863542.958 6   6894255.19821
  22582735.443    -5818041.542 6  -4441301.47621
  20644995.975    -1282994.658 7   -981277.86322
  20851619.795   -15004211.809 7 -11561918.52223
  23258284.5534     -25745.00745    -16286.62761
  22521584.732    -8972147.432 5  -6862685.14721
 91  4 23 21 20 59.9980000  0  6G18G11G19G 2G16G 6
  22311010.3114    8904138.39946   6925887.84661
  22584255.0374   -5810057.23346  -4435079.96661
  20645915.225    -1278156.105 7   -977507.59022
  20845681.131   -15035414.125 7 -11586231.97623
  23258379.412      -25221.585 5    -15878.83021
  22514118.764    -9011390.226 5  -6893263.86921
 91  4 23 21 21 14.9980000  0  6G18G11G19G 2G16G 6
  22318747.3814    8944791.52646   6957565.45861
  22585802.428    -5801927.992 6  -4428745.51121
  20646848.264    -1273262.038 7   -973694.05722
  20839758.529   -15066539.648 7 -11610485.57723
  23258505.662      -24579.997 5    -15378.97421
  22506649.7254   -9050627.88545  -6923838.60861
 91  4 23 21 21 29.9980000  0  6G18G11G19G 2G16G 6
  22326494.873     8985508.841 6   6989293.06821
  22587375.873    -5793647.002 6  -4422292.80921
  20647790.6544   -1268305.51747   -969831.85862
  20833851.740   -15097581.497 7 -11634673.98423
  23258651.9364     -23813.73645    -14781.98761
  22499187.482    -9089853.609 5  -6954404.03321
 91  4 23 21 21 44.9980000  0  6G18G11G19G 2G16G 6
  22334254.287     9026280.656 6   7021063.14421
  22588979.209    -5785223.847 6  -4415729.33421
  20648746.818    -1263295.918 7   -965928.30022
  20827958.428   -15128549.268 7 -11658804.66123
  23258818.201      -22932.174 5    -14095.13821
  22491721.5684   -9129076.65145  -6984967.38261
 91  4 23 21 21 59.9980000  0  6G18G11G19G 2G16G 6
  22342023.4754    9067110.74446   7052878.63461
  22590611.436    -5776654.630 6  -4409052.04021
  20649707.4904   -1258229.07547   -961980.13662
  20822080.811   -15159438.900 7 -11682874.45523
  23259007.7954     -21931.26545    -13315.27861
  22484258.8814   -9168293.05145  -7015525.55561
 91  4 23 21 22 14.9980000  0  6G18G11G19G 2G16G 6
  22349804.225     9107994.159 6   7084735.69021
  22592268.795    -5767944.014 6  -4402264.56321
  20650683.506    -1253109.533 7   -957990.90422
  20816216.647   -15190255.017 7 -11706886.96523
  23259223.4434     -20816.12745    -12446.43361
  22476797.2324   -9207507.45845  -7046082.16461
 91  4 23 21 22 29.9980000  0  6G18G11G19G 2G16G 6
  22357595.420     9148936.148 6   7116638.36621
  22593951.670    -5759086.950 6  -4395362.97721
  20651668.045    -1247932.035 7   -953956.50922
  20810367.607   -15220992.474 7 -11730838.17623
  23259455.1934     -19581.91345    -11484.81861
  22469336.3264   -9246714.57045  -7076633.09861
 91  4 23 21 22 44.9980000  0  6G18G11G19G 2G16G 6
  22365397.982     9189932.301 6   7148583.24321
  22595666.1314   -5750087.59246  -4388350.50461
  20652663.248    -1242700.427 7   -949879.95322
  20804532.365   -15251655.191 7 -11754731.15423
  23259713.232      -18232.923 5    -10433.70521
  22461876.357    -9285918.345 5  -7107181.42521
 91  4 23 21 22 59.9980000  0  6G18G11G19G 2G16G 6
  22373208.2724    9230986.70546   7180573.53661
  22597405.412    -5740941.596 6  -4381223.76521
  20653669.943    -1237410.224 7   -945757.73422
  20798712.2724  -15282238.63347 -11778562.34763
  23259990.4594     -16764.63945     -9289.70961
  22454415.6864   -9325114.28346  -7137723.64761
 91  4 23 21 23 14.9980000  0  6G18G11G19G 2G16G 6
  22381031.889     9272093.861 6   7212604.92021
  22599174.2794   -5731654.59646  -4373987.15061
  20654688.857    -1232066.840 7   -941594.07322
  20792905.623   -15312748.078 7 -11802335.89123
  23260294.920      -15182.283 5     -8056.80321
  22446958.6004   -9364307.76346  -7168263.95861
 91  4 23 21 23 29.9980000  0  6G18G11G19G 2G16G 6
  22388863.834     9313257.538 6   7244680.33621
  22600966.9284   -5722222.51746  -4366637.48961
  20655714.115    -1226665.802 7   -937385.48822
  20787115.584   -15343179.479 7 -11826048.62023
  23260615.0454     -13482.18445     -6732.11961
  22439502.357    -9403494.565 6  -7198799.05521
 91  4 23 21 23 44.9980000  0  6G18G11G19G 2G16G 6
  22396710.631     9354484.679 6   7276805.21421
  22602791.1934   -5712638.55546  -4359169.47661
  20656755.928    -1221200.336 7   -933126.69622
  20781340.600   -15373525.922 7 -11849695.14624
  23260965.1934     -11657.74745     -5310.56361
  22432046.3034   -9442667.68046  -7229323.48861
 91  4 23 21 23 59.9980000  0  6G18G11G19G 2G16G 6
  22404565.264     9395762.506 6   7308969.58521
  22604643.5844   -5702915.00546  -4351592.69161
  20657805.303    -1215682.558 7   -928827.14422
  20775579.732   -15403799.773 7 -11873285.10923
  23261333.5374      -9721.26145     -3801.75461
  22424593.0924   -9481839.33446  -7259846.79261
 91  4 23 21 24 14.9980000  0  6G18G11G19G 2G16G 6
  22412431.193     9437104.394 6   7341183.88221
  22606521.693    -5693038.403 6  -4343896.65021
  20658869.576    -1210098.573 7   -924475.99922
  20769834.162   -15433987.223 7 -11896807.74723
  23261725.928       -7659.115 5     -2194.94821
  22417142.936    -9520995.820 6  -7290358.26821
 91  4 23 21 24 29.9980000  0  6G18G11G19G 2G16G 6
  22420310.0144    9478504.97046   7373443.89361
  22608427.7954   -5683014.25546  -4336085.63361
  20659941.022    -1204453.673 7   -920077.39122
  20764106.232   -15464093.639 7 -11920267.24523
  23262140.6394      -5477.21045      -494.86961
  22409693.420    -9560142.552 6  -7320862.14721
 91  4 23 21 24 44.9980000  0  6G18G11G19G 2G16G 6
  22428199.475     9519956.050 6   7405743.26921
  22610362.1864   -5672850.66146  -4328165.95961
  20661027.4594   -1198755.79147   -915637.49662
  20758391.436   -15494126.927 7 -11943669.75423
  23262573.8114      -3183.51445      1292.33961
  22402245.092    -9599287.382 6  -7351364.53821
 91  4 23 21 24 59.9980000  0  6G18G11G19G 2G16G 6
  22436096.678     9561462.396 6   7438085.72321
  22612323.9674   -5662542.57846  -4320133.69261
  20662120.967    -1192999.680 7   -911152.23222
  20752690.537   -15524082.059 7 -11967011.37423
  23263037.8734       -772.80545      3170.72961
  22394796.2794   -9638425.04246  -7381861.34361
 91  4 23 21 25 14.9980000  0  6G18G11G19G 2G16G 6
  22444004.8894    9603027.47046   7470473.90961
  22614313.1314   -5652086.33546  -4311985.97761
  20663230.162    -1187181.547 7   -906618.64122
  20747005.475   -15553955.208 7 -11990289.10323
  23263517.537        1758.393 5      5142.97221
  22387349.779    -9677551.802 6  -7412349.65421
 91  4 23 21 25 29.9980000  0  6G18G11G19G 2G16G 6
  22451925.803     9644645.407 6   7502903.29021
  22616330.5684   -5641487.91246  -4303727.47661
  20664346.631    -1181306.815 7   -902040.94822
  20741334.826   -15583752.181 7 -12013507.47623
  23264021.1544       4404.01545      7204.39761
  22379904.178    -9716673.288 6  -7442833.84921
 91  4 23 21 25 44.9980000  0  6G18G11G19G 2G16G 6
  22459857.217     9686319.937 6   7535376.79921
  22618375.5144   -5630743.30446  -4295355.06061
  20665476.498    -1175371.412 7   -897415.98222
  20735680.889   -15613468.759 7 -12036663.20423
  23264550.1474       7167.84245      9357.97961
  22372463.014    -9755785.297 6  -7473310.65621
 91  4 23 21 25 59.9980000  0  6G18G11G19G 2G16G 6
  22467797.9674    9728049.34546   7567893.03761
  22620448.8974   -5619854.50746  -4286870.29361
  20666614.506    -1169376.988 7   -892745.02022
  20730040.100   -15643106.789 7 -12059757.71623
  23265092.451       10047.973 5     11602.11221
  22365022.920    -9794889.681 6  -7503781.52521
 91  4 23 21 26 14.9980000  0  6G18G11G19G 2G16G 6
  22475751.5684    9769841.47646   7600458.14761
  22622549.6934   -5608813.43546  -4278266.86561
  20667770.912    -1163315.324 7   -888021.66322
  20724417.647   -15672658.160 7 -12082784.71324
  23265663.982       13052.788 5     13943.44421
  22357583.904    -9833978.234 6  -7534240.05621
 91  4 23 21 26 29.9980000  0  6G18G11G19G 2G16G 6
  22483714.256     9811686.640 6   7633064.61021
  22624676.0684   -5597629.36846  -4269552.01861
  20668934.311    -1157195.484 7   -883252.97522
  20718808.459   -15702131.913 7 -12105751.22123
  23266262.2174      16172.43045     16374.26761
  22350144.350    -9873060.035 6  -7564693.32321
 91  4 23 21 26 44.9980000  0  6G18G11G19G 2G16G 6
  22491687.373     9853589.124 6   7665715.72621
  22626833.7174   -5586298.14746  -4260722.50361
  20670111.389    -1151012.879 7   -878435.38222
  20713214.732   -15731523.682 7 -12128653.85123
  23266877.154       19411.206 5     18897.87821
  22342710.842    -9912130.651 6  -7595137.87921
 91  4 23 21 26 59.9980000  0  6G18G11G19G 2G16G 6
  22499672.3974    9895544.27946   7698407.87661
  22629016.8504   -5574824.19746  -4251781.77261
  20671298.787    -1144771.646 7   -873572.09922
  20707637.498   -15760837.921 7 -12151496.06323
  23267515.1234      22764.82245     21510.99661
  22335276.7644   -9951194.31546  -7625577.01061
 91  4 23 21 27 14.9980000  0  6G18G11G19G 2G16G 6
  22507664.5064    9937550.36946   7731139.71661
  22631226.7954   -5563209.16946  -4242731.11261
  20672498.397    -1138473.433 7   -868664.42022
  20702072.404   -15790076.107 7 -12174279.01623
  23268177.2564      26231.43045     24212.16461
  22327844.9364   -9990252.62646  -7656011.96761
 91  4 23 21 27 29.9980000  0  6G18G11G19G 2G16G 6
  22515670.201     9979612.309 6   7763915.08221
  22633466.2254   -5551447.98046  -4233566.55761
  20673706.029    -1132112.930 7   -863708.20522
  20696524.287   -15819232.943 7 -12196998.58723
  23268856.904       29815.802 5     27005.08121
  22320413.2174  -10029300.19846  -7686438.55761
 91  4 23 21 27 44.9980000  0  6G18G11G19G 2G16G 6
  22523685.5144   10021732.68746   7796735.97761
  22635732.506    -5539538.172 6  -4224286.20421
  20674932.170    -1125687.329 7   -858701.26422
  20690991.537   -15848305.635 7 -12219652.58323
  23269561.2174      33520.50245     29891.75061
  22312985.967   -10068334.365 6  -7716854.71521
 91  4 23 21 27 59.9980000  0  6G18G11G19G 2G16G 6
  22531711.1864   10063908.21146   7829599.84561
  22638025.764    -5527482.542 6  -4214892.21921
  20676166.162    -1119199.271 7   -853645.65322
  20685475.240   -15877297.045 7 -12242243.25023
  23270293.897       37342.641 5     32869.94921
  22305561.443   -10107357.876 6  -7747262.57021
 91  4 23 21 28 14.9980000  0  6G18G11G19G 2G16G 6
  22539746.6004   10106144.53546   7862511.09061
  22640350.6544   -5515275.61646  -4205380.34461
  20677414.482    -1112642.976 7   -848536.87622
  20679974.756   -15906201.741 7 -12264766.34023
  23271040.225       41287.614 5     35943.83321
  22298135.725   -10146364.958 6  -7777657.62121
 91  4 23 21 28 29.9980000  0  6G18G11G19G 2G16G 6
  22547794.584    10148426.713 6   7895458.06621
  22642699.772    -5502932.255 6  -4195762.15921
  20678669.639    -1106033.099 7   -843386.35022
  20674488.475   -15935034.206 7 -12287233.16123
  23271806.2174      45340.78745     39102.06561
  22290715.5064  -10185370.19546  -7808051.22461
 91  4 23 21 28 44.9980000  0  6G18G11G19G 2G16G 6
  22555849.3574   10190751.18146   7928437.99361
  22645072.4514   -5490455.87346  -4186040.31361
  20679939.6394   -1099372.85946   -838196.58162
  20669014.553   -15963797.853 7 -12309646.34223
  23272604.779       49498.372 5     42341.68021
  22283291.412   -10224376.911 6  -7838445.98921
 91  4 23 21 28 59.9980000  0  6G18G11G19G 2G16G 6
  22563913.2324   10233130.31346   7961460.50961
  22647473.4364   -5477834.00846  -4176205.10861
  20681217.959    -1092649.510 7   -832957.63322
  20663556.6154  -15992479.93347 -12331995.96863
  23273419.4594      53773.27245     45672.62861
  22275870.4594  -10263372.48546  -7868832.06061
 91  4 23 21 29 14.9980000  0  6G18G11G19G 2G16G 6
  22571987.8974   10275556.16446   7994519.44761
  22649902.811    -5465074.345 6  -4166262.52321
  20682508.732    -1085870.411 6   -827675.24422
  20658113.100   -16021088.135 7 -12354288.03423
  23274248.287       58157.313 5     49088.70521
  22268452.2874  -10302364.21146  -7899215.14161
 91  4 23 21 29 29.9980000  0  6G18G11G19G 2G16G 6
  22580069.764    10318031.735 6   8027617.12421
  22652356.4904   -5452173.72946  -4156210.10461
  20683811.092    -1079032.138 6   -822346.74522
  20652682.834   -16049619.103 7 -12376519.90623
  23275108.420       62653.642 5     52592.25721
  22261033.2954  -10341348.81546  -7929592.66161
 91  4 23 21 29 44.9980000  0  6G18G11G19G 2G16G 6
  22588163.201    10360560.684 6   8060756.37621
  22654840.6394   -5439128.68746  -4146045.14861
  20685122.506    -1072131.069 6   -816969.31522
  20647269.850   -16078069.004 7 -12398688.61523
  23275983.178       67265.873 5     56186.10621
  22253614.514   -10380322.463 6  -7959961.65921
 91  4 23 21 29 59.9980000  0  6G18G11G19G 2G16G 6
  22596267.3184   10403143.07346   8093937.27361
  22657349.709    -5425939.056 6  -4135767.52921
  20686449.717    -1065166.687 6   -811542.54722
  20641871.006   -16106437.490 7 -12420793.88223
  23276882.865       71993.985 5     59870.22121
  22246201.022   -10419284.865 6  -7990321.88921
 91  4 23 21 30 14.9980000  0  6G18G11G19G 2G16G 6
  22604378.928    10445770.652 6   8127153.40521
  22659885.061    -5412613.028 6  -4125383.61821
  20687784.404    -1058146.790 6   -806072.52422
  20636487.443   -16134732.653 7 -12442842.01723
  23277806.647       76829.845 5     63638.35921
  22238786.928   -10458243.914 6  -8020679.50821
 91  4 23 21 30 29.9980000  0  6G18G11G19G 2G16G 6
  22612499.647    10488444.408 6   8160405.50621
  22662446.2094   -5399149.20346  -4114892.34561
  20689130.748    -1051069.860 6   -800558.05522
  20631116.381   -16162953.091 7 -12464831.92123
  23278745.3734      81774.95545     67491.57761
  22231375.443   -10497198.111 6  -8051033.34621
 91  4 23 21 30 44.9980000  0  6G18G11G19G 2G16G 6
  22620629.842    10531167.597 6   8193696.12321
  22665036.748    -5385544.767 6  -4104291.50021
  20690489.498    -1043932.724 6   -794996.67722
  20625761.2954  -16191095.48247 -12486761.02163
  23279709.701       86831.713 5     71431.81421
  22223963.701   -10536144.240 6  -8081380.90421
 91  4 23 21 30 59.9980000  0  6G18G11G19G 2G16G 6
  22628767.803    10573938.746 6   8227024.11521
  22667651.529    -5371801.008 6  -4093582.09821
  20691857.7484   -1036736.33746   -789389.13062
  20620421.842   -16219161.235 7 -12508630.39823
  23280690.818       91998.853 5     75458.05121
  22216554.287   -10575083.456 6  -8111723.07021
 91  4 23 21 31 14.9980000  0  6G18G11G19G 2G16G 6
  22636915.7874   10616760.32746   8260391.40861
  22670294.803    -5357915.088 6  -4082761.91621
  20693239.2564   -1029477.83646   -783733.18562
  20615094.1074  -16247147.45847 -12530437.80563
  23281695.514       97279.132 5     79572.47621
  22209144.654   -10614012.802 6  -8142057.55321
 91  4 23 21 31 29.9980000  0  6G18G11G19G 2G16G 6
  22645075.3504   10659626.24846   8293793.23861
  22672962.8734   -5343893.05746  -4071835.67261
  20694634.1154   -1022162.99646   -778033.34162
  20609783.912   -16275059.844 7 -12552187.67023
  23282720.397      102666.661 5     83770.45921
  22201737.529   -10652937.996 6  -8172388.80221
 91  4 23 21 31 44.9980000  0  6G18G11G19G 2G16G 6
  22653239.272    10702539.212 6   8327231.74421
  22675657.3974   -5329732.35246  -4060801.37261
  20696034.7954   -1014788.70646   -772287.17062
  20604485.467   -16302895.588 7 -12573877.81623
  23283771.092      108164.009 5     88054.02321
  22194331.295   -10691856.234 6  -8202714.62021
 91  4 23 21 31 59.9980000  0  6G18G11G19G 2G16G 6
  22661416.162    10745500.722 6   8360708.04821
  22678378.8974   -5315431.09446  -4049657.54561
  20697446.9044   -1007352.97547   -766493.12662
  20599204.865   -16330652.736 7 -12595506.72423
  23284836.2874     113772.91745     92424.48561
  22186928.631   -10730765.291 6  -8233033.29421
 91  4 23 21 32 14.9980000  0  6G18G11G19G 2G16G 6
  22669600.092    10788507.217 6   8394219.43021
  22681126.256    -5300992.849 6  -4038406.97721
  20698874.8034    -999859.12646   -760653.79462
  20593936.529   -16358334.832 7 -12617077.14023
  23285922.7254     119489.73345     96879.04661
  22179525.639   -10769668.691 6  -8263347.55021
 91  4 23 21 32 29.9980000  0  6G18G11G19G 2G16G 6
  22677793.170    10831563.261 6   8427769.43021
  22683899.9754   -5286413.26246  -4027046.26461
  20700313.8574    -992302.60746   -754765.63262
  20588684.0614  -16385937.24147 -12638585.47363
  23287031.6784     125318.83945    101421.10061
  22172123.7794  -10808561.74846  -8293653.76361
 91  4 23 21 32 44.9980000  0  6G18G11G19G 2G16G 6
  22685995.9364   10874665.04245   8461355.05261
  22686701.772    -5271695.755 6  -4015578.09521
  20701763.1074    -984686.37946   -748830.94062
  20583444.6154  -16413463.17647 -12660034.21563
  23288162.6704     131256.98845    106048.12161
  22164722.2564  -10847447.63646  -8323954.38661
 91  4 23 21 32 59.9980000  0  6G18G11G19G 2G16G 6
  22694205.514    10917813.659 5   8494977.15421
  22689527.8114   -5256839.34746  -4004001.68461
  20703222.5844    -977009.28747   -742848.81762
  20578222.7794  -16440911.52647 -12681422.49663
  23289313.287      137304.727 5    110760.53721
  22157324.857   -10886325.097 6  -8354248.43621
 91  4 23 21 33 14.9980000  0  6G18G11G19G 2G16G 6
  22702427.865    10961007.728 6   8528634.70421
  22692380.607    -5241845.220 6  -3992317.96321
  20704697.0684    -969272.18246   -736819.93762
  20573014.2724  -16468283.07547 -12702750.94163
  23290486.029      143460.969 5    115557.52921
  22149928.7564  -10925195.05446  -8384536.64861
 91  4 23 21 33 29.9980000  0  6G18G11G19G 2G16G 6
  22710656.3894   11004253.97845   8562332.89861
  22695262.5224   -5226706.52246  -3980521.58761
  20706179.522     -961468.087 6   -730738.85122
  20567821.170   -16495570.967 7 -12724014.19023
  23291677.545      149732.444 5    120444.28321
  22142535.131   -10964050.471 6  -8414813.51721
 91  4 23 21 33 44.9980000  0  6G18G11G19G 2G16G 6
  22718893.990    11047547.991 6   8596068.29021
  22698170.436    -5211427.510 6  -3968615.87921
  20707678.5224    -953600.92246   -724608.62562
  20562643.787   -16522779.491 7 -12745215.59623
  23292891.4904     156114.67445    125417.33261
  22135143.506   -11002895.343 6  -8445082.17721
 91  4 23 21 33 59.9970000  0  6G18G11G19G 2G16G 6
  22727139.6424   11090883.17845   8629835.78661
  22701104.3144   -5196013.11446  -3956604.67361
  20709184.9784    -945674.70647   -718432.37862
  20557479.790   -16549910.364 7 -12766356.48923
  23294126.110      162603.551 5    130473.51121
  22127751.5714  -11041730.72646  -8475343.44561
 91  4 23 21 34 14.9970000  0  6G18G11G19G 2G16G 6
  22735395.9074   11134265.63945   8663640.12661
  22704061.767    -5180461.060 6  -3944486.20421
  20710706.345     -937688.043 6   -712209.03122
  20552332.8214  -16576966.93847 -12787439.49463
  23295381.3294     169200.16745    135613.61261
  22120363.4704  -11080561.34746  -8505601.00661
 91  4 23 21 34 29.9970000  0  6G18G11G19G 2G16G 6
  22743657.1344   11177684.49945   8697472.81161
  22707046.5874   -5164780.24946  -3932267.39761
  20712233.751     -929648.933 7   -705944.81122
  20547195.681   -16603955.051 7 -12808469.15123
  23296656.189      175896.348 5    140831.33521
  22112974.6344  -11119392.24046  -8535858.77761
 91  4 23 21 34 44.9970000  0  6G18G11G19G 2G16G 6
  22751931.9934   11221153.70946   8731344.72861
  22710057.610    -5148956.411 6  -3919937.15321
  20713778.345     -921542.806 6   -699628.37922
  20542076.0244  -16630860.10947 -12829434.09463
  23297953.860      182705.685 5    146137.20421
  22105588.0404  -11158208.84146  -8566105.41461
 91  4 23 21 34 59.9970000  0  6G18G11G19G 2G16G 6
  22760211.1964   11264668.36546   8765252.06761
  22713095.360    -5132994.412 6  -3907499.24821
  20715331.2354    -913374.31547   -693263.34262
  20536970.970   -16657686.774 7 -12850337.94623
  23299271.7674     189623.86245    151527.86961
  22098204.0484  -11197015.78346  -8596344.51661
 91  4 23 21 35 14.9970000  0  6G18G11G19G 2G16G 6
  22768500.446    11308230.706 5   8799196.56521
  22716159.431    -5116891.704 6  -3894951.69521
  20716900.243     -905140.551 6   -686847.44722
  20531881.4394  -16684432.42447 -12871178.67263
  23300606.431      196652.854 5    157004.91021
  22090821.2124  -11235810.30546  -8626573.95061
 91  4 23 21 35 29.9970000  0  6G18G11G19G 2G16G 6
  22776798.704    11351830.346 6   8833170.10021
  22719248.024    -5100658.761 6  -3882302.67021
  20718476.2674    -896851.71347   -680388.64762
  20526805.5244  -16711107.48347 -12891964.39364
  23301965.399      203782.597 5    162560.46821
  22083437.8374  -11274602.46546  -8656801.54161
 91  4 23 21 35 44.9970000  0  6G18G11G19G 2G16G 6
  22785101.735    11395475.709 5   8867179.27621
  22722363.337    -5084287.234 6  -3869545.64921
  20720067.267     -888499.223 6   -673880.22723
  20521744.392   -16737703.353 7 -12912688.40623
  23303344.3374     211021.62545    168201.13461
  22076058.3924  -11313383.76846  -8687020.67461
 91  4 23 21 35 59.9970000  0  6G18G11G19G 2G16G 6
  22793418.564    11439170.189 5   8901226.72921
  22725504.415    -5067773.735 6  -3856678.00921
  20721667.5874    -880079.37947   -667319.33563
  20516699.6034  -16764216.42947 -12933347.90664
  23304738.399      218372.811 5    173929.23021
  22068680.165   -11352150.591 6  -8717228.51121
 91  4 23 21 36 14.9970000  0  6G18G11G19G 2G16G 6
  22801741.939    11482905.388 5   8935305.91921
  22728675.282    -5051126.403 6  -3843706.07621
  20723283.6344    -871600.04746   -660712.09163
  20511667.9074  -16790654.64247 -12953949.07264
  23306161.1964     225828.11945    179738.46461
  22061305.0404  -11390910.65646  -8747431.09661
 91  4 23 21 36 29.9970000  0  6G18G11G19G 2G16G 6
  22810071.173    11526682.731 5   8969417.94721
  22731868.399    -5034343.952 6  -3830628.85321
  20724907.8994    -863059.53146   -654057.17663
  20506651.1654  -16817016.47247 -12974490.71863
  23307601.4394     233388.86045    185629.85561
  22053931.6894  -11429662.44946  -8777627.22961
 91  4 23 21 36 44.9970000  0  6G18G11G19G 2G16G 6
  22818410.196    11570498.678 5   9003560.04621
  22735086.181    -5017429.781 6  -3817449.00621
  20726545.446     -854461.103 6   -647357.12323
  20501648.314   -16843305.077 7 -12994975.30623
  23309057.1964     241051.23745    191600.40761
  22046557.4704  -11468409.16246  -8807819.40661
 91  4 23 21 36 59.9970000  0  6G18G11G19G 2G16G 6
  22826757.384    11614360.732 5   9037738.06221
  22738331.696    -5000376.250 6  -3804160.55621
  20728191.743     -845796.724 7   -640605.68223
  20496660.548   -16869512.795 7 -13015396.85923
  23310537.524      248823.333 5    197656.50621
  22039186.7904  -11507142.80446  -8838001.39561
 91  4 23 21 37 14.9970000  0  6G18G11G19G 2G16G 6
  22835112.8144   11658268.90245   9071952.03061
  22741601.806    -4983183.291 6  -3790763.46721
  20729855.423     -837066.202 6   -633802.70323
  20491690.0564  -16895639.41947 -13035755.23363
  23312036.946      256704.926 5    203797.90121
  22031818.7354  -11545863.10646  -8868172.98261
 91  4 23 21 37 29.9970000  0  6G18G11G19G 2G16G 6
  22843475.407    11702215.468 5   9106195.90821
  22744899.321    -4965858.723 6  -3777263.82421
  20731525.0564    -828277.09146   -626954.07063
  20486732.3294  -16921692.71847 -13056056.46764
  23313552.2674     264687.73145    210018.15561
  22024451.5874  -11584577.70646  -8898340.14061
 91  4 23 21 37 44.9970000  0  6G18G11G19G 2G16G 6
  22851846.946    11746203.487 5   9140472.09021
  22748221.032    -4948399.467 6  -3763659.22621
  20733210.196     -819425.870 6   -620057.03823
  20481788.5014  -16947669.12347 -13076297.78263
  23315095.603      272775.624 5    216320.30321
  22017085.6184  -11623283.08746  -8928500.09961
 91  4 23 21 37 59.9970000  0  6G18G11G19G 2G16G 6
  22860227.118    11790237.647 5   9174784.22621
  22751570.017    -4930800.756 6  -3749945.97021
  20734907.0954    -810507.42746   -613107.62863
  20476861.0324  -16973563.60947 -13096475.26964
  23316653.735      280973.173 5    222707.89221
  22009724.181   -11661974.190 6  -8958648.94221
 91  4 23 21 38 14.9970000  0  6G18G11G19G 2G16G 6
  22868612.9854   11834308.86445   9209125.22461
  22754943.212    -4913071.351 6  -3736130.86721
  20736617.470     -801530.225 6   -606112.44223
  20471947.5014  -16999384.90747 -13116595.71964
  23318232.0324     289271.45345    229173.99861
  22002360.8684  -11700659.46146  -8988793.24461
 91  4 23 21 38 29.9970000  0  6G18G11G19G 2G16G 6
  22877005.298    11878416.514 5   9243494.62921
  22758342.431    -4895212.084 6  -3722214.58021
  20738332.9544    -792494.90646   -599071.94963
  20467047.8064  -17025133.62947 -13136659.62363
  23319831.204      297669.439 5    235717.77421
  21995001.7904  -11739339.51846  -9018933.48061
 91  4 23 21 38 44.9970000  0  6G18G11G19G 2G16G 6
  22885405.9074   11922560.34445   9277892.21161
  22761766.306    -4877223.014 6  -3708197.14021
  20740068.6494    -783401.07746   -591985.88163
  20462162.220   -17050809.889 7 -13156667.05823
  23321448.3374     306167.05145    242339.15561
  21987641.2824  -11778014.23446  -9049069.55361
 91  4 23 21 38 59.9970000  0  6G18G11G19G 2G16G 6
  22893814.5484   11966742.90745   9312319.98261
  22765214.368    -4859101.565 6  -3694076.55421
  20741807.3994    -774246.01446   -584852.09763
  20457289.7744  -17076410.77147 -13176615.76064
  23323086.423      314767.052 5    249040.33821
  21980283.6104  -11816680.73546  -9079199.22661
 91  4 23 21 39 14.9970000  0  6G18G11G19G 2G16G 6
  22902230.9464   12010962.62546   9346776.71161
  22768689.235    -4840849.121 6  -3679853.89321
  20743562.1574    -765030.81346   -577671.45063
  20452431.946   -17101937.289 7 -13196506.51124
  23324742.1424     323467.93545    255820.15661
  21972926.1894  -11855339.99246  -9109323.26261
 91  4 23 21 39 29.9970000  0  6G18G11G19G 2G16G 6
  22910650.7674   12055221.65045   9381264.05861
  22772186.181    -4822463.693 6  -3665527.61021
  20745328.7514    -755753.06746   -570442.06563
  20447589.2674  -17127387.37847 -13216337.70963
  23326418.946      332271.577 5    262680.00421
  21965573.8374  -11893989.77046  -9139439.91061
 91  4 23 21 39 44.9970000  0  6G18G11G19G 2G16G 6
  22919082.954    12099518.768 5   9415781.07521
  22775710.610    -4803946.448 6  -3651098.60621
  20747105.6034    -746413.79946   -563164.74263
  20442760.8604  -17152762.06947 -13236110.15864
  23328110.2354     341176.68845    269618.94461
  21958220.1264  -11932630.95546  -9169549.85761
 91  4 23 21 39 59.9970000  0  6G18G11G19G 2G16G 6
  22927518.6574   12143850.71845   9450325.23661
  22779259.767    -4785300.798 6  -3636569.55121
  20748892.431     -737016.006 6   -555841.81523
  20437945.4704  -17178064.48947 -13255826.29164
  23329827.290      350179.813 5    276634.29521
  21950868.1494  -11971266.71846  -9199655.57761
 91  4 23 21 40 14.9970000  0  6G18G11G19G 2G16G 6
  22935959.5174   12188214.83845   9484894.49161
  22782831.399    -4766528.915 6  -3621942.12821
  20750692.8604    -727561.50146   -548474.69463
  20433144.0244  -17203296.68647 -13275487.70864
  23331556.3534     359278.68645    283724.23061
  21943515.1424  -12009898.82346  -9229758.45361
 91  4 23 21 40 29.9970000  0  6G18G11G19G 2G16G 6
  22944409.212    12232619.415 5   9519495.26221
  22786428.759    -4747622.560 6  -3607209.91721
  20752505.6104    -718041.74246   -541056.72863
  20428356.9544  -17228450.35747 -13295087.93164
  23333306.220      368481.860 5    290895.47921
  21936165.9074  -12048518.88546  -9259851.94261
 91  4 23 21 40 44.9970000  0  6G18G11G19G 2G16G 6
  22952866.228    12277057.831 5   9554122.38921
  22790050.407    -4728588.664 6  -3592378.32521
  20754327.4464    -708463.41946   -533593.12963
  20423585.1424  -17253531.98447 -13314632.01963
  23335076.954      377782.119 4    298142.31721
  21928817.7744  -12087133.43146  -9289941.13861
 91  4 23 21 40 59.9970000  0  6G18G11G19G 2G16G 6
  22961327.7284   12321528.23745   9588774.42161
  22793697.3924   -4709428.74846  -3577448.53161
  20756159.4784    -698827.96946   -526085.00863
  20418824.806   -17278543.071 7 -13334121.13423
  23336865.3764     387177.73144    305463.44561
  21921470.392   -12125743.654 6  -9320026.95221
 91  4 23 21 41 14.9970000  0  6G18G11G19G 2G16G 6
  22969796.876    12366029.387 5   9623450.43121
  22797367.149    -4690143.976 6  -3562421.45521
  20758004.5644    -689135.85246   -518532.74663
  20414078.4464  -17303484.58747 -13353556.04264
  23338674.3454     396668.04245    312858.38361
  21914123.9314  -12164350.36346  -9350110.04161
 91  4 23 21 41 29.9970000  0  6G18G11G19G 2G16G 6
  22978271.470    12410565.743 5   9658153.87921
  22801060.267    -4670730.171 6  -3547293.83021
  20759859.626     -679382.736 6   -510932.94223
  20409346.2984  -17328352.01447 -13372933.22163
  23340491.4314     406256.79344    320329.99361
  21906778.6654  -12202949.08546  -9380186.89861
 91  4 23 21 41 44.9970000  0  6G18G11G19G 2G16G 6
  22986754.5174   12455139.43345   9692886.40761
  22804779.407    -4651185.118 6  -3532063.94221
  20761730.2904    -669565.84446   -503283.44563
  20404628.6264  -17353142.84547 -13392250.71163
  23342341.392      415946.278 5    327880.14521
  21899436.9314  -12241537.29746  -9410255.57261
 91  4 23 21 41 59.9970000  0  6G18G11G19G 2G16G 6
  22995242.8684   12499743.71445   9727642.77661
  22808523.470    -4631515.183 6  -3516736.73321
  20763608.423     -659691.536 6
  20399924.7744  -17377863.50147 -13411513.52263
  23344202.3454     425730.04445
  21892093.8764  -12280121.16646  -9440320.85961
 91  4 23 21 42 14.9970000  0  6G18G11G19G 2G16G 6
  23003738.243    12544382.709 5   9762426.18321
  22812292.868    -4611716.224 6  -3501308.98921
  20765500.290     -649755.338 6
  20395234.5014  -17402509.59147 -13430718.22963
  23346081.6814     435612.41445
  21884753.0484  -12318696.14446  -9470379.22261
 91  4 23 21 42 29.9970000  0  6G18G11G19G 2G16G 6
  23012238.2204   12589050.52545   9797232.06561
  22816081.837    -4591794.543 6  -3485785.62321
  20767402.220     -639763.176 6
  20390558.0794  -17427087.09847 -13449869.49363
  23347978.7354     445586.94045
  21877412.3684  -12357268.30446  -9500435.39061
 91  4 23 21 42 44.9970000  0  6G18G11G19G 2G16G 6
  23020742.9704   12633754.41345   9832066.04361
  22819898.7824   -4571742.53346  -3470160.69461
  20769314.3684    -629707.09546
  20385895.235   -17451588.171 7 -13468961.19824
  23349898.9394     455661.07645
  21870074.6424  -12395829.59946  -9530483.08761
 91  4 23 21 42 59.9970000  0  6G18G11G19G 2G16G 6
  23029258.3214   12678488.53545   9866923.55661
  22823738.267    -4551565.852 6  -3454438.62821
  20771237.7284    -619592.48346
  20381246.0014  -17476018.30947 -13487997.63564
  23351830.8534     465828.95844
  21862737.0094  -12434385.52146  -9560526.59361
 91  4 23 21 43 14.9970000  0  6G18G11G19G 2G16G 6
  23037774.8844   12723250.55945   9901802.83161
  22827599.001    -4531266.998 6  -3438621.35821
  20773174.790     -609421.435 6   -456417.83023
  20376610.704   -17500379.834 7 -13506980.60024
  23353787.0094     476088.34344
  21855401.0644  -12472938.12846  -9590567.52261
 91  4 23 21 43 29.9970000  0  6G18G11G19G 2G16G 6
  23046300.087    12768046.273 5   9936708.39621
  22831487.743    -4510840.274 6  -3422704.44921
  20775123.149     -599187.979 6   -448443.73123
  20371988.1184  -17524666.80247 -13525905.46764
  23355755.6964     486444.96645
  21848066.1104  -12511481.36946  -9620601.14961
 91  4 23 21 43 44.9970000  0  6G18G11G19G 2G16G 6
  23054830.212    12812869.634 5   9971635.47121
  22835398.2124   -4490291.47346  -3406692.41161
  20777080.298     -588897.663 6   -440425.32723
  20367380.3144  -17548884.85347 -13544776.64164
  23357747.9854     496892.76345
  21840732.4784  -12550020.88246  -9650631.87061
 91  4 23 21 43 59.9970000  0  6G18G11G19G 2G16G 6
  23063364.2984   12857717.98645  10006581.99461
  22839331.196    -4469623.317 6  -3390587.37021
  20779050.548     -578552.860 6   -432364.46423
  20362784.501   -17573036.581 7 -13563596.12324
  23359750.329      507428.962 5        -0.16731
  21833399.7824  -12588558.97046  -9680661.48561
 91  4 23 21 44 14.9970000  0  6G18G11G19G 2G16G 6
  23071904.673    12902596.469 5  10041552.01121
  22843286.446    -4448830.665 6  -3374385.31721
  20781029.376     -568148.129 6   -424256.90223
  20358201.6424  -17597116.65747 -13582359.77464
  23361775.470      518058.724 5      8282.63921
  21826066.9854  -12627090.21746  -9710685.76661
 91  4 23 21 44 29.9970000  0  6G18G11G19G 2G16G 6
  23080452.1494   12947505.07145  10076545.51261
  22847267.3604   -4427913.52946  -3358086.25861
  20783017.759     -557682.919 6   -416102.21923
  20353633.9314  -17621124.80847 -13601067.38864
  23363812.337      528782.015 5     16638.33221
  21818736.3374  -12665614.19746  -9740704.39061
 91  4 23 21 44 44.9970000  0  6G18G11G19G 2G16G 6
  23089003.485    12992448.663 5  10111566.28721
  22851271.915    -4406867.014 6  -3341686.40321
  20785023.735     -547152.259 6   -407896.53723
  20349078.6574  -17645056.08047 -13619715.09764
  23365873.4464     539603.81545     25070.79661
  21811406.7204  -12704125.80546  -9770713.37561
 91  4 23 21 44 59.9970000  0  6G18G11G19G 2G16G 6
  23097561.649    13037421.504 5  10146609.82821
  22855301.8764   -4385696.69146  -3325190.05661
  20787036.7904    -536561.43046   -399643.96863
  20344538.946   -17668915.596 7 -13638306.88724
  23367947.2434     550518.73544     33575.77461
  21804078.4314  -12742630.23846  -9800716.76361
 91  4 23 21 45 14.9970000  0  6G18G11G19G 2G16G 6
  23106125.696    13082418.584 5  10181672.26421
  22859353.446    -4364407.703 6  -3308601.25021
  20789065.274     -525915.198 6   -391348.22923
  20340011.228   -17692708.292 7 -13656846.60824
  23370041.868      561521.227 4     42149.03321
  21796753.3684  -12781132.27346  -9830718.28261
 91  4 23 21 45 29.9970000  0  6G18G11G19G 2G16G 6
  23114693.040    13127443.119 5  10216756.09221
  22863426.298    -4342996.740 6  -3291917.40721
  20791101.8534    -515209.93746   -383006.49463
  20335497.6494  -17716430.66847 -13675331.54164
  23372154.7284     572614.65445     50793.15761
  21789428.3604  -12819628.31946  -9860715.13961
 91  4 23 21 45 44.9970000  0  6G18G11G19G 2G16G 6
  23123265.399    13172490.892 5  10251858.02921
  22867523.0564   -4321467.85346  -3275141.67261
  20793151.345     -504449.260 6   -374621.57523
  20330995.7204  -17740086.57147 -13693764.67064
  23374281.5564     583794.69545     59504.77061
  21782103.9934  -12858122.03146  -9890710.17861
 91  4 23 21 45 59.9970000  0  6G18G11G19G 2G16G 6
  23131847.212    13217573.433 5  10286987.06521
  22871644.899    -4299809.713 6  -3258265.22721
  20795209.657     -493621.546 6   -366184.42023
  20326508.2904  -17763664.56647 -13712137.09764
  23376429.071      595073.099 5     68293.02421
  21774780.4624  -12896601.71746  -9920694.28861
 91  4 23 21 46 14.9970000  0  6G18G11G19G 2G16G 6
  23140429.501    13262689.113 5  10322141.92421
  22875790.2674   -4278024.05546  -3241289.42061
  20797283.649     -482728.261 6   -357696.16523
  20322037.1344  -17787166.08047 -13730449.92664
  23378592.243      606447.910 5     77156.37221
  21767460.0954  -12935068.84746  -9950668.61361
 91  4 23 21 46 29.9970000  0  6G18G11G19G 2G16G 6
  23149021.509    13307833.591 5  10357319.20621
  22879959.7204   -4256115.09946  -3224217.54161
  20799366.8994    -471773.36846   -349159.91663
  20317578.6894  -17810595.28147 -13748706.40664
  23380774.0874     617914.71145     86091.42761
  21760142.7204  -12973527.30346  -9980636.18261
 91  4 23 21 46 44.9970000  0  6G18G11G19G 2G16G 6
  23157614.282    13352994.892 5  10392509.60721
  22884150.9784   -4234094.71046  -3207058.83061
  20801463.423     -460768.270 6   -340584.54023
  20313130.7284  -17833963.81747 -13766915.61664
  23382972.7514     629461.82545     95089.03061
  21752823.0244  -13011988.60846 -10010605.96961
 91  4 23 21 46 59.9970000  0  6G18G11G19G 2G16G 6
  23166214.868    13398185.485 5  10427722.82921
  22888363.173    -4211950.398 6  -3189803.54821
  20803566.9234    -449700.13846   -331960.04863
  20308698.3994  -17857258.73547 -13785067.46164
  23385188.509      641101.869 5    104159.03821
  21745506.1104  -13050439.81746 -10040567.88661
 91  4 23 21 47 14.9970000  0  6G18G11G19G 2G16G 6
  23174821.267    13443404.392 5  10462958.13021
  22892603.0714   -4189683.20346  -3172452.52461
  20805686.126     -438569.621 6   -323286.94223
  20304279.4784  -17880480.79447 -13803162.53464
  23387417.7904     652833.63344    113300.50961
  21738189.923   -13088881.772 6 -10070522.60821
 91  4 23 21 47 29.9970000  0  6G18G11G19G 2G16G 6
  23183427.8064   13488652.18545  10498215.91261
  22896861.4704   -4167292.55646  -3155005.29961
  20807815.204     -427375.761 6   -314564.47823
  20299873.884   -17903629.343 7 -13821200.32224
  23389670.689      664657.510 5    122513.79621
  21730878.314   -13127313.355 6 -10100469.24121
 91  4 23 21 47 44.9970000  0  6G18G11G19G 2G16G 6
  23192045.7594   13533929.75045  10533496.87161
  22901145.1104   -4144777.52946  -3137461.15161
  20809960.173     -416117.413 6   -305791.76823
  20295483.4234  -17926703.30647 -13839179.99664
  23391936.853      676574.385 5    131799.52821
  21723565.579   -13165733.400 6 -10130406.88421
 91  4 23 21 47 59.9970000  0  6G18G11G19G 2G16G 6
  23200665.7824   13579234.55645  10568799.08561
  22905454.1654   -4122140.45646  -3119821.90961
  20812110.868     -404796.640 6   -296970.40323
  20291106.267   -17949704.826 7 -13857103.21424
  23394225.454      688582.018 5    141155.98021
  21716255.3924  -13204144.05946 -10160337.20461
 91  4 23 21 48 14.9970000  0  6G18G11G19G 2G16G 6
  23209292.915    13624566.067 5  10604122.12321
  22909784.1964   -4099382.00846  -3102088.08361
  20814279.673     -393413.782 6   -288100.66923
  20286742.9704  -17972634.24247 -13874970.24964
  23396527.2284     700679.85745    150582.77761
  21708948.3684  -13242545.39746 -10190260.26361
 91  4 23 21 48 29.9970000  0  6G18G11G19G 2G16G 6
  23217925.603    13669924.234 5  10639465.92121
  22914141.1894   -4076502.22446  -3084259.71961
  20816454.696     -381968.624 6   -279182.38823
  20282393.8294  -17995491.62347 -13892781.16564
  23398847.2744     712867.73445    160079.70661
  21701643.282   -13280937.259 6 -10220175.94921
 91  4 23 21 48 44.9970000  0  6G18G11G19G 2G16G 6
  23226562.454    13715311.821 5  10674832.65321
  22918518.095    -4053498.271 6  -3066334.59121
  20818647.860     -370458.056 6   -270213.13923
  20278058.3764  -18018273.84647 -13910533.50664
  23401180.6424     725148.14944    169648.75261
  21694341.3924  -13319316.50046 -10250081.79461
 91  4 23 21 48 59.9970000  0  6G18G11G19G 2G16G 6
  23235204.353    13760722.972 5  10710217.71621
  22922915.7514   -4030376.14046  -3048317.37261
  20820848.806     -358887.560 6   -261197.19323
  20273735.9464  -18040986.41647 -13928231.57764
  23403536.0714     737515.61944    179285.62961
  21687038.454   -13357688.610 6 -10279982.08621
 91  4 23 21 49 14.9970000  0  6G18G11G19G 2G16G 6
  23243850.2744   13806161.73145  10745624.28061
  22927343.1184   -4007131.67746  -3030204.83861
  20823064.610     -347252.659 6   -252131.06123
  20269427.7284  -18063625.15947 -13945872.12463
  23405906.9394     749974.17844    188993.44561
  21679738.892   -13396049.145 6 -10309873.35421
 91  4 23 21 49 29.9970000  0  6G18G11G19G 2G16G 6
  23252503.134    13851629.055 5  10781053.11521
  22931785.7434   -3983764.05446  -3011996.32961
  20825289.462     -335552.029 6   -243013.71023
  20265134.9854  -18086188.91947 -13963454.23764
  23408292.0714     762524.28044    198772.61361
  21672439.7674  -13434396.87846 -10339754.64261
 91  4 23 21 49 44.9970000  0  6G18G11G19G 2G16G 6
  23261161.657    13897121.699 5  10816501.70421
  22936256.360    -3960276.431 6  -2993694.30621
  20827528.4074    -323788.52346   -233847.37163
  20260853.9074  -18108680.75447 -13980980.30464
  23410697.790      775162.887 4    208620.73621
  21665144.9934  -13472734.51446 -10369628.06861
 91  4 23 21 49 59.9970000  0  6G18G11G19G 2G16G 6
  23269820.1894   13942638.49945  10851969.12161
  22940749.9624   -3936670.00446  -2975299.71961
  20829776.7594    -311963.08446   -224632.76963
  20256586.9074  -18131101.61147 -13998451.06464
  23413124.782      787888.499 5    218536.67621
  21657850.5794  -13511063.03246 -10399494.38761
 91  4 23 21 50 14.9970000  0  6G18G11G19G 2G16G 6
  23278490.1814   13988178.38845  10887454.49161
  22945263.9464   -3912945.77046  -2956813.33761
  20832042.2984    -300076.48046   -215370.50963
  20252333.9154  -18153452.13447 -14015867.01964
  23415558.314      800700.336 5    228519.78821
  21650557.9234  -13549383.02146 -10429354.05861
 91  4 23 21 50 29.9970000  0  6G18G11G19G 2G16G 6
  23287159.470    14033743.863 5  10922959.82421
  22949800.1734   -3889101.23446  -2938233.20461
  20834315.7824    -288125.81046   -206058.32963
  20248094.6034  -18175729.60647 -14033226.06164
  23418013.4074     813600.86344    238572.05361
  21643271.0954  -13587691.58146 -10459204.82261
 91  4 23 21 50 44.9970000  0  5G18G11G19G 2G 6
  23295835.9154   14079329.64245  10958480.95561
  22954360.4464   -3865141.73246  -2919563.49661
  20836601.4704    -276115.88846   -196699.97663
  20243869.3454  -18197939.11847 -14050532.13463
  21635981.5404  -13625993.65046 -10489050.53361
 91  4 23 21 50 59.9970000  0  5G18G11G19G 2G 6
  23304513.360    14124935.127 5  10994017.46521
  22958941.7284   -3841067.78646  -2900804.60961
  20838896.1574    -264047.05846   -187295.72763
  20239655.6894  -18220081.00247 -14067785.51964
  21628692.6424  -13664289.41546 -10518891.32261
 91  4 23 21 51 14.9970000  0  5G18G11G19G 2G 6
  23313197.024    14170566.680 5  11029574.27121
  22963544.454    -3816873.013 6  -2881951.56221
  20841207.4464    -251912.68246   -177840.39463
  20235456.6264  -18242148.61147 -14084981.02564
  21621406.8924  -13702572.14346 -10548721.95761
 91  4 23 21 51 29.9970000  0  5G18G11G19G 2G 6
  23321886.048    14216220.607 5  11065148.50021
  22968170.9154   -3792561.29946  -2863007.40461
  20843526.1494    -239716.20946   -168336.68263
  20231269.4704  -18264145.77647 -14102121.64264
  21614124.9704  -13740845.30546 -10578545.13961
 91  4 23 21 51 44.9970000  0  5G18G11G19G 2G 6
  23330577.189    14261900.928 5  11100743.30221
  22972821.2204   -3768128.65646  -2843969.00561
  20845862.2354    -227452.98746   -158780.95563
  20227098.5094  -18286068.28747 -14119204.08163
  21606843.2674  -13779104.57146 -10608357.48761
 91  4 23 21 51 59.9970000  0  5G18G11G19G 2G 6
  23339275.345    14307601.524 5  11136353.89621
  22977492.4074   -3743580.91446  -2824840.91961
  20848206.8454    -215128.79746   -149177.71763
  20222938.9154  -18307921.59147 -14136232.59263
  21599564.7434  -13817355.43946 -10638163.29361
 91  4 23 21 52 14.9970000  0  5G18G11G19G 2G 6
  23347975.6104   14353320.57845  11171978.91161
  22982185.415    -3718919.826 6  -2805624.51721
  20850562.5174    -202745.27146   -139528.25163
  20218794.0244  -18329707.42147 -14153208.53263
  21592287.8924  -13855599.30446 -10667963.64461
 91  4 23 21 52 29.9970000  0  5G18G11G19G 2G 6
  23356679.689    14399068.665 5  11207626.50521
  22986899.4544   -3694135.25746  -2786311.88861
  20852932.4624    -190291.66046   -129824.16963
  20214663.4074  -18351415.36147 -14170123.77663
  21585012.8374  -13893825.60846 -10697750.30861
 91  4 23 21 52 44.9970000  0  5G18G11G19G 2G 6
  23365389.415    14444836.658 5  11243289.63721
  22991639.1034   -3669236.00346  -2766909.90061
  20855315.3374    -177776.57346   -120072.18163
  20210545.5564  -18373054.05047 -14186985.05563
  21577740.6184  -13932042.83646 -10727529.89461
 91  4 23 21 52 59.9970000  0  5G18G11G19G 2G 6
  23374102.3994   14490623.67045  11278967.56761
  22996397.181    -3644222.989 6  -2747419.25821
  20857709.5794    -165200.48246   -110272.65963
  20206440.5484  -18394624.06548 -14203792.82263
  21570471.1034  -13970251.46146 -10757302.78162
 91  4 23 21 53 14.9970000  0  5G18G11G19G 2G 6
  23382820.642    14536431.143 5  11314661.45821
  23001182.118    -3619094.651 6  -2727838.75921
  20860113.0484    -152561.50446   -100424.13663
  20202349.0794  -18416123.57347 -14220545.64763
  21563201.3684  -14008449.47746 -10787067.40462
 91  4 23 21 53 29.9970000  0  5G18G11G19G 2G 6
  23391540.5324   14582256.29645  11350369.13061
  23005985.470    -3593854.138 6  -2708170.85121
  20862528.0094    -139862.37046    -90528.74263
  20198270.1104  -18437555.44147 -14237245.76963
  21555935.0484  -14046639.69746 -10816825.94661
 91  4 23 21 53 44.9970000  0  5G18G11G19G 2G 6
  23400261.6734   14628097.35845  11386089.15461
  23010807.298    -3568503.127 6  -2688416.84021
  20864956.9934    -127104.45246    -80587.54063
  20194205.2434  -18458921.28548 -14253894.44263
  21548668.314   -14084823.446 6 -10846579.44722
 91  4 23 21 53 59.9970000  0  5G18G11G19G 2G 6
  23408989.212    14673952.534 5  11421820.18321
  23015652.626    -3543043.207 6  -2668577.96421
  20867394.7284    -114288.89546    -70601.42063
  20190151.0794  -18480222.34947 -14270492.63863
  21541401.8994  -14123001.80346 -10876328.74161
 91  4 23 21 54 14.9970000  0  5G18G11G19G 2G 6
  23417720.368    14719827.931 5  11457566.98221
  23020521.173    -3517468.511 6  -2648649.64521
  20869847.9394    -101409.58046    -60565.62663
  20186112.4234  -18501452.42948 -14287035.52463
  21534139.4544  -14161168.56046 -10906069.01161
 91  4 23 21 54 29.9970000  0  5G18G11G19G 2G 6
  23426452.673    14765724.771 5  11493330.51221
  23025408.6574   -3491777.74646  -2628630.90561
  20872311.5014     -88464.85146    -50478.85863
  20182086.2984  -18522610.18447 -14303522.04863
  21526879.7434  -14199322.07046 -10935798.95461
 91  4 23 21 54 44.9970000  0  5G18G11G19G 2G 6
  23435187.579    14811635.196 5  11529104.61121
  23030317.743    -3465978.919 6  -2608527.93921
  20874785.6574     -75462.37146    -40347.08963
  20178070.2204  -18543703.40647 -14319958.29463
  21519620.2674  -14237469.97446 -10965524.52461
 91  4 23 21 54 59.9970000  0  5G18G11G19G 2G 6
  23443927.6964   14857553.33345  11564884.73461
  23035246.040    -3440077.747 6  -2588345.23021
  20877270.9704     -62407.57646    -30174.55763
  20174068.7354  -18564737.62348 -14336348.56063
  21512362.1424  -14275617.52946 -10995249.82561
 91  4 23 21 55 14.9970000  0  5G18G11G19G 2G 6
  23452669.3604   14903488.95545  11600678.47061
  23040195.9784   -3414064.52646  -2568075.20961
  20879765.1574     -49290.37046    -19953.39763
  20170079.485   -18585702.697 7 -14352684.93123
  21505104.7204  -14313754.68646 -11024967.03261
 91  4 23 21 55 29.9970000  0  5G18G11G19G 2G 6
  23461411.8604   14949440.80645  11636484.83961
  23045168.103    -3387940.572 6  -2547718.90421
  20882271.7904     -36111.67646     -9684.32363
  20166102.7124  -18606599.67648 -14368968.25363
  21497846.8844  -14351882.40046 -11054676.87461
 91  4 23 21 55 44.9970000  0  5G18G11G19G 2G 6
  23470160.704    14995409.495 5  11672304.32221
  23050162.118    -3361705.152 6  -2527275.73721
  20884792.4314     -22870.47346       633.46563
  20162139.4854  -18627427.58648 -14385197.75563
  21490593.7594  -14389999.56146 -11084378.50261
 91  4 23 21 55 59.9970000  0  5G18G11G19G 2G 6
  23478910.4464   15041387.53545  11708131.11761
  23055172.0324   -3335365.83146  -2506751.62361
  20887323.6264      -9573.83646     10994.44363
  20158187.4394  -18648193.80347 -14401379.18963
  21483341.860   -14428113.225 6 -11114077.40121
 91  4 23 21 56 14.9970000  0  5G18G11G19G 2G 6
  23487663.1734   15087376.76345  11743966.64361
  23060205.360    -3308920.941 6  -2486145.23521
  20889864.4784       3780.23746     21400.17963
  20154247.6104  -18668896.42348 -14417511.06463
  21476088.876   -14466221.324 6 -11143771.96721
 91  4 23 21 56 29.9970000  0  5G18G11G19G 2G 6
  23496418.626    15133383.951 5  11779816.14521
  23065258.8994   -3282363.49646  -2465451.15961
  20892420.4464      17198.93346     31856.26963
  20150321.6654  -18689528.29747 -14433587.81463
  21468839.759   -14504316.504 6 -11173456.46721
 91  4 23 21 56 44.9970000  0  5G18G11G19G 2G 6
  23505176.704    15179408.696 5  11815679.34421
  23070333.9934   -3255694.02446  -2444669.78661
  20894983.5014      30682.05246     42362.56663
  20146408.6574  -18710089.63648 -14449609.59763
  21461593.2354  -14542398.91346 -11203131.01361
 91  4 23 21 56 59.9970000  0  5G18G11G19G 2G 6
  23513940.118    15225451.875 4  11851556.86121
  23075430.4624   -3228911.81946  -2423800.57361
  20897558.9544      44230.80546     52920.00063
  20142509.2674  -18730579.50847 -14465575.69563
  21454349.196   -14580467.351 6 -11232794.68021
 91  4 23 21 57 14.9970000  0  5G18G11G19G 2G 6
  23522703.5094   15271505.29144  11887442.36161
  23080547.345    -3202024.847 6  -2402849.73321
  20900151.9854      57837.62846     63522.68663
  20138623.2824  -18751005.80748 -14481492.25763
  21447105.4394  -14618529.42046 -11262453.38361
 91  4 23 21 57 29.9970000  0  5G18G11G19G 2G 6
  23531470.782    15317571.071 5  11923337.50721
  23085683.9854   -3175031.06246  -2381815.65361
  20902750.5954      71504.84846     74172.43663
  20134748.8374  -18771366.12848 -14497357.40863
  21439864.782   -14656582.681 6 -11292105.22221
 91  4 23 21 57 44.9970000  0  5G18G11G19G 2G 6
  23540240.1964   15363656.19445  11959247.72061
  23090842.6184   -3147923.69846  -2360693.06361
  20905364.8064      85239.55446     84874.77762
  20130887.5244  -18791653.35848 -14513165.60363
  21432625.954   -14694619.947 6 -11321744.59821
 91  4 23 21 57 59.9970000  0  5G18G11G19G 2G 6
  23549010.173    15409752.583 5  11995166.75921
  23096022.4854   -3120710.62046  -2339488.10861
  20907988.5014      99034.10846     95623.74662
  20127039.7354  -18811875.29748 -14528922.92363
  21425390.103   -14732648.738 6 -11351377.37521
 91  4 23 21 58 14.9970000  0  5G18G11G19G 2G 6
  23557783.8684   15455865.09844  12031098.32761
  23101219.9624   -3093387.17346  -2318197.14561
  20910627.5564     112893.74146    106423.43162
  20123204.8994  -18832027.00348 -14544625.51663
  21418158.165   -14770663.978 6 -11380999.58721
 91  4 23 21 58 29.9970000  0  5G18G11G19G 2G 6
  23566564.704    15501991.547 4  12067040.73921
  23106441.564    -3065955.514 6  -2296821.86621
  20913275.0404     126816.66146    117272.42462
  20119382.8294  -18852110.24248 -14560274.75663
  21410922.837   -14808667.306 6 -11410612.52021
 91  4 23 21 58 44.9970000  0  4G11G19G 2G 6
  23111680.306    -3038419.261 6  -2275365.09221
  20915937.3844     140799.57346    128168.16862
  20115572.5484  -18872128.47848 -14575873.35063
  21403693.243   -14846661.910 6 -11440218.66021
 91  4 23 21 58 59.9970000  0  4G11G19G 2G 6
  23116941.548    -3010776.086 6  -2253825.00521
  20918609.6104     154845.32046    139112.87062
  20111777.1034  -18892079.01348 -14591419.18463
  21396466.478   -14884645.121 6 -11469815.92421
 91  4 23 21 59 14.9970000  0  4G11G19G 2G 6
  23122222.1574   -2983025.12846  -2232200.92361
  20921296.5404     168954.92246    150107.33362
  20107994.5324  -18911960.84848 -14606911.49363
  21389240.337   -14922615.588 6 -11499403.25121
 91  4 23 21 59 29.9970000  0  4G11G19G 2G 6
  23127523.314    -2955167.050 6  -2210493.36721
  20923992.0714     183128.09946    161151.33462
  20104223.5564  -18931774.38448 -14622350.57663
  21382015.821   -14960573.480 6 -11528980.77921
 91  4 23 21 59 44.9970000  0  4G11G19G 2G 6
  23132844.118    -2927203.814 6  -2188703.88221
  20926702.9394     197363.17046    172243.56362
  20100465.1894  -18951521.34648 -14637737.79063
  21374794.618   -14998520.596 6 -11558549.91421
 91  4 23 21 59 59.9970000  0  4G11G19G 2G 6
  23138184.610    -2899137.168 6  -2166833.81421
  20929421.2354     211658.91146    183383.07162
  20096720.3144  -18971203.33348 -14653074.36763
  21367576.993   -15036458.251 6 -11588111.67122
 91  4 23 22  0 14.9970000  0  4G11G19G 2G 6
  23143545.5714   -2870968.26146  -2144884.05361
  20932152.0644     226014.33846    194569.08562
  20092986.4934  -18990821.14948 -14668360.94863
  21360359.423   -15074386.964 6 -11617666.46522
 91  4 23 22  0 29.9970000  0  4G11G19G 2G 6
  23148927.017    -2842695.055 6  -2122853.03321
  20934896.2434     240431.98146    205803.58362
  20089266.5014  -19010372.61748 -14683595.82563
  21353143.040   -15112304.319 6 -11647212.40922
 91  4 23 22  0 44.9970000  0  4G11G19G 2G 6
  23154327.6964   -2814312.39746  -2100736.72061
  20937652.6654     254917.35246    217090.85362
  20085559.4544  -19029852.31748 -14698774.77763
  21345932.235   -15150204.915 6 -11676745.29322
 91  4 23 22  0 59.9970000  0  4G11G19G 2G 6
  23159747.696    -2785827.645 6  -2078540.86121
  20940420.4784     269463.56346    228425.52862
  20081865.1184  -19049267.26748 -14713903.27963
  21338722.884   -15188095.554 6 -11706270.41922
 91  4 23 22  1 14.9970000  0  4G11G19G 2G 6
  23165186.7124   -2757239.58046  -2056264.48061
  20943200.8534     284072.19246    239808.84862
  20078183.2044  -19068615.99648 -14728980.18463
  21331512.493   -15225974.466 6 -11735786.40222
 91  4 23 22  1 29.9970000  0  4G11G19G 2G 6
  23170646.8294   -2728544.82246  -2033904.96261
  20945994.1814     298746.80446    251243.57862
  20074514.6104  -19087894.90848 -14744002.68063
  21324307.993   -15263838.057 6 -11765290.45122
 91  4 23 22  1 44.9970000  0  4G11G19G 2G 6
  23176128.4934   -2699745.49146  -2011463.95761
  20948797.3294     313485.61046    262728.32962
  20070858.8924  -19107106.00148 -14758972.33263
  21317103.868   -15301687.939 6 -11794783.81322
 91  4 23 22  1 59.9970000  0  4G11G19G 2G 6
  23181628.360    -2670844.499 6  -1988943.74221
  20951613.5174     328286.02546    274261.08462
  20067215.3764  -19126251.85148 -14773891.14463
  21309904.462   -15339526.551 6 -11824268.39222
 91  4 23 22  2 14.9970000  0  4G11G19G 2G 6
  23187146.9624   -2641836.31346  -1966339.99761
  20954443.0324     343154.04646    285846.52862
  20063586.1184  -19145326.67248 -14788754.60963
  21302706.618   -15377347.799 6 -11853739.45122
 91  4 23 22  2 29.9970000  0  4G11G19G 2G 6
  23192687.431    -2612722.595 6  -1943654.01821
  20957285.0714     358088.48446    297483.72162
  20059969.3764  -19164331.90848 -14803563.85363
  21295511.774   -15415153.082 6 -11883198.05522
 91  4 23 22  2 44.9970000  0  4G11G19G 2G 6
  23198247.2674   -2583504.57146  -1920886.77161
  20960139.2984     373088.41846    309171.95262
  20056365.0874  -19183268.44448 -14818319.56863
  21288322.462   -15452943.278 6 -11912644.91621
 91  4 23 22  2 59.9970000  0  4G11G19G 2G 6
  23203829.4624   -2554176.62045  -1898033.85861
  20963007.267      388159.654 6    320915.74422
  20052775.8994  -19202130.46648 -14833017.21963
  21281135.001   -15490712.133 6 -11942075.14222
 91  4 23 22  3 14.9970000  0  4G11G19G 2G 6
  23209432.1734   -2524741.95145  -1875097.79561
  20965889.7284     403299.36746    332712.89862
  20049200.7824  -19220920.86648 -14847659.05763
  21273951.009   -15528462.544 6 -11971490.99522
 91  4 23 22  3 29.9970000  0  4G11G19G 2G 6
  23215052.0794   -2495202.70945  -1852080.24561
  20968782.3214     418505.79046    344562.02562
  20045637.501   -19239641.641 8 -14862246.64923
  21266771.079   -15566196.206 6 -12000893.79522
 91  4 23 22  3 44.9970000  0  4G11G19G 2G 6
  23220689.6574   -2465563.81445  -1828985.04561
  20971687.4394     433774.59046    356459.76462
  20042087.595   -19258297.276 8 -14876783.48223
  21259591.142   -15603917.416 6 -12030286.88921
 91  4 23 22  3 59.9970000  0  4G11G19G 2G 6
  23226351.9464   -2435821.35845  -1805809.14861
  20974606.2284     449110.06046    368409.44562
  20038550.7434  -19276883.68448 -14891266.37363
  21252416.212   -15641621.887 6 -12059666.94222
 91  4 23 22  4 14.9970000  0  4G11G19G 2G 6
  23232030.353    -2405976.949 5  -1782553.81221
  20977536.5714     464510.87546    380410.05662
  20035026.0954  -19295402.29348 -14905696.42463
  21245245.868   -15679310.869 6 -12089034.92521
 91  4 23 22  4 29.9970000  0  4G11G19G 2G 6
  23237727.2204   -2376034.89545  -1759222.38961
  20980482.4314     479973.06946    392458.48262
  20031515.2904  -19313857.20148 -14920076.84363
  21238075.462   -15716988.105 6 -12118393.75521
 91  4 23 22  4 44.9970000  0  4G11G19G 2G 6
  23243445.118    -2345992.518 6  -1735812.79121
  20983434.0244     495499.63546    404557.07362
  20028016.110   -19332245.397 8 -14934405.28123
  21230909.2904  -15754650.58146 -12147741.08061
 91  4 23 22  4 59.9970000  0  4G11G19G 2G 6
  23249181.0564   -2315851.95046  -1712326.67461
  20986401.2434     511088.84346    416704.46462
  20024528.6654  -19350568.55048 -14948683.03563
  21223743.337   -15792299.928 6 -12177078.17421
 91  4 23 22  5 14.9970000  0  4G11G19G 2G 6
  23254935.5644   -2285609.04646  -1688760.82261
  20989379.6814     526745.24346    428904.22962
  20021055.876   -19368822.379 8 -14962906.77623
  21216582.1494  -15829931.52046 -12206401.43861
 91  4 23 22  5 29.9970000  0  4G11G19G 2G 6
  23260709.259    -2255273.321 6  -1665122.61621
  20992374.5794     542459.60446    441149.15262
  20017593.126   -19387016.327 8 -14977083.85223
  21209423.4854  -15867554.49246 -12235717.97661
 91  4 23 22  5 44.9970000  0  4G11G19G 2G 6
  23266501.7044   -2224835.98646  -1641405.24761
  20995373.2594     558241.15946    453446.42962
  20014143.868   -19405141.173 8 -14991207.08223
  21202266.540   -15905159.609 6 -12265020.61121
 91  4 23 22  5 59.9970000  0  4G11G19G 2G 6
  23272314.3924   -2194294.28146  -1617606.55261
  20998390.4934     574093.21846    465798.64662
  20010708.6424  -19423193.78448 -15005274.02763
  21195114.7354  -15942743.39146 -12294306.61361
 91  4 23 22  6 14.9970000  0  4G11G19G 2G 6
  23278145.4704   -2163650.69746  -1593728.46061
  21001419.0094     590013.54046    478204.05962
  20007286.587   -19441176.705 8 -15019286.66423
  21187967.2204  -15980308.15546 -12323577.79762
 91  4 23 22  6 29.9970000  0  4G11G19G 2G 6
  23283994.9784   -2132906.54246  -1569772.01561
  21004462.5094     606000.95346    490661.74463
  20003878.571   -19459090.943 8 -15033245.78423
  21180821.7984  -16017854.84246 -12352834.89762
 91  4 23 22  6 44.9970000  0  4G11G19G 2G 6
  23289862.923    -2102062.962 6  -1545738.08121
  21007517.9934     622054.65446    503171.08062
  20000482.2514  -19476937.30048 -15047152.01163
  21173680.1034  -16055383.96646 -12382078.30762
 91  4 23 22  6 59.9970000  0  4G11G19G 2G 6
  23295752.079    -2071121.635 5  -1521627.99021
  21010587.509      638173.470 6    515731.15522
  19997098.3684  -19494717.47148 -15061006.66363
  21166542.1034  -16092896.82146 -12411309.04562
 91  4 23 22  7 14.9970000  0  4G11G19G 2G 6
  23301661.103    -2040085.068 5  -1497443.68621
  21013662.7284     654355.33346    528340.36162
  19993727.040   -19512433.357 8 -15074811.22323
  21159407.0644  -16130395.42346 -12440528.67762
 91  4 23 22  7 29.9970000  0  4G11G19G 2G 6
  23307581.524    -2008955.325 5  -1473186.77221
  21016758.5324     670598.54046    540997.36962
  19990367.134   -19530086.670 8 -15088567.02423
  21152272.0404  -16167881.29946 -12469738.38962
 91  4 23 22  7 44.9970000  0  4G11G19G 2G 6
  23313522.3454   -1977721.64645  -1448848.87661
  21019858.267      686914.078 6    553710.73222
  19987022.5874  -19547666.60248 -15102265.64663
  21145144.6734  -16205343.28246 -12498929.48062
 91  4 23 22  7 59.9970000  0  4G11G19G 2G 6
  23319484.728    -1946389.448 5  -1424434.23721
  21022978.251      703296.938 6    566476.55522
  19983690.2044  -19565178.33748 -15115911.12863
  21138018.2824  -16242786.33946 -12528105.83462
 91  4 23 22  8 14.9970000  0  4G11G19G 2G 6
  23325466.6494   -1914959.56345  -1399943.44361
  21026107.892      719746.797 6    579294.58022
  19980370.923   -19582622.274 8 -15129503.78023
  21130896.970   -16280210.726 6 -12557267.63722
 91  4 23 22  8 29.9970000  0  4G11G19G 2G 6
  23331468.9234   -1883435.18945  -1375379.05361
  21029252.720      736260.905 6    592162.67122
  19977062.5244  -19600001.35448 -15143045.89363
  21123777.4234  -16317619.29946 -12586417.11562
 91  4 23 22  8 44.9970000  0  4G11G19G 2G 6
  23337482.3844   -1851811.48345  -1350737.25161
  21032406.360      752844.267 6    605084.73022
  19973769.9544  -19617310.57748 -15156533.57063
  21116663.5404  -16355006.69646 -12615550.08662
 91  4 23 22  8 59.9970000  0  4G11G19G 2G 6
  23343519.6184   -1820094.12245  -1326022.49461
  21035576.853      769491.590 6    618056.62422
  19970487.7984  -19634555.51148 -15169971.15363
  21109552.2744  -16392378.28646 -12644670.74762
 91  4 23 22  9 14.9970000  0  4G11G19G 2G 6
  23349576.3844   -1788285.94145  -1301236.93361
  21038753.196      786200.352 6    631076.39122
  19967218.3374  -19651738.61648 -15183360.55963
  21102443.095   -16429736.321 6 -12673780.84722
 91  4 23 22  9 29.9970000  0  4G11G19G 2G 6
  23355644.6104   -1756386.32245  -1276380.14361
  21041942.915      802971.429 6    644144.71322
  19963959.4154  -19668858.90848 -15196701.01763
  21095338.2044  -16467079.79146 -12702879.59062
 91  4 23 22  9 44.9970000  0  4G11G19G 2G 6
  23361735.5564   -1724389.31745  -1251447.47561
  21045149.079      819811.216 6    657266.57822
  19960715.2904  -19685910.23148 -15209987.73463
  21088233.8374  -16504402.11346 -12731961.86162
 91  4 23 22  9 59.9970000  0  4G11G19G 2G 6
  23367841.1494   -1692299.60345  -1226442.56961
  21048364.743      836715.496 6    670438.69622
  19957483.095   -19702897.125 8 -15223224.24723
  21081134.5404  -16541707.61046 -12761031.01862
 91  4 23 22 10 14.9970000  0  4G11G19G 2G 6
  23373963.7674   -1660117.49046  -1201365.64261
  21051595.032      853684.434 6    683661.20122
  19954262.204   -19719819.444 8 -15236410.44523
  21074040.9704  -16578996.05246 -12790086.89162
 91  4 23 22 10 29.9970000  0  4G11G19G 2G 6
  23380105.282    -1627845.409 5  -1176218.60921
  21054835.610      870715.924 6    696932.44522
  19951054.8144  -19736679.20348 -15249547.89163
  21066947.517   -16616269.329 6 -12819130.94522
 91  4 23 22 10 44.9970000  0  4G11G19G 2G 6
  23386262.259    -1595482.184 5  -1151000.56721
  21058088.564      887811.610 6    710253.71222
  19947858.040   -19753475.222 8 -15262635.67123
  21059855.4314  -16653525.85946 -12848161.95062
 91  4 23 22 10 59.9970000  0  4G11G19G 2G 6
  23392441.024    -1563022.453 6  -1125707.32521
  21061356.501      904977.067 6    723629.34022
  19944675.595   -19770201.910 8 -15275669.42823
  21052771.431   -16690759.855 6 -12877175.39622
 91  4 23 22 11 14.9970000  0  4G11G19G 2G 6
  23398635.376    -1530470.104 6  -1100341.91321
  21064634.860      922208.996 6    737056.77622
  19941504.6964  -19786862.75648 -15288651.87563
  21045690.4314  -16727974.67646 -12906173.89762
 91  4 23 22 11 29.9970000  0  4G11G19G 2G 6
  23404846.751    -1497828.707 5  -1074907.09121
  21067926.251      939504.089 6    750533.42422
  19938346.2204  -19803461.07448 -15301585.60463
  21038610.790   -16765173.335 6 -12935159.81122
 91  4 23 22 11 44.9970000  0  4G11G19G 2G 6
  23411076.064    -1465105.676 5  -1049408.67921
  21071226.728      956855.146 6    764053.67522
  19935198.0874  -19820004.16648 -15314476.29763
  21031532.6494  -16802362.82346 -12964138.58062
 91  4 23 22 11 59.9970000  0  4G11G19G 2G 6
  23417316.1814   -1432293.33945  -1023840.66061
  21074541.9704     974270.19946    777623.80862
  19932060.9624  -19836484.02148 -15327317.71363
  21024459.399   -16839535.076 6 -12993103.92122
 91  4 23 22 12 14.9970000  0  4G11G19G 2G 6
  23423577.009    -1399388.233 5   -998200.36221
  21077869.579      991753.123 6    791246.82122
  19928939.2514  -19852896.85848 -15340106.90863
  21017389.3684  -16876686.08846 -13022052.70262
 91  4 23 22 12 29.9970000  0  4G11G19G 2G 6
  23429855.399    -1366395.360 5   -972491.66721
  21081207.5094    1009299.24146    804919.07562
  19925826.9624  -19869247.41448 -15352847.57063
  21010323.993   -16913820.299 6 -13050988.40522
 91  4 23 22 12 44.9970000  0  4G11G19G 2G 6
  23436151.9704   -1333314.11745   -946714.12861
  21084558.564     1026909.613 6    818641.39522
  19922727.0174  -19885534.97048 -15365539.14263
  21003260.751   -16950936.672 6 -13079910.19422
 91  4 23 22 12 59.9970000  0  4G11G19G 2G 6
  23442463.110    -1300142.921 5   -920866.50121
  21087923.423     1044586.199 6    832415.31422
  19919640.8764  -19901757.65348 -15378180.16563
  20996200.720   -16988033.317 6 -13108816.61822
 91  4 23 22 13 14.9970000  0  4G11G19G 2G 6
  23448795.7044   -1266879.81045   -894947.23561
  21091298.384     1062331.410 6    846242.70722
  19916566.4784  -19917913.06548 -15390768.76763
  20989146.673   -17025107.587 6 -13137705.60622
 91  4 23 22 13 29.9970000  0  4G11G19G 2G 6
  23455140.681    -1233531.247 5   -868961.40021
  21094687.704     1080139.057 6    860118.75522
  19913503.6494  -19934007.37648 -15403309.75563
  20982093.649   -17062165.296 6 -13166581.69322
 91  4 23 22 13 44.9970000  0  4G11G19G 2G 6
  23461503.7594   -1200095.09845   -842907.30961
  21098088.2354    1098011.63346    874045.39762
  19910452.7744  -19950038.16048 -15415801.24763
  20975045.759   -17099203.996 6 -13195442.96422
 91  4 23 22 13 59.9970000  0  4G11G19G 2G 6
  23467884.509    -1166571.300 6   -816784.91621
  21101504.696     1115949.564 6    888022.96022
  19907415.1104  -19966005.24548 -15428243.10363
  20968003.001   -17136223.197 6 -13224289.04622
 91  4 23 22 14 14.9970000  0  4G11G19G 2G 6
  23474279.321    -1132961.545 6   -790595.55121
  21104927.0404    1133951.49946    902050.39862
  19904387.9154  -19981910.11748 -15440636.47963
  20960961.9394  -17173224.15246 -13253120.90462
 91  4 23 22 14 29.9970000  0  4G11G19G 2G 6
  23480690.2824   -1099269.11946   -764341.76161
  21108365.618     1152014.471 6    916125.40422
  19901372.704   -19997755.782 8 -15452983.72623
  20953923.712   -17210209.646 6 -13281940.72022
 91  4 23 22 14 44.9970000  0  4G11G19G 2G 6
  23487118.353    -1065490.309 6   -738020.66121
  21111814.5484    1170142.66146    930251.22862
  19898369.2744  -20013538.15648 -15465281.64963
  20946889.165   -17247175.385 6 -13310745.13722
 91  4 23 22 14 59.9970000  0  4G11G19G 2G 6
  23493562.2204   -1031625.70146   -711632.69861
  21115277.6344    1188335.90846    944427.73962
  19895378.6034  -20029257.59048 -15477530.52663
  20939857.657   -17284121.344 6 -13339534.14822
 91  4 23 22 15 14.9960000  0  4G11G19G 2G 6
  23500023.606     -997679.635 6   -685181.26621
  21118751.2624    1206591.29246    958652.68162
  19892398.918   -20044914.767 8 -15489730.89923
  20932831.004   -17321046.714 6 -13368307.11622
 91  4 23 22 15 29.9960000  0  4G11G19G 2G 6
  23506500.6454    -963645.34946   -658661.08161
  21122238.504     1224913.795 6    972929.91322
  19889431.5204  -20060509.18548 -15501882.36663
  20925806.551   -17357953.728 6 -13397065.77622
 91  4 23 22 15 44.9960000  0  4G11G19G 2G 6
  23512992.848     -929525.291 5   -632074.05721
  21125738.145     1243302.342 6    987258.61022
  19886475.3564  -20076039.87048 -15513984.16863
  20918788.332   -17394839.593 6 -13425807.96322
 91  4 23 22 15 59.9960000  0  4G11G19G 2G 6
  23519499.7774    -895327.21845   -605426.27361
  21129247.715     1261749.582 6   1001633.03322
  19883530.645   -20091514.297 8 -15526042.14723
  20911771.184   -17431711.601 6 -13454539.34822
 91  4 23 22 16 14.9960000  0  4G11G19G 2G 6
  23526025.020     -861044.966 5   -578712.84921
  21132770.5664    1280261.98046   1016058.24462
  19880598.2074  -20106926.11548 -15538051.32363
  20904759.7624  -17468563.16246 -13483254.78962
 91  4 23 22 16 29.9960000  0  4G11G19G 2G 6
  23532566.6214    -826670.00745   -551927.21161
  21136308.090     1298848.369 6   1030541.09722
  19877678.1524  -20122266.66148 -15550004.96463
  20897752.887   -17505385.275 6 -13511947.29422
 91  4 23 22 16 44.9960000  0  4G11G19G 2G 6
  23539124.879     -792215.324 5   -525079.46421
  21139857.3634    1317496.09246   1045071.74962
  19874770.809   -20137548.486 8 -15561912.85924
  20890750.191   -17542190.334 6 -13540626.51222
 91  4 23 22 16 59.9960000  0  4G11G19G 2G 6
  23545694.152     -757680.651 5   -498169.37321
  21143418.285     1336206.115 6   1059650.94222
  19871873.9814  -20152770.82748 -15573774.39863
  20883750.254   -17578977.571 7 -13569291.84022
 91  4 23 22 17 14.9960000  0  4G11G19G 2G 6
  23552282.043     -723066.446 5   -471197.31721
  21146989.254     1354978.291 6   1074278.56922
  19868988.348   -20167933.950 8 -15585589.79023
  20876752.082   -17615746.724 7 -13597943.08022
 91  4 23 22 17 29.9960000  0  4G11G19G 2G 6
  23558883.7464    -688368.40845   -444159.91561
  21150573.1604    1373817.15946   1088958.17062
  19866115.207   -20183033.393 8 -15597355.57123
  20869760.793   -17652493.169 7 -13626576.62522
 91  4 23 22 17 44.9960000  0  3G19G 2G 6
  21154171.051     1392720.871 6   1103688.28822
  19863253.473   -20198071.188 8 -15609073.30723
  20862769.090   -17689218.691 7 -13655193.86722
 91  4 23 22 17 59.9960000  0  3G19G 2G 6
  21157783.285     1411683.589 6   1118464.38422
  19860402.379   -20213053.061 8 -15620747.46824
  20855784.895   -17725928.908 7 -13683799.18222
 91  4 23 22 18 14.9960000  0  3G19G 2G 6
  21161400.4184    1430708.98646   1133289.33162
  19857562.895   -20227975.435 8 -15632375.27123
  20848803.035   -17762619.866 7 -13712389.49122
 91  4 23 22 18 29.9960000  0  3G19G 2G 6
  21165035.0984    1449803.91046   1148168.45262
  19854736.5044  -20242831.63048 -15643951.50064
  20841824.473   -17799284.673 7 -13740959.42022
 91  4 23 22 18 44.9960000  0  3G19G 2G 6
  21168679.426     1468965.752 6   1163099.71522
  19851920.848   -20257624.309 8 -15655478.24124
  20834853.762   -17835925.842 7 -13769510.93122
 91  4 23 22 18 59.9960000  0  3G19G 2G 6
  21172340.926     1488196.080 6   1178084.33722
  19849117.840   -20272352.148 8 -15666954.45923
  20827883.996   -17872541.907 7 -13798042.87922
 91  4 23 22 19 14.9960000  0  3G19G 2G 6
  21176010.4414    1507487.66346   1193116.70462
  19846326.6844  -20287022.34848 -15678385.75963
  20820921.082   -17909139.732 7 -13826560.61622
 91  4 23 22 19 29.9960000  0  3G19G 2G 6
  21179696.504     1526837.638 6   1208194.55622
  19843545.106   -20301637.876 8 -15689774.45423
  20813958.215   -17945721.923 7 -13855066.16822
 91  4 23 22 19 44.9960000  0  3G19G 2G 6
  21183386.2704    1546245.85146   1223317.80062
  19840774.465   -20316198.952 8 -15701120.72724
  20807001.707   -17982288.543 7 -13883559.58822
 91  4 23 22 19 59.9960000  0  3G19G 2G 6
  21187094.004     1565718.650 6   1238491.36122
  19838015.301   -20330699.504 8 -15712419.83824
  20800048.098   -18018833.103 7 -13912035.81922
 91  4 23 22 20 14.9960000  0  3G19G 2G 6
  21190809.129     1585255.487 6   1253714.82422
  19835267.848   -20345140.032 8 -15723672.17123
  20793095.441   -18055356.032 7 -13940495.19222
 91  4 23 22 20 29.9960000  0  3G19G 2G 6
  21194540.106     1604858.313 6   1268989.70422
  19832530.270   -20359518.684 8 -15734876.29524
  20786151.637   -18091855.385 7 -13968936.19222
 91  4 23 22 20 44.9960000  0  3G19G 2G 6
  21198280.9184    1624522.89246   1284312.71562
  19829805.918   -20373839.878 8 -15746035.64324
  20779208.488   -18128335.084 7 -13997361.88522
 91  4 23 22 20 59.9960000  0  3G19G 2G 6
  21202036.691     1644247.161 6   1299682.22722
  19827091.496   -20388105.790 8 -15757151.91823
  20772269.191   -18164797.133 7 -14025773.81422
 91  4 23 22 21 14.9960000  0  3G19G 2G 6
  21205799.637     1664033.797 6   1315100.34022
  19824387.707   -20402313.707 8 -15768222.99623
  20765335.309   -18201238.602 7 -14054169.71422
 91  4 23 22 21 29.9960000  0  3G19G 2G 6
  21209583.176     1683885.584 6   1330569.21422
  19821695.949   -20416460.966 8 -15779246.81224
  20758405.395   -18237656.519 7 -14082547.26222
 91  4 23 22 21 44.9960000  0  3G19G 2G 6
  21213368.699     1703805.153 6   1346090.90922
  19819015.223   -20430545.135 8 -15790221.46624
  20751478.9414  -18274048.15547 -14110904.32162
 91  4 23 22 21 59.9960000  0  3G19G 2G 6
  21217171.316     1723789.753 6   1361663.27722
  19816346.176   -20444568.819 8 -15801148.99424
  20744560.293   -18310416.084 7 -14139242.91922
 91  4 23 22 22 14.9960000  0  3G19G 2G 6
  21220987.785     1743836.798 6   1377284.30522
  19813689.082   -20458534.553 8 -15812031.36124
  20737644.207   -18346762.811 7 -14167564.99022
 91  4 23 22 22 29.9960000  0  3G19G 2G 6
  21224814.856     1763947.731 6   1392955.11522
  19811042.348   -20472441.075 8 -15822867.58824
  20730730.262   -18383086.565 7 -14195869.16422
 91  4 23 22 22 44.9960000  0  3G19G 2G 6
  21228653.926     1784125.855 6   1408678.28522
  19808407.801   -20486285.323 8 -15833655.28823
  20723823.426   -18419383.930 7 -14224152.77222
 91  4 23 22 22 59.9960000  0  3G19G 2G 6
  21232504.840     1804360.933 6   1424445.83022
  19805783.652   -20500077.416 8 -15844402.35524
  20716919.512   -18455664.896 7 -14252423.60422
 91  4 23 22 23 14.9960000  0  3G19G 2G 6
  21236368.246     1824662.903 6   1440265.49822
  19803170.363   -20513807.672 8 -15855101.22523
  20710020.566   -18491919.506 7 -14280673.89422
 91  4 23 22 23 29.9960000  0  3G19G 2G 6
  21240243.926     1845033.387 6   1456138.55722
  19800569.965   -20527474.779 8 -15865750.89824
  20703127.152   -18528146.027 7 -14308902.30222
 91  4 23 22 23 44.9960000  0  3G19G 2G 6
  21244130.981     1865463.584 6   1472058.13722
  19797979.293   -20541087.455 8 -15876358.15324
  20696236.090   -18564353.000 7 -14337115.47522
 91  4 23 22 23 59.9960000  0  3G19G 2G 6
  21248032.074     1885958.222 6   1488027.93322
  19795400.051   -20554640.947 8 -15886919.29024
  20689350.879   -18600535.466 7 -14365309.55622
 91  4 23 22 24 14.9960000  0  3G19G 2G 6
  21251945.816     1906524.166 6   1504053.28822
  19792833.777   -20568128.515 8 -15897429.05523
  20682473.527   -18636686.497 7 -14393479.14322
 91  4 23 22 24 29.9960000  0  3G19G 2G 6
  21255870.652     1927150.710 6   1520125.86522
  19790276.926   -20581561.005 8 -15907895.90524
  20675596.715   -18672816.651 7 -14421632.46222
 91  4 23 22 24 44.9960000  0  3G19G 2G 6
  21259808.1914    1947839.18046   1536246.69562
  19787731.754   -20594937.383 8 -15918319.03224
  20668726.207   -18708924.453 7 -14449768.36722
 91  4 23 22 24 59.9960000  0  3G19G 2G 6
  21263758.074     1968590.319 6   1552416.36322
  19785196.9344  -20608256.73348 -15928697.72364
  20661859.324   -18745008.919 7 -14477886.08722
 91  4 23 22 25 14.9960000  0  3G19G 2G 6
  21267717.0824    1989407.29246   1568637.32362
  19782673.613   -20621516.062 8 -15939029.63624
  20654998.082   -18781066.807 7 -14505983.09822
 91  4 23 22 25 29.9960000  0  3G19G 2G 6
  21271690.582     2010281.680 6   1584903.02522
  19780160.5904  -20634723.54848 -15949321.15964
  20648139.262   -18817106.118 7 -14534065.63622
 91  4 23 22 25 44.9960000  0  3G19G 2G 6
  21275672.9344    2031215.76946   1601215.24762
  19777657.5744  -20647877.07148 -15959570.63164
  20641287.129   -18853124.402 7 -14562131.79122
 91  4 23 22 25 59.9960000  0  3G19G 2G 6
  21279669.418     2052215.990 6   1617579.00122
  19775166.270   -20660970.631 8 -15969773.38124
  20634435.629   -18889115.254 7 -14590176.56422
 91  4 23 22 26 14.9960000  0  3G19G 2G 6
  21283676.6374    2073278.44846   1633991.24862
  19772684.9654  -20674007.99748 -15979932.34163
  20627592.887   -18925082.290 7 -14618202.78322
 91  4 23 22 26 29.9960000  0  3G19G 2G 6
  21287700.2934    2094403.15146   1650451.99862
  19770214.7774  -20686989.38048 -15990047.67763
  20620750.7074  -18961025.44747 -14646210.39662
 91  4 23 22 26 44.9960000  0  3G19G 2G 6
  21291730.0594    2115586.66546   1666958.57462
  19767754.824   -20699918.134 8 -16000122.00524
  20613917.020   -18996947.958 7 -14674201.92022
 91  4 23 22 26 59.9960000  0  2G19G 6
  21295770.973     2136832.678 6   1683513.85122
  20607083.957   -19032845.968 7 -14702174.35522
 91  4 23 22 27 14.9960000  0  3G19G 2G 6
  21299827.473     2158141.097 6   1700117.76022
  19762866.270          -0.93618
  20600259.434   -19068719.003 7 -14730127.32622
 91  4 23 22 27 29.9960000  0  3G19G 2G 6
  21303892.4574    2179510.41146   1716769.11562
  19760437.770      -12762.694 8
  20593436.1134  -19104568.55847 -14758062.00362
 91  4 23 22 27 44.9960000  0  3G19G 2G 6
  21307973.3634    2200948.95546   1733474.41262
  19758021.004      -25461.716 8        -0.21734
  20586621.004   -19140386.326 7 -14785971.91022
 91  4 23 22 27 59.9960000  0  3G19G 2G 6
  21312065.2934    2222447.70046   1750226.62662
  19755615.356      -38107.230 8     -9853.84324
  20579807.7624  -19176181.32047 -14813864.07262
 91  4 23 22 28 14.9960000  0  3G19G 2G 6
  21316168.8324    2244012.05746   1767029.95462
  19753219.746      -50693.896 8    -19661.61223
  20573001.184   -19211947.788 7 -14841734.00722
 91  4 23 22 28 29.9960000  0  3G19G 2G 6
  21320283.7854    2265640.89846   1783883.53662
  19750835.426      -63222.809 8    -29424.37824
  20566201.2384  -19247686.49747 -14869582.30962
 91  4 23 22 28 44.9960000  0  3G19G 2G 6
  21324411.2854    2287324.75246   1800779.98762
  19748460.262      -75703.554 8    -39149.61424
  20559402.7934  -19283406.88847 -14897416.33962
 91  4 23 22 28 59.9960000  0  3G19G 2G 6
  21328547.8714    2309065.65646   1817720.89361
  19746095.066      -88134.205 8    -48835.81523
  20552610.7384  -19319106.83047 -14925234.43562
 91  4 23 22 29 14.9960000  0  3G19G 2G 6
  21332696.7774    2330866.41046   1834708.43162
  19743739.754     -100511.858 8    -58480.71623
  20545823.340   -19354783.057 7 -14953034.04922
 91  4 23 22 29 29.9960000  0  3G19G 2G 6
  21336858.965     2352737.171 6   1851750.52622
  19741396.520     -112826.607 8    -68076.60723
  20539040.277   -19390425.288 7 -14980807.17522
 91  4 23 22 29 44.9960000  0  3G19G 2G 6
  21341030.5274    2374665.61646   1868837.56862
  19739062.215     -125090.862 8    -77633.15223
  20532260.3094  -19426045.89547 -15008563.44863
 91  4 23 22 29 59.9960000  0  3G19G 2G 6
  21345215.3634    2396656.12646   1885972.97262
  19736739.379     -137300.157 8    -87146.86424
  20525485.895   -19461640.030 7 -15036299.09322
 91  4 23 22 30 14.9960000  0  3G19G 2G 6
  21349411.426     2418711.540 6   1903158.95122
  19734426.449     -149451.844 8    -96615.69024
  20518718.832   -19497204.737 7 -15064011.80722
 91  4 23 22 30 29.9960000  0  3G19G 2G 6
  21353623.660     2440825.950 6   1920390.90022
  19732124.098     -161551.901 8   -106044.28724
  20511958.066   -19532745.802 7 -15091706.09522
 91  4 23 22 30 44.9960000  0  4G13G19G 2G 6
  22968290.5984         -0.11653
  21357842.246     2463007.894 6   1937675.48122
  19729832.535     -173591.810 8   -115426.01524
  20505200.684   -19568254.430 7 -15119375.10922
 91  4 23 22 30 59.9960000  0  4G13G19G 2G 6
  22955048.7624     -69592.21643
  21362075.8244    2485258.21946   1955013.33162
  19727553.074     -185570.776 8   -124760.25324
  20498448.426   -19603729.457 7 -15147017.94222
 91  4 23 22 31 14.9960000  0  4G13G19G 2G 6
  22941811.6994    -139163.82844
  21366322.293     2507569.008 6   1972398.30322
  19725283.996     -197496.796 8   -134053.23524
  20491703.145   -19639178.818 7 -15174640.76922
 91  4 23 22 31 29.9960000  0  4G13G19G 2G 6
  22928577.0274    -208714.58444
  21370579.645     2529940.574 6   1989830.64022
  19723024.754     -209369.845 8   -143304.94024
  20484964.004   -19674602.035 7 -15202243.22622
 91  4 23 22 31 44.9960000  0  4G13G19G 2G 6
  22915344.9414    -278243.12444
  21374848.1454    2552373.82846   2007311.03562
  19720774.660     -221189.050 8   -152514.69224
  20478227.879   -19709997.840 7 -15229824.32222
 91  4 23 22 31 59.9960000  0  4G13G19G 2G 6
  22902120.270     -347744.192 4
  21379132.629     2574873.544 6   2024843.23122
  19718536.723     -232949.646 8   -161678.77424
  20471496.426   -19745361.269 7 -15257380.18922
 91  4 23 22 32 14.9960000  0  4G13G19G 2G 6
  22888896.8404    -417230.58644        -0.25371
  21383421.1914    2597426.33346   2042416.77462
  19716308.309     -244664.952 8   -170807.56524
  20464770.879   -19780705.626 7 -15284921.20423
 91  4 23 22 32 29.9960000  0  4G13G19G 2G 6
  22875676.637     -486690.087 4    -54124.22821
  21387728.590     2620043.883 6   2060040.78522
  19714089.387     -256323.288 8   -179891.96224
  20458053.863   -19816018.860 7 -15312437.95423
 91  4 23 22 32 44.9960000  0  4G13G19G 2G 6
  22862465.363     -556126.011 4   -108229.86221
  21392041.090     2642722.694 6   2077712.53022
  19711881.254     -267928.291 8   -188934.80124
  20451336.707   -19851304.201 7 -15339932.97223
 91  4 23 22 32 59.9960000  0  4G13G19G 2G 6
  22849258.9814    -625534.61644   -162314.16661
  21396367.8714    2665466.11646   2095434.62262
  19709683.848     -279476.612 8   -197933.47324
  20444626.574   -19886558.056 7 -15367403.46023
 91  4 23 22 33 14.9960000  0  4G13G19G 2G 6
  22836056.551     -694917.375 4   -216378.37221
  21400707.9104    2688272.23146   2113205.56762
  19707496.074     -290970.260 8   -206889.53524
  20437926.316   -19921782.250 7 -15394850.82522
 91  4 23 22 33 29.9960000  0  4G13G19G 2G 6
  22822857.6454    -764269.45244   -270418.64861
  21405063.5904    2711145.30546   2131028.68662
  19705320.168     -302404.960 8   -215799.67524
  20431228.691   -19956972.311 7 -15422271.60422
 91  4 23 22 33 44.9960000  0  4G13G19G 2G 6
  22809663.9494    -833593.55844   -324437.10361
  21409427.3404    2734082.29946   2148901.61062
  19703154.582     -313784.015 8   -224666.45424
  20424538.613   -19992131.183 7 -15449668.07223
 91  4 23 22 33 59.9960000  0  4G13G19G 2G 6
  22796477.4264    -902891.36744   -378435.16461
  21413807.6604    2757081.16646   2166822.74562
  19701000.457     -325109.346 8   -233491.37124
  20417853.637   -20027260.548 7 -15477041.55923
 91  4 23 22 34 14.9960000  0  5G13G15G19G 2G 6
  22783295.645     -972159.675 4   -432410.11821
  23117279.4414         -0.91055
  21418191.5984    2780144.74246   2184794.30462
  19698854.856     -336378.269 8   -242272.33124
  20411175.520   -20062357.394 7 -15504389.69923
 91  4 23 22 34 29.9960000  0  5G13G15G19G 2G 6
  22770118.035    -1041407.477 4   -486369.14921
  23110971.1604     -33152.87045
  21422589.9574    2803263.71146   2202809.02362
  19696719.996     -347600.111 8   -251016.60124
  20404498.465   -20097430.908 7 -15531719.65723
 91  4 23 22 34 44.9960000  0  5G13G15G19G 2G 6
  22756944.6914   -1110629.91044   -540308.44161
  23104677.379      -66221.101 5
  21427001.6604    2826442.48346   2220870.35062
  19694593.981     -358770.625 8   -259720.88224
  20397831.449   -20132476.387 7 -15559027.77623
 91  4 23 22 34 59.9960000  0  5G13G15G19G 2G 6
  22743778.402    -1179822.417 3   -594224.36121
  23098401.8564     -99201.12645
  21431423.5514    2849685.11546   2238981.43461
  19692479.129     -369885.744 8   -268381.99524
  20391167.910   -20167489.506 7 -15586310.67523
 91  4 23 22 35 14.9960000  0  5G13G15G19G 2G 6
  22730617.6684   -1248984.77244   -648116.80361
  23092145.6214    -132092.64545        -0.49471
  21435859.0514    2872991.45946   2257142.15562
  19690374.176     -380945.701 8   -277000.12224
  20384511.309   -20202470.350 7 -15613568.42623
 91  4 23 22 35 29.9960000  0  5G13G15G19G 2G 6
  22717460.3874   -1318121.14244   -701988.98161
  23085901.566     -164899.917 5    -25564.47721
  21440305.527     2896356.973 6   2275348.99622
  19688279.223     -391955.036 8   -285578.80624
  20377860.020   -20237423.298 7 -15640804.44223
 91  4 23 22 35 44.9960000  0  5G13G15G19G 2G 6
  22704310.168    -1387230.089 5   -755839.83221
  23079672.8874    -197621.67945    -51061.78361
  21444765.0354    2919782.83246   2293602.85061
  19686194.902     -402912.841 8   -294117.33424
  20371214.176   -20272346.833 7 -15668017.53923
 91  4 23 22 35 59.9960000  0  5G13G15G19G 2G 6
  22691165.832    -1456306.308 5   -809665.15921
  23073463.371     -230252.535 5    -76488.25721
  21449234.5204    2943273.95546   2311907.56361
  19684119.270     -413814.246 8   -302611.92124
  20364574.668   -20307235.758 7 -15695203.66723
 91  4 23 22 36 14.9960000  0  5G13G15G19G 2G 6
  22678022.9494   -1525357.67944   -863471.12861
  23067269.738     -262800.472 5   -101850.13321
  21453715.4264    2966821.85746   2330256.51561
  19682054.543     -424667.577 8   -311069.04224
  20357940.449   -20342098.265 7 -15722369.21523
 91  4 23 22 36 29.9960000  0  5G13G15G19G 2G 6
  22664890.5434   -1594374.64144   -917250.25761
  23061091.1064    -295256.33645   -127140.26561
  21458209.3324    2990435.60646   2348656.77561
  19680000.113     -435463.818 8   -319481.68024
  20351314.191   -20376925.120 7 -15749506.97723
 91  4 23 22 36 44.9960000  0  5G13G15G19G 2G 6
  22651762.3484   -1663365.51544   -971009.14261
  23054936.246     -327628.363 5   -152365.05821
  21462714.395     3014106.469 6   2367101.54321
  19677954.215     -446211.634 8   -327856.58224
  20344690.9654  -20411724.94447 -15776623.68063
 91  4 23 22 36 59.9960000  0  5G13G15G19G 2G 6
  22638641.824    -1732315.395 5  -1024736.03421
  23048792.723     -359901.530 5   -177512.82121
  21467231.0984    3037849.04146   2385602.19161
  19675921.410     -456896.645 8   -336182.54724
  20338077.7704  -20446482.75847 -15803707.64663
 91  4 23 22 37 14.9960000  0  5G13G15G19G 2G 6
  22625526.5274   -1801232.56745  -1078437.40661
  23042666.6994    -392084.07045   -202589.96261
  21471763.5124    3061654.77946   2404152.05561
  19673898.121     -467527.611 8   -344466.40024
  20331469.5204  -20481207.08247 -15830765.52363
 91  4 23 22 37 29.9960000  0  5G13G15G19G 2G 6
  22612417.0904   -1870119.73445  -1132115.48961
  23036563.176     -424178.811 5   -227598.67921
  21476305.3014    3085520.44846   2422748.61661
  19671884.496     -478107.674 8   -352710.59024
  20324868.0594  -20515900.77547 -15857799.52863
 91  4 23 22 37 44.9960000  0  5G13G15G19G 2G 6
  22599314.941    -1938976.191 5  -1185769.54721
  23030468.5354    -456185.26045   -252538.64461
  21480856.8714    3109446.31046   2441392.07861
  19669881.527     -488636.646 8   -360914.96424
  20318270.8014  -20550563.34447 -15884809.28863
 91  4 23 22 37 59.9960000  0  5G13G15G19G 2G 6
  22586216.121    -2007802.462 5  -1239400.10221
  23024394.3404    -488104.12945   -277410.33161
  21485422.2314    3133431.39246   2460081.68661
  19667886.481     -499115.644 8   -369080.40324
  20311681.4574  -20585195.60347 -15911795.42463
 91  4 23 22 38 14.9960000  0  5G13G15G19G 2G 6
  22573128.0904   -2076590.21645  -1293000.63561
  23018342.2544    -519927.18245   -302207.39161
  21489997.7464    3157483.40946   2478823.44961
  19665904.559     -509536.787 8   -377200.76024
  20305097.0044  -20619789.44347 -15938751.62263
 91  4 23 22 38 29.9960000  0  5G13G15G19G 2G 6
  22560042.676    -2145345.466 5  -1346575.87221
  23012301.7074    -551660.33145   -326934.37461
  21494586.1844    3181596.04646   2497612.45261
  19663930.606     -519906.441 8   -385280.98924
  20298520.8244  -20654350.99147 -15965682.65863
 91  4 23 22 38 44.9960000  0  5G13G15G19G 2G 6
  22546965.0824   -2214068.68345  -1400126.15461
  23006280.426     -583304.122 5   -351591.70021
  21499185.6604    3205768.46546   2516448.04261
  19661966.934     -530225.413 8   -393321.73124
  20291949.3404  -20688881.00747 -15992589.12563
 91  4 23 22 38 59.9960000  0  5G13G15G19G 2G 6
  22533894.520    -2282754.411 5  -1453647.19921
  23000275.8564    -614853.09145   -376175.20661
  21503798.996     3230005.807 6   2535334.21321
  19660014.418     -540488.814 8   -401319.16624
  20285386.8404  -20723374.03047 -16019466.76463
 91  4 23 22 39 14.9960000  0  5G13G15G19G 2G 6
  22520832.1214   -2351406.64045  -1507142.15161
  22994286.926     -646311.507 5   -400688.13321
  21508421.1524    3254303.67946   2554267.55061
  19658071.043     -550701.157 8   -409276.81624
  20278828.5984  -20757834.15447 -16046318.77063
 91  4 23 22 39 29.9960000  0  5G13G15G19G 2G 6
  22507774.793    -2420018.634 5  -1560605.76321
  22988321.6844    -677672.65745   -425125.25861
  21513058.5824    3278668.29346   2573252.89462
  19656138.090     -560856.297 8   -417189.89524
  20272278.2544  -20792255.02747 -16073140.19463
 91  4 23 22 39 44.9960000  0  5G13G15G19G 2G 6
  22494723.7154   -2488601.10745  -1614046.32461
  22982370.4024    -708947.27345   -449494.98361
  21517705.090     3303088.680 6   2592281.68621
  19654214.520     -570965.211 8   -425066.95124
  20265733.8954  -20826647.52947 -16099939.50763
 91  4 23 22 39 59.9960000  0  5G13G15G19G 2G 6
  22481678.426    -2557143.491 5  -1667455.67321
  22976436.9734    -740124.80245   -473789.00061
  21522365.809     3327575.002 6   2611361.86621
  19652301.934     -581017.908 8   -432900.20124
  20259197.3954  -20861001.12947 -16126708.51263
 91  4 23 22 40 14.9960000  0  5G13G15G19G 2G 6
  22468642.1214   -2625649.06845  -1720836.30561
  22970525.2934    -771208.69845   -498010.10361
  21527036.1994    3352123.43046   2630490.44461
  19650399.090     -591018.123 8   -440692.55724
  20252666.5824  -20895319.43047 -16153450.00663
 91  4 23 22 40 29.9960000  0  5G13G15G19G 2G 6
  22455613.207    -2694118.660 5  -1774188.93221
  22964623.723     -802199.636 5   -522158.79321
  21531721.559     3376732.851 6   2649666.54621
  19648505.324     -600966.982 7   -448444.89724
  20246141.4964  -20929603.32747 -16180164.69763
 91  4 23 22 40 44.9960000  0  5G13G15G19G 2G 6
  22442589.5904   -2762548.23645  -1827510.35561
  22958741.0664    -833093.78645   -546232.01061
  21536414.676     3401406.735 6   2668892.87221
  19646622.746     -610860.970 8   -456154.48124
  20239625.6914  -20963848.97747 -16206849.58163
 91  4 23 22 40 59.9960000  0  5G13G15G19G 2G 6
  22429578.2234   -2830939.19645  -1880801.71461
  22952884.981     -863892.875 5   -570231.17321
  21541124.7464    3426143.13646   2688167.91861
  19644750.059     -620702.038 8   -463822.82424
  20233114.6064  -20998058.27147 -16233506.14363
 91  4 23 22 41 14.9960000  0  5G13G15G19G 2G 6
  22416566.3324   -2899295.98245  -1934066.42061
  22947042.270     -894601.092 5   -594159.55421
  21545840.918     3450937.320 6   2707487.99621
  19642886.316     -630495.152 8   -471453.80424
  20226611.7384  -21032235.44147 -16260137.66763
 91  4 23 22 41 29.9960000  0  5G13G15G19G 2G 6
  22403566.8484   -2967619.32945  -1987305.05461
  22941215.473     -925219.550 5   -618017.96721
  21550570.3564    3475787.96946   2726852.06061
  19641032.082     -640241.547 8   -479048.37924
  20220112.6684  -21066381.73347 -16286745.13363
 91  4 23 22 41 44.9960000  0  5G13G15G19G 2G 6
  22390572.8484   -3035903.88945  -2040513.49461
  22935407.4264    -955742.72545   -641802.14461
  21555310.715     3500700.138 6   2746264.06621
  19639186.512     -649936.268 8   -486602.69124
  20213623.0434  -21100491.78947 -16313324.36263
 91  4 23 22 41 59.9960000  0  5G13G15G19G 2G 6
  22377585.301    -3104146.171 5  -2093688.97521
  22929612.770     -986167.184 5   -665509.42021
  21560066.4024    3525676.98446   2765726.47261
  19637352.356     -659576.352 8   -494114.42624
  20207140.5354  -21134562.26247 -16339872.74563
 91  4 23 22 42 14.9960000  0  5G13G15G19G 2G 6
  22364609.6214   -3172343.61445  -2146829.49361
  22923845.051    -1016490.573 5   -689137.89321
  21564829.051     3550720.575 6   2785240.88421
  19635528.613     -669159.649 8   -501581.90624
  20200663.8324  -21168590.79047 -16366388.44663
 91  4 23 22 42 29.9960000  0  5G13G15G19G 2G 6
  22351640.4104   -3240504.18345  -2199941.30261
  22918092.6524   -1046720.52545   -712693.58461
  21569605.965     3575822.629 6   2804800.85321
  19633714.152     -678694.480 8   -509011.62824
  20194195.7854  -21202585.47547 -16392877.77663
 91  4 23 22 42 44.9960000  0  5G13G15G19G 2G 6
  22338674.254    -3308624.716 5  -2253021.91021
  22912356.738    -1076854.324 5   -736174.36121
  21574395.441     3600985.864 6   2824408.49621
  19631909.004     -688178.091 8   -516401.43624
  20187733.3634  -21236543.16647 -16419338.27763
 91  4 23 22 42 59.9960000  0  5G13G15G19G 2G 6
  22325718.6374   -3376706.68045  -2306072.43061
  22906642.801    -1106893.203 5   -759581.13021
  21579196.246     3626208.472 6   2844062.40121
  19630113.988     -697612.353 8   -523752.78624
  20181278.1454  -21270465.57647 -16445771.28863
 91  4 23 22 43 14.9960000  0  5G13G15G19G 2G 6
  22312770.0514   -3444750.73545  -2359093.43661
  22900944.9574   -1136838.03245   -782914.66461
  21584004.113     3651489.352 6   2863761.71221
  19628327.371     -706998.312 8   -531066.49924
  20174829.9344  -21304353.48047 -16472177.41063
 91  4 23 22 43 29.9960000  0  5G13G15G19G 2G 6
  22299830.8014   -3512750.37845  -2412079.85461
  22895263.8164   -1166682.73045   -806170.15661
  21588828.121     3676834.354 6   2883510.98921
  19626552.316     -716330.323 8   -538338.17324
  20168388.5514  -21338200.85347 -16498551.94863
 91  4 23 22 43 44.9960000  0  5G13G15G19G 2G 6
  22286897.1064   -3580707.37345  -2465033.03661
  22889604.7234   -1196429.30445   -829349.17261
  21593662.988     3702241.188 6   2903308.44421
  19624786.410     -725610.614 8   -545569.55324
  20161955.5744  -21372009.66847 -16524896.44163
 91  4 23 22 43 59.9960000  0  5G13G15G19G 2G 6
  22273972.3874   -3648622.64945  -2517953.66561
  22883963.168    -1226078.378 5   -852452.24021
  21598509.082     3727708.689 6   2923153.17221
  19623030.348     -734840.483 8   -552761.63924
  20155528.5124  -21405781.00347 -16551211.72563
 91  4 23 22 44 14.9960000  0  5G13G15G19G 2G 6
  22261055.012    -3716502.360 5  -2570846.60521
  22878334.3634   -1255636.04045   -875484.07161
  21603365.871     3753230.369 6   2943040.11921
  19621282.324     -744026.465 8   -559919.52624
  20149107.2934  -21439520.92647 -16577502.53663
 91  4 23 22 44 29.9960000  0  5G13G15G19G 2G 6
  22248146.066    -3784334.615 5  -2623702.58921
  22872731.2934   -1285091.02545   -898435.87661
  21608237.231     3778817.449 5   2962978.02821
  19619544.410     -753157.390 8   -567034.51324
  20142694.7544  -21473217.77147 -16603759.77863
 91  4 23 22 44 44.9960000  0  5G13G15G19G 2G 6
  22235248.6914   -3852119.96545  -2676521.98861
  22867143.809    -1314443.469 5   -921307.80021
  21613115.731     3804469.153 6   2982966.28921
  19617817.004     -762233.923 8   -574107.12124
  20136291.3874  -21506872.40347 -16629984.12763
 91  4 23 22 44 59.9960000  0  5G13G15G19G 2G 6
  22222360.8634   -3919856.35945  -2729303.25861
  22861580.168    -1343691.543 5   -944098.38421
  21618013.7074    3830187.13845   3003006.20761
  19616100.566     -771254.565 8   -581136.16824
  20129894.793   -21540482.916 7 -16656174.09723
 91  4 23 22 45 14.9960000  0  5G13G15G19G 2G 6
  22209475.363    -3987550.943 5  -2782051.98221
  22856035.9574   -1372842.35045   -966813.18261
  21622915.285     3855963.997 6   3023091.99121
  19614393.457     -780226.718 8   -588127.44424
  20123505.9344  -21574056.16747 -16682335.03063
 91  4 23 22 45 29.9960000  0  5G13G15G19G 2G 6
  22196604.0204   -4055198.05745  -2834763.70161
  22850508.3404   -1401890.54045   -989448.02061
  21627833.356     3881804.688 6   3043227.51821
  19612696.691     -789145.394 8   -595077.04624
  20117125.1454  -21607587.09147 -16708462.98263
 91  4 23 22 45 44.9960000  0  5G13G15G19G 2G 6
  22183738.0514   -4122804.87945  -2887444.01261
  22844996.5744   -1430843.12645  -1012008.36761
  21632761.7464    3907701.67246   3063406.91461
  19611006.481     -798018.231 8   -601990.92824
  20110751.160   -21641083.017 7 -16734563.66523
 91  4 23 22 45 59.9960000  0  5G13G15G19G 2G 6
  22170880.590    -4190364.951 5  -2940087.90721
  22839507.3094   -1459693.81645  -1034489.30261
  21637705.215     3933660.925 6   3083634.82321
  19609328.746     -806839.193 8   -608864.38724
  20104385.0354  -21674537.52647 -16760632.07063
 91  4 23 22 46 14.9960000  0  5G13G15G19G 2G 6
  22158033.973    -4257875.713 5  -2992693.35721
  22834036.1064   -1488440.14145  -1056888.90761
  21642653.348     3959684.783 6   3103913.07221
  19607660.809     -815606.097 8   -615695.72624
  20098026.8794  -21707948.13947 -16786666.27363
 91  4 23 22 46 29.9960000  0  5G13G15G19G 2G 6
  22145195.090    -4325343.293 5  -3045265.18821
  22828584.1914   -1517088.24145  -1079211.97561
  21647620.340     3985766.446 5   3124236.37321
  19606001.309     -824325.536 8   -622490.08024
  20091676.4574  -21741321.38547 -16812671.35963
 91  4 23 22 46 44.9960000  0  5G13G15G19G 2G 6
  22132368.7234   -4392757.30945  -3097795.26161
  22823152.8954   -1545628.14845  -1101450.74461
  21652593.582     4011915.902 6   3144612.49421
  19604353.004     -832987.630 8   -629239.74924
  20085335.856   -21774647.009 7 -16838639.33923
 91  4 23 22 46 59.9960000  0  5G13G15G19G 2G 6
  22119547.7704   -4460124.48345  -3150288.85661
  22817741.2544   -1574066.69345  -1123610.52261
  21657578.871     4038125.987 6   3165035.86321
  19602714.020     -841599.668 8   -635950.41224
  20079002.2384  -21807931.89247 -16864575.57063
 91  4 23 22 47 14.9960000  0  5G13G15G19G 2G 6
  22106735.7774   -4527446.07245  -3202746.92961
  22812346.1994   -1602405.15245  -1145692.31561
  21662578.9654    4064395.00246   3185505.15161
  19601084.262     -850163.499 8   -642623.51224
  20072674.6844  -21841177.45447 -16890481.16263
 91  4 23 22 47 29.9960000  0  5G13G15G19G 2G 6
  22093935.6764   -4594718.07145  -3255166.32561
  22806973.160    -1630639.454 5  -1167692.94521
  21667591.215     4090726.484 6   3206023.11621
  19599464.777     -858675.385 8   -649256.13724
  20066355.848   -21874379.927 7 -16916353.17823
 91  4 23 22 47 44.9960000  0  5G13G15G19G 2G 6
  22081139.348    -4661945.880 5  -3307551.32621
  22801618.9964   -1658775.21945  -1189616.78761
  21672611.559     4117114.513 6   3226585.14121
  19597854.8714    -867141.09248   -655852.77964
  20060044.3794  -21907544.72647 -16942195.84263
 91  4 23 22 47 59.9960000  0  5G13G15G19G 2G 6
  22068355.707    -4729129.194 5  -3359901.64221
  22796287.5274   -1686812.17845  -1211463.65461
  21677645.3164    4143559.13946   3247191.26861
  19596251.879     -875560.730 8   -662413.52524
  20053742.1684  -21940671.60747 -16968008.95563
 91  4 23 22 48 14.9960000  0  5G13G15G19G 2G 6
  22055581.9814   -4796262.26645  -3412212.80361
  22790970.348    -1714744.709 5  -1233229.15421
  21682686.926     4170065.855 6   3267845.77521
  19594659.3094    -883929.31748   -668934.49164
  20047446.0664  -21973755.04747 -16993788.21863
 91  4 23 22 48 29.9960000  0  5G13G15G19G 2G 6
  22042816.590    -4863346.139 5  -3464485.65521
  22785675.941    -1742573.936 5  -1254914.14221
  21687743.910     4196632.865 6   3288547.26921
  19593075.691     -892248.360 8   -675416.85024
  20041158.5984  -22006796.49947 -17019534.76463
 91  4 23 22 48 44.9960000  0  5G13G15G19G 2G 6
  22030061.5204   -4930378.41945  -3516718.27561
  22780398.223    -1770297.620 5  -1276516.90521
  21692810.582     4223262.300 5   3309297.40221
  19591502.145     -900515.598 8   -681858.84224
  20034879.8164  -22039793.53047 -17045246.69963
 91  4 23 22 48 59.9960000  0  5G13G15G19G 2G 6
  22017313.4264   -4997357.01945  -3568909.07561
  22775145.1764   -1797913.63145  -1298035.75161
  21697890.387     4249956.065 5   3330097.65421
  19589940.1764    -908729.27148   -688259.09764
  20028608.3954  -22072743.96347 -17070922.32263
 91  4 23 22 49 14.9960000  0  5G13G15G19G 2G 6
  22004577.199    -5064282.524 5  -3621058.52221
  22769907.637    -1825422.676 5  -1319471.26121
  21702981.731     4276712.924 6   3350947.07321
  19588386.395     -916890.710 8   -694618.64924
  20022347.1914  -22105648.85747 -17096562.46663
 91  4 23 22 49 29.9960000  0  5G13G15G19G 2G 6
  21991851.543    -5131154.793 5  -3673166.46921
  22764693.8634   -1852824.87845  -1340823.52361
  21708087.395     4303532.350 6   3371845.24921
  19586843.3874    -925000.14548   -700937.67764
  20016093.0044  -22138508.22747 -17122167.13563
 91  4 23 22 49 44.9960000  0  5G13G15G19G 2G 6
  21979135.9414   -5197973.25445  -3725232.52461
  22759499.1844   -1880119.88245  -1362092.26561
  21713201.262     4330414.501 6   3392792.30521
  19585309.4964    -933057.59948   -707216.20364
  20009850.1764  -22171321.77647 -17147736.09663
 91  4 23 22 49 59.9960000  0  5G13G15G19G 2G 6
  21966429.746    -5264749.526 5  -3777265.66921
  22754325.3634   -1907319.30745  -1383286.52361
  21718327.949     4357347.463 6   3413778.94421
  19583784.6214    -941075.00748   -713463.52464
  20003612.4414  -22204101.12447 -17173278.40963
 91  4 23 22 50 14.9960000  0  5G13G15G19G 2G 6
  21953732.0124   -5331466.84645  -3829252.87461
  22749171.1374   -1934406.39145  -1404393.22661
  21723464.215     4384347.468 6   3434817.83721
  19582268.5824    -949036.28348   -719667.10864
  19997383.8404  -22236829.64047 -17198781.11563
 91  4 23 22 50 29.9960000  0  5G13G15G19G 2G 6
  21941046.785    -5398133.264 5  -3881200.43921
  22744031.4734   -1961389.25245  -1425418.75061
  21728614.262     4411406.018 6   3455902.34621
  19580763.270     -956949.860 8   -725833.51924
  19991164.1844  -22269515.59247 -17224250.65063
 91  4 23 22 50 44.9960000  0  5G13G15G19G 2G 6
  21928369.918    -5464742.608 5  -3933103.53921
  22738919.684    -1988261.732 5  -1446358.22821
  21733776.340     4438529.178 6   3477037.20321
  19579267.8244    -964809.89148   -731958.20964
  19984953.6064  -22302152.86647 -17249682.25663
 91  4 23 22 50 59.9960000  0  5G13G15G19G 2G 6
  21915705.910    -5531294.855 5  -3984962.11821
  22733830.5744   -2015023.84145  -1467211.73261
  21738947.707     4465716.404 6   3498221.98221
  19577782.6844    -972616.73048   -738041.45064
  19978752.0204  -22334741.42847 -17275075.90563
 91  4 23 22 51 14.9960000  0  5G13G15G19G 2G 6
  21903050.168    -5597799.722 5  -4036783.80821
  22728752.121    -2041685.907 5  -1487987.29621
  21744133.434     4492957.165 6   3519448.47521
  19576304.9814    -980380.74248   -744091.31864
  19972557.9184  -22367291.52047 -17300439.57463
 91  4 23 22 51 29.9960000  0  5G13G15G19G 2G 6
  21890405.9734   -5664249.27345  -4088562.38161
  22723697.3324   -2068239.74345  -1508678.47361
  21749329.676     4520259.154 5   3540722.67821
  19574837.637     -988094.628 8   -750102.12124
  19966372.254   -22399795.185 7 -17325767.06623
 91  4 23 22 51 44.9960000  0  5G13G15G19G 2G 6
  21877772.184    -5730647.080 5  -4140300.65021
  22718671.285    -2094689.033 5  -1529288.21821
  21754535.0274    4547618.38346   3562041.47461
  19573377.8484    -995762.08448   -756076.75164
  19960195.1844  -22432256.18947 -17351061.31663
 91  4 23 22 51 59.9960000  0  5G13G15G19G 2G 6
  21865144.293    -5796994.109 5  -4191999.33321
  22713654.9414   -2121035.12345  -1549817.56861
  21759749.957     4575033.445 5   3583403.77921
  19571927.8324   -1003384.58948   -762016.35864
  19954026.9264  -22464675.63747 -17376323.18863
 91  4 23 22 52 14.9960000  0  5G13G15G19G 2G 6
  21852530.6134   -5863285.14945  -4243654.39061
  22708657.816    -2147272.691 5  -1570262.33221
  21764979.582     4602509.300 5   3604813.46421
  19570485.926    -1010957.491 8   -767917.30524
  19947866.2464  -22497048.50347 -17401548.76363
 91  4 23 22 52 29.9960000  0  5G13G15G19G 2G 6
  21839924.270    -5929522.166 5  -4295267.37821
  22703689.7314   -2173403.78745  -1590624.13961
  21770219.559     4630043.503 5   3626268.60321
  19569054.410    -1018483.018 8   -773781.34224
  19941714.4344  -22529376.79047 -17426739.60263
 91  4 23 22 52 44.9960000  0  5G13G15G19G 2G 6
  21827331.152    -5995695.910 5  -4346831.03721
  22698738.887    -2199419.316 5  -1610895.89021
  21775472.4884    4657644.82645   3647776.04761
  19567633.449    -1025952.381 8   -779601.60624
  19935573.0984  -22561651.29347 -17451888.53263
 91  4 23 22 52 59.9960000  0  5G13G15G19G 2G 6
  21814751.840    -6061807.800 5  -4398346.52921
  22693806.676    -2225320.871 5  -1631078.81521
  21780737.184     4685311.375 5   3669334.30421
  19566221.7074   -1033367.57348   -785379.67364
  19929440.9814  -22593873.83247 -17476996.97263
 91  4 23 22 53 14.9960000  0  5G13G15G19G 2G 6
  21802181.606    -6127865.844 5  -4449820.03321
  22688901.5434   -2251116.29745  -1651179.03961
  21786011.4574    4713034.81145   3690936.89161
  19564819.8714   -1040736.93048   -791122.01664
  19923316.3564  -22626052.35447 -17502071.11163
 91  4 23 22 53 29.9960000  0  5G13G15G19G 2G 6
  21789622.9884   -6193863.05445  -4501246.16461
  22684014.762    -2276798.845 5  -1671191.33721
  21791301.6064    4740821.55845   3712588.80561
  19563427.441    -1048054.036 8   -796823.64324
  19917203.3874  -22658180.10347 -17527105.68463
 91  4 23 22 53 44.9960000  0  5G13G15G19G 2G 6
  21777074.215    -6259801.278 5  -4552626.30821
  22679142.559    -2302370.578 5  -1691117.26621
  21796599.473     4768669.464 5   3734288.38621
  19562043.645    -1055321.015 8   -802486.20624
  19911098.3874  -22690259.02347 -17552102.21163
 91  4 23 22 53 59.9960000  0  5G13G15G19G 2G 6
  21764534.895    -6325686.087 5  -4603964.83021
  22674300.1214   -2327837.16845  -1710961.26561
  21801909.5044    4796572.23945   3756030.71461
  19560669.879    -1062544.091 8   -808114.56324
  19905003.4814  -22722295.00847 -17577065.27963
 91  4 23 22 54 14.9960000  0  5G13G15G19G 2G 6
  21752008.801    -6391516.208 5  -4655260.74721
  22669476.9024   -2353197.54145  -1730722.51561
  21807229.1844    4824530.88245   3777816.57561
  19559303.887    -1069722.295 8   -813707.95224
  19898914.6844  -22754286.63847 -17601993.78163
 91  4 23 22 54 29.9960000  0  5G13G15G19G 2G 6
  21739491.4734   -6457285.83745  -4706509.55461
  22664665.9814   -2378446.17245  -1750396.68261
  21812563.8954    4852550.58045   3799650.02261
  19557948.262    -1076850.208 8   -819262.15324
  19892836.8244  -22786228.52547 -17626883.52663
 91  4 23 22 54 44.9960000  0  5G13G15G19G 2G 6
  21726988.512    -6522995.016 5  -4757711.22421
  22659887.9734   -2403582.72345  -1769983.49961
  21817906.1914    4880631.22045   3821530.94761
  19556600.465    -1083928.158 8   -824777.42224
  19886768.5274  -22818120.57847 -17651734.43963
 91  4 23 22 54 59.9960000  0  5G13G15G19G 2G 6
  21714495.441    -6588651.506 5  -4808871.85121
  22655124.6684   -2428615.12945  -1789489.21061
  21823259.5124    4908764.54245   3843452.91961
  19555260.879    -1090964.488 8   -830260.25724
  19880706.8874  -22849970.77947 -17676552.73663
 91  4 23 22 55 14.9960000  0  5G13G15G19G 2G 6
  21702012.0204   -6654241.18045  -4859980.40761
  22650379.363    -2453529.740 5  -1808903.10921
  21828625.4884    4936963.91045   3865426.36761
  19553933.051    -1097945.832 8   -835700.24624
  19874657.3164  -22881765.34347 -17701327.68163
 91  4 23 22 55 29.9960000  0  5G13G15G19G 2G 6
  21689541.082    -6719771.992 5  -4911043.11221
  22645663.3244   -2478334.15445  -1828231.09861
  21834008.0824    4965221.18745   3887444.94361
  19552613.598    -1104880.291 8   -841103.70524
  19868613.8564  -22913512.22447 -17726065.47263
 91  4 23 22 55 44.9960000  0  5G13G15G19G 2G 6
  21677081.3484   -6785251.41945  -4962065.76961
  22640960.0354   -2503036.37145  -1847479.49261
  21839387.1844    4993528.21545   3909502.27561
  19551300.832    -1111776.090 8   -846477.03724
  19862582.1374  -22945219.12347 -17750772.10963
 91  4 23 22 55 59.9950000  0  5G13G15G19G 2G 6
  21664634.226    -6850657.259 5  -5013031.09721
  22636283.437    -2527616.881 5  -1866633.05621
  21844787.8824    5021900.64945   3931610.57061
  19549999.741    -1118615.167 8   -851806.16724
  19856559.2024  -22976866.14747 -17775432.09063
 91  4 23 22 56 14.9950000  0  5G13G15G19G 2G 6
  21652199.249    -6916012.496 6  -5063956.97221
  22631623.4994   -2552093.67745  -1885705.77561
  21850197.437     5050327.419 5   3953761.21921
  19548705.952    -1125413.290 8   -857103.38924
  19850544.921   -23008472.089 7 -17800060.05523
 91  4 23 22 56 29.9950000  0  5G13G15G19G 2G 6
  21639774.4764   -6981305.01946  -5114834.00961
  22626989.858    -2576457.456 5  -1904690.45321
  21855618.7964    5078814.14645   3975958.57861
  19547421.429    -1132162.554 8   -862362.54224
  19844540.3584  -23040027.14247 -17824648.36963
 91  4 23 22 56 44.9950000  0  5G13G15G19G 2G 6
  21627359.265    -7046537.073 5  -5165663.90921
  22622373.8514   -2600710.37445  -1923588.74661
  21861051.2804    5107358.05845   3998200.49461
  19546145.765    -1138865.378 8   -867585.50524
  19838544.9054  -23071533.45747 -17849198.70463
 91  4 23 22 56 59.9950000  0  5G13G15G19G 2G 6
  21614960.3584   -7111706.83646  -5216445.29261
  22617779.7494   -2624850.93545  -1942399.48261
  21866497.030     5135960.601 5   4020488.10421
  19544879.491    -1145520.606 8   -872771.38024
  19832559.3434  -23102989.55147 -17873709.90964
 91  4 23 22 57 14.9950000  0  5G13G15G19G 2G 6
  21602567.944    -7176818.159 6  -5267181.12821
  22613207.6794   -2648882.90745  -1961125.59361
  21871948.5154    5164617.40645   4042817.99061
  19543621.194    -1152132.690 8   -877923.64024
  19826581.1014  -23134399.43147 -17898185.10064
 91  4 23 22 57 29.9950000  0  5G13G15G19G 2G 6
  21590189.687    -7241865.391 6  -5317867.03221
  22608655.319    -2672800.338 5  -1979762.47121
  21877415.3434    5193333.90145   4065194.37961
  19542372.233    -1158696.172 8   -883038.02824
  19820614.5074  -23165757.29747 -17922619.75964
 91  4 23 22 57 44.9950000  0  5G13G15G19G 2G 6
  21577823.226    -7306849.563 6  -5368503.79221
  22604120.2264   -2696604.79445  -1998311.30661
  21882887.9374    5222108.44845   4087616.01061
  19541132.257    -1165212.704 8   -888115.83224
  19814657.7264  -23197064.54747 -17947014.98263
 91  4 23 22 57 59.9950000  0  5G13G15G19G 2G 6
  21565468.6944   -7371772.62546  -5419092.93361
  22599614.5464   -2720298.19445  -2016773.60361
  21888375.0384    5250938.63445   4110080.99761
  19539900.632    -1171684.656 8   -893158.89624
  19808708.2884  -23228323.29347 -17971372.40864
 91  4 23 22 58 14.9950000  0  5G13G15G19G 2G 6
  21553128.054    -7436629.315 6  -5469630.35421
  22595131.7964   -2743875.52045  -2035145.46061
  21893871.2734    5279829.25845   4132593.06961
  19538678.366    -1178106.999 8   -898163.30624
  19802770.6874  -23259528.22447 -17995687.90464
 91  4 23 22 58 29.9950000  0  5G13G15G19G 2G 6
  21540797.5624   -7501425.47246  -5520120.62461
  22590662.390    -2767342.897 5  -2053431.63321
  21899383.648     5308774.142 5   4155147.42621
  19537464.1944   -1184486.07448   -903134.00564
  19796840.2734  -23290685.49847 -18019966.26264
 91  4 23 22 58 44.9950000  0  5G13G15G19G 2G 6
  21528480.4684   -7566153.15046  -5570557.52261
  22586220.5154   -2790692.61545  -2071626.09161
  21904900.4524    5337780.62845   4177749.79761
  19536260.4444   -1190814.55448   -908065.27764
  19790921.7804  -23321787.15947 -18044201.29164
 91  4 23 22 58 59.9950000  0  5G13G15G19G 2G 6
  21516176.4764   -7630810.90546  -5620939.94761
  22581801.812    -2813923.133 6  -2089727.72521
  21910437.179     5366849.692 5   4200400.91221
  19535065.4684   -1197091.27848   -912956.22164
  19785015.2494  -23352832.07647 -18068392.09864
 91  4 23 22 59 14.9950000  0  5G13G15G19G 2G 6
  21503884.0934   -7695401.51546  -5671270.04261
  22577398.733    -2837037.370 5  -2107738.74121
  21915973.7884    5395978.15045   4223098.32061
  19533880.6014   -1203319.49648   -917809.36664
  19779118.6324  -23383823.20747 -18092540.99764
 91  4 23 22 59 29.9950000  0  5G13G15G19G 2G 6
  21491605.5624   -7759929.39046  -5721551.26661
  22573021.0854   -2860040.12945  -2125662.86261
  21921524.476     5425161.110 5   4245838.18421
  19532704.3824   -1209504.14048   -922628.56164
  19773230.1084  -23414764.91847 -18116651.38463
 91  4 23 22 59 44.9950000  0  5G13G15G19G 2G 6
  21479339.6084   -7824384.85246  -5771776.05361
  22568673.5624   -2882921.70846  -2143492.56361
  21927092.1164    5454407.74145   4268627.66961
  19531537.2334   -1215635.99648   -927406.62264
  19767352.7334  -23445647.79847 -18140715.93164
 91  4 23 22 59 59.9950000  0  5G13G15G19G 2G 6
  21467085.9294   -7888775.84546  -5821950.61061
  22564338.343    -2905690.186 5  -2161234.16121
  21932669.999     5483709.753 5   4291460.31421
  19530378.7494   -1221723.38548   -932150.03263
  19761484.7334  -23476479.72647 -18164740.78263
 91  4 23 23  0 14.9950000  0  5G13G15G19G 2G 6
  21454842.5234   -7953102.86646  -5872075.34661
  22560021.8514   -2928346.03145  -2178887.95661
  21938254.483     5513066.382 5   4314335.51021
  19529228.3194   -1227767.07548   -936859.39164
  19755628.6944  -23507261.32647 -18188726.41163
 91  4 23 23  0 29.9950000  0  5G13G15G19G 2G 6
  21442614.8744   -8017362.20246  -5922147.31761
  22555736.616    -2950885.760 5  -2196451.29021
  21943852.3904    5542480.68545   4337255.65561
  19528087.0154   -1233763.94148   -941532.26364
  19749780.7804  -23537989.14147 -18212670.13364
 91  4 23 23  0 44.9950000  0  5G13G15G19G 2G 6
  21430400.812    -8081549.977 6  -5972163.52521
  22551473.5234   -2973305.52046  -2213921.16761
  21949461.4684    5571956.15545   4360223.45661
  19526955.6874   -1239710.45748   -946165.90664
  19743944.2884  -23568659.38447 -18236568.99064
 91  4 23 23  0 59.9950000  0  5G13G15G19G 2G 6
  21418202.5694   -8145661.62746  -6022120.41661
  22547222.4604   -2995600.95645  -2231294.14761
  21955085.4294    5601496.86845   4383242.09661
  19525834.0154   -1245602.53748   -950757.12964
  19738120.4684  -23599267.59847 -18260419.51464
 91  4 23 23  1 14.9950000  0  5G13G15G19G 2G 6
  21406013.671    -8209709.746 6  -6072027.81221
  22543004.858    -3017785.043 5  -2248580.34221
  21960715.1244    5631089.66445   4406301.32361
  19524721.4994   -1251453.32648   -955316.17764
  19732303.8824  -23629826.66947 -18284231.74864
 91  4 23 23  1 29.9950000  0  5G13G15G19G 2G 6
  21393838.8044   -8273689.58746  -6121881.98861
  22538807.999    -3039852.642 5  -2265775.80121
  21966357.6634    5660739.25845   4429404.80361
  19523616.5464   -1257258.16648   -959839.41864
  19726499.6404  -23660331.55147 -18308001.75864
 91  4 23 23  1 44.9950000  0  5G13G15G19G 2G 6
  21381676.968    -8337593.832 6  -6171677.28221
  22534629.398    -3061797.014 5  -2282875.23721
  21972012.4524    5690452.35045   4452557.76861
  19522522.405    -1263010.453 8   -964321.70724
  19720706.7654  -23690775.40947 -18331724.21163
 91  4 23 23  1 59.9950000  0  5G13G15G19G 2G 6
  21369530.9054   -8401426.09446  -6221416.47561
  22530473.1714   -3083621.77245  -2299881.44561
  21977676.491     5720224.972 5   4475757.11721
  19521436.3044   -1268714.21848   -968766.19364
  19714923.6324  -23721161.79047 -18355401.88264
 91  4 23 23  2 14.9950000  0  5G13G15G19G 2G 6
  21357396.569    -8465190.645 6  -6271102.91621
  22526349.679    -3105331.388 5  -2316797.94421
  21983352.6714    5750052.31645   4498999.09961
  19520359.7414   -1274373.95048   -973176.36464
  19709150.5304  -23751495.07647 -18379038.17663
 91  4 23 23  2 29.9950000  0  5G13G15G19G 2G 6
  21345275.632    -8528883.693 6  -6320733.63621
  22522237.515    -3126922.200 5  -2333621.88721
  21989040.1794    5779937.55145   4522286.19161
  19519292.3744   -1279986.41948   -977549.71164
  19703390.335   -23781771.762 7 -18402630.38323
 91  4 23 23  2 44.9950000  0  5G13G15G19G 2G 6
  21333169.1714   -8592507.39246  -6370310.30861
  22518150.663    -3148396.694 5  -2350355.16321
  21994737.773     5809878.016 5   4545616.32021
  19518232.2494   -1285554.18748   -981888.22264
  19697638.3354  -23811994.05847 -18426180.19563
 91  4 23 23  2 59.9950000  0  5G13G15G19G 2G 6
  21321076.6944   -8656064.24446  -6419834.90861
  22514085.6084   -3169757.14145  -2366999.57161
  22000445.952     5839870.929 5   4568987.31321
  19517179.9914   -1291080.16548   -986194.17064
  19691897.679   -23842164.519 7 -18449689.61923
 91  4 23 23  3 14.9950000  0  5G13G15G19G 2G 6
  21308993.304    -8719544.578 6  -6469299.87021
  22510046.679    -3190994.164 6  -2383547.82021
  22006164.6874    5869925.54345   4592406.39261
  19516138.444    -1296555.142 8   -990460.37324
  19686168.3274  -23872273.60447 -18473151.21663
 91  4 23 23  3 29.9950000  0  5G13G15G19G 2G 6
  21296928.796    -8782948.960 6  -6518705.65221
  22506026.0074   -3212108.74945  -2400000.68161
  22011896.155     5900040.721 5   4615872.65021
  19515106.2024   -1301980.26848   -994687.73364
  19680449.9294  -23902322.20747 -18496565.68263
 91  4 23 23  3 44.9950000  0  5G13G15G19G 2G 6
  21284875.8514   -8846277.88546  -6568052.65961
  22502027.3194   -3233101.51145  -2416358.59261
  22017636.6084    5930215.59645   4639385.44761
  19514083.1164   -1307356.27948   -998876.82264
  19674743.5074  -23932310.78047 -18519933.37563
 91  4 23 23  3 59.9950000  0  5G13G15G19G 2G 6
  21272841.0074   -8909531.04646  -6617340.61561
  22498060.6404   -3253972.06345  -2432621.26761
  22023393.710     5960450.306 5   4662944.85221
  19513068.8584   -1312683.21948  -1003027.67664
  19669048.343   -23962238.947 7 -18543253.99923
 91  4 23 23  4 14.9950000  0  5G13G15G19G 2G 6
  21260818.2104   -8972706.19246  -6666567.77761
  22494113.0154   -3274718.16845  -2448787.00561
  22029156.476     5990746.379 5   4686552.07721
  19512065.1014   -1317959.28948  -1007138.88964
  19663365.8824  -23992104.81547 -18566526.07564
 91  4 23 23  4 29.9950000  0  5G13G15G19G 2G 6
  21248811.8354   -9035801.88146  -6715733.02761
  22490186.944    -3295338.316 5  -2464854.57121
  22034935.288     6021105.073 5   4710208.09221
  19511070.9604   -1323183.36248  -1011209.58164
  19657694.9444  -24021906.64347 -18589748.25163
 91  4 23 23  4 44.9950000  0  5G13G15G19G 2G 6
  21236818.9604   -9098821.84746  -6764839.25961
  22486286.585    -3315836.894 5  -2480827.40321
  22040722.210     6051521.716 5   4733909.26621
  19510085.694    -1328359.944 7  -1015243.26624
  19652034.296   -24051648.808 7 -18612923.93923
 91  4 23 23  4 59.9950000  0  5G13G15G19G 2G 6
  21224839.9374   -9161768.44346  -6813888.34261
  22482411.8124   -3336216.46145  -2496707.51661
  22046522.257     6081993.750 5   4757653.60221
  19509109.108    -1333491.826 7  -1019242.12024
  19646386.1874  -24081333.66747 -18636054.96563
 91  4 23 23  5 14.9950000  0  5G13G15G19G 2G 6
  21212874.9994   -9224636.81046  -6862876.47161
  22478555.5154   -3356472.26045  -2512491.20061
  22052331.1084    6112525.55645   4781444.52261
  19508142.4054   -1338574.27348  -1023202.45464
  19640747.9684  -24110956.28347 -18659137.49263
 91  4 23 23  5 29.9950000  0  5G13G15G19G 2G 6
  21200929.062    -9287423.918 6  -6911801.26421
  22474721.3354   -3376601.20545  -2528176.00061
  22058152.671     6143119.661 5   4805283.97921
  19507185.202    -1343604.717 7  -1027122.26924
  19635124.0234  -24140513.83647 -18682169.31663
 91  4 23 23  5 44.9950000  0  5G13G15G19G 2G 6
  21188995.6944   -9350134.46346  -6960666.40561
  22470917.538    -3396608.033 5  -2543765.64821
  22063986.101     6173770.913 5   4829167.96221
  19506236.5384   -1348588.26848  -1031005.54664
  19629510.0304  -24170011.02647 -18705154.11163
 91  4 23 23  5 59.9950000  0  5G13G15G19G 2G 6
  21177074.648    -9412769.152 6  -7009472.44021
  22467134.999    -3416493.785 5  -2559261.00221
  22069828.757     6204478.350 5   4853095.73121
  19505296.9914   -1353526.01448  -1034853.13164
  19623908.585   -24199448.736 7 -18728092.56123
 91  4 23 23  6 14.9950000  0  5G13G15G19G 2G 6
  21165169.7334   -9475326.87846  -7058218.50461
  22463370.718    -3436257.696 5  -2574661.36121
  22075681.976     6235242.462 5   4877067.64521
  19504365.999    -1358417.420 8  -1038664.59924
  19618318.5774  -24228826.02947 -18750983.92763
 91  4 23 23  6 29.9950000  0  5G13G15G19G 2G 6
  21153281.358    -9537800.813 6  -7106899.27821
  22459635.523    -3455893.131 5  -2589961.63221
  22081550.601     6266069.417 5   4901088.54521
  19503445.249    -1363256.178 8  -1042435.04724
  19612740.3584  -24258136.43547 -18773823.17363
 91  4 23 23  6 44.9950000  0  5G13G15G19G 2G 6
  21141406.3514   -9600199.60246  -7155521.49761
  22455924.108    -3475408.853 5  -2605168.60721
  22087426.851     6296950.379 5   4925151.51721
  19502533.2494   -1368051.27348  -1046171.47464
  19607174.4134  -24287388.58447 -18796617.02563
 91  4 23 23  6 59.9950000  0  5G13G15G19G 2G 6
  21129547.6324   -9662520.45646  -7204082.98461
  22452231.5464   -3494802.09245  -2620280.16761
  22093312.804     6327887.814 5   4949258.50021
  19501629.7494   -1372800.18648  -1049871.91564
  19601619.1944  -24316579.61647 -18819363.25363
 91  4 23 23  7 14.9950000  0  5G13G15G19G 2G 6
  21117703.687    -9724767.171 6  -7252586.69921
  22448558.843    -3514076.716 5  -2635299.28221
  22099209.976     6358877.419 5   4973406.13521
  19500733.9054   -1377507.21748  -1053539.72064
  19596075.3664  -24345713.44247 -18842064.90263
 91  4 23 23  7 29.9950000  0  5G13G15G19G 2G 6
  21105872.8984   -9786928.64246  -7301024.00961
  22444921.757    -3533221.912 5  -2650217.53821
  22105120.8354    6389929.79645   4997602.69061
  19499847.608    -1382161.671 8  -1057166.55724
  19590543.9374  -24374779.03747 -18864713.38963
 91  4 23 23  7 44.9950000  0  5G13G15G19G 2G 6
  21094059.6084   -9849011.20746  -7349399.82361
  22441301.569    -3552244.243 5  -2665040.07621
  22111039.733     6421038.195 5   5021842.90221
  19498970.9294   -1386770.19948  -1060757.60764
  19585025.4914  -24403782.95347 -18887313.81263
 91  4 23 23  7 59.9950000  0  5G13G15G19G 2G 6
  21082260.0624   -9911013.66746  -7397713.22061
  22437702.7574   -3571142.52645  -2679765.95961
  22116973.2414    6452203.19845   5046127.21061
  19498102.9214   -1391332.10348  -1064312.32664
  19579517.7804  -24432723.96647 -18909865.22064
 91  4 23 23  8 14.9950000  0  5G13G15G19G 2G 6
  21070476.288    -9972941.203 6  -7445968.23921
  22434128.1404   -3589922.09945  -2694399.30861
  22122909.694     6483419.282 5   5070451.33021
  19497241.6404   -1395852.90348  -1067835.01964
  19574021.2734  -24461607.49047 -18932371.83164
 91  4 23 23  8 29.9950000  0  5G13G15G19G 2G 6
  21058708.9834  -10034784.39246  -7494157.53161
  22430582.4914   -3608573.84345  -2708933.06961
  22128861.796     6514695.339 5   5094822.18121
  19496391.8664   -1400323.37348  -1071318.49564
  19568536.7574  -24490424.01547 -18954826.23764
 91  4 23 23  8 44.9950000  0  5G13G15G19G 2G 6
  21046955.694   -10096542.911 6  -7542280.84721
  22427054.9054   -3627097.19845  -2723366.80361
  22134825.343     6546031.494 5   5119239.84821
  19495550.4604   -1404743.58948  -1074762.80864
  19563065.8824  -24519173.16047 -18977228.13863
 91  4 23 23  8 59.9950000  0  5G13G15G19G 2G 6
  21035217.921   -10158221.055 6  -7590341.52821
  22423553.6634   -3645496.99645  -2737704.24261
  22140798.694     6577422.857 5   5143700.54721
  19494717.9684   -1409118.63748  -1078171.92964
  19557608.4374  -24547859.86147 -18999581.37763
 91  4 23 23  9 14.9950000  0  5G13G15G19G 2G 6
  21023497.2334  -10219821.73846  -7638341.87361
  22420076.5234   -3663776.21445  -2751947.71861
  22146782.390     6608866.089 5   5168201.66021
  19493893.5694   -1413451.85548  -1081548.45064
  19552160.2264  -24576486.82847 -19021888.07764
 91  4 23 23  9 29.9950000  0  5G13G15G19G 2G 6
  21011788.937   -10281343.261 6  -7686280.53521
  22416621.523    -3681933.284 5  -2766096.04121
  22152779.7414    6640362.49545   5192744.19461
  19493077.4604   -1417741.77148  -1084891.23464
  19546724.5694  -24605052.37347 -19044146.91564
 91  4 23 23  9 44.9950000  0  5G13G15G19G 2G 6
  21000097.0694  -10342779.73446  -7734152.91861
  22413188.1794   -3699962.45845  -2780144.68961
  22158778.804     6671917.532 5   5217332.41921
  19492269.7414   -1421982.94748  -1088196.03464
  19541302.0234  -24633550.65147 -19066353.33564
 91  4 23 23  9 59.9950000  0  5G13G15G19G 2G 6
  20988423.671   -10404131.439 6  -7781959.24121
  22409780.3664   -3717864.33545  -2794094.14961
  22164800.319     6703530.237 5   5241965.59421
  19491472.593    -1426176.123 8  -1091463.43124
  19535890.8744  -24661982.41147 -19088507.92264
 91  4 23 23 10 14.9950000  0  5G13G15G19G 2G 6
  20976764.6404  -10465400.32646  -7829701.04361
  22406401.6794   -3735641.04345  -2807946.06961
  22170823.421     6735198.433 5   5266641.99921
  19490683.0544   -1430323.57748  -1094695.20664
  19530493.1944  -24690349.46647 -19110612.09064
 91  4 23 23 10 29.9950000  0  5G13G15G19G 2G 6
  20965119.077   -10526586.148 6  -7877378.11521
  22403040.2884   -3753292.54945  -2821700.43961
  22176862.444     6766921.638 5   5291361.26221
  19489902.8044   -1434425.63848  -1097891.60564
  19525106.3514  -24718651.84347 -19132665.85764
 91  4 23 23 10 44.9950000  0  5G13G15G19G 2G 6
  20953492.1324  -10587686.61546  -7924988.68561
  22399706.3274   -3770816.66545  -2835355.54261
  22182907.608     6798701.708 5   5316124.85021
  19489130.483    -1438480.099 8  -1101050.91224
  19519733.1944  -24746887.17947 -19154667.39063
 91  4 23 23 10 59.9950000  0  5G13G15G19G 2G 6
  20941883.4684  -10648700.80046  -7972532.02061
  22396395.835    -3788212.453 5  -2848910.64121
  22188969.8274    6830539.36045   5340933.28861
  19488368.296    -1442486.432 8  -1104172.71824
  19514373.7804  -24775054.63447 -19176616.02664
 91  4 23 23 11 14.9950000  0  5G13G15G19G 2G 6
  20930287.4604  -10709635.23646  -8020013.21161
  22393109.194    -3805486.728 5  -2862371.07721
  22195033.968     6862427.478 5   5365781.06021
  19487613.312    -1446451.790 8  -1107262.59324
  19509025.2414  -24803160.86047 -19198516.95064
 91  4 23 23 11 29.9950000  0  5G13G15G19G 2G 6
  20918707.2804  -10770489.77246  -8067432.15161
  22389844.382    -3822639.847 5  -2875737.09021
  22201116.687     6894365.689 5   5390667.86221
  19486866.015    -1450376.622 8  -1110320.89124
  19503689.7964  -24831206.04047 -19220370.30964
 91  4 23 23 11 44.9950000  0  5G13G15G19G 2G 6
  20907143.0154  -10831251.14646  -8114778.48861
  22386604.780    -3839658.417 5  -2888998.27721
  22207202.6484    6926367.19745   5415603.98661
  19486129.460    -1454247.664 8  -1113337.27524
  19498365.6554  -24859176.72047 -19242165.60964
 91  4 23 23 11 59.9950000  0  5G13G15G19G 2G 6
  20895596.6874  -10891925.45446  -8162057.00261
  22383391.030    -3856548.792 5  -2902159.55121
  22213301.4134    6958424.93145   5440583.92461
  19485402.562    -1458071.514 8  -1116316.88124
  19493056.2734  -24887079.11847 -19263907.70564
 91  4 23 23 12 14.9950000  0  5G13G15G19G 2G 6
  20884066.9214  -10952513.63646  -8209268.38661
  22380203.3434   -3873312.12746  -2915221.84861
  22219412.0774    6990537.71145   5465606.74661
  19484682.765    -1461849.657 8  -1119260.87724
  19487758.6634  -24914914.43847 -19285597.53464
 91  4 23 23 12 29.9950000  0  5G13G15G19G 2G 6
  20872555.3904  -11013015.93246  -8256412.85761
  22377034.4444   -3889948.68945  -2928185.36761
  22225535.757     7022704.879 5   5490671.95821
  19483972.937    -1465582.713 8  -1122169.73824
  19482475.3984  -24942682.91647 -19307235.27664
 91  4 23 23 12 44.9950000  0  5G13G15G19G 2G 6
  20861057.741   -11073433.952 6  -8303491.65521
  22373892.976    -3906460.399 5  -2941051.58321
  22231665.1634    7054924.51245   5515778.03861
  19483271.171    -1469272.480 8  -1125044.87124
  19477203.6634  -24970386.13347 -19328822.16764
 91  4 23 23 12 59.9950000  0  5G13G15G19G 2G 6
  20849576.648   -11133762.093 6  -8350500.43321
  22370777.655    -3922841.480 5  -2953816.02221
  22237809.460     7087201.631 5   5540928.92021
  19482578.085    -1472913.698 8  -1127882.16424
  19471945.6244  -24998018.53347 -19350353.87864
 91  4 23 23 13 14.9950000  0  5G13G15G19G 2G 6
  20838113.1484  -11193998.84246  -8397437.98661
  22367685.733    -3939090.894 5  -2966477.85721
  22243961.0934    7119537.28345   5566125.40561
  19481894.944    -1476505.357 8  -1130680.84824
  19466700.1634  -25025578.92847 -19371829.47364
 91  4 23 23 13 29.9950000  0  5G13G15G19G 2G 6
  20826667.554   -11254149.294 6  -8444308.29721
  22364614.257    -3955214.002 5  -2979041.26621
  22250125.4134    7151926.10145   5591363.33061
  19481220.2184   -1480052.93248  -1133445.18164
  19461468.5624  -25053072.26947 -19393252.82464
 91  4 23 23 13 44.9950000  0  5G13G15G19G 2G 6
  20815240.374   -11314207.548 6  -8491106.76021
  22361572.101    -3971204.840 5  -2991501.61721
  22256297.507     7184373.326 5   5616646.75121
  19480554.085    -1483550.924 8  -1136170.87824
  19456250.1554  -25080492.92247 -19414619.53564
 91  4 23 23 13 59.9950000  0  5G13G15G19G 2G 6
  20803827.7264  -11374173.15146  -8537833.03461
  22358557.3514   -3987063.28645  -3003858.78661
  22262485.398     7216879.086 5   5641975.80121
  19479896.9294   -1486999.16948  -1138857.81064
  19451046.4524  -25107840.45247 -19435929.26264
 91  4 23 23 14 14.9950000  0  5G13G15G19G 2G 6
  20792434.765   -11434047.426 6  -8584488.15321
  22355565.562    -4002790.793 5  -3016113.94821
  22268680.3824    7249441.65645   5667349.10761
  19479250.8434   -1490399.72348  -1141507.58064
  19445855.7104  -25135116.27747 -19457183.12064
 91  4 23 23 14 29.9950000  0  5G13G15G19G 2G 6
  20781058.210   -11493828.531 6  -8631070.66621
  22352594.819    -4018385.615 5  -3028265.71621
  22274887.991     7282062.374 4   5692767.73521
  19478612.5934   -1493750.81748  -1144118.81964
  19440680.2334  -25162318.54347 -19478379.66564
 91  4 23 23 14 44.9950000  0  5G13G15G19G 2G 6
  20769699.155   -11553517.634 6  -8677581.48321
  22349650.7734   -4033849.10145  -3040315.11361
  22281106.9054    7314739.71045   5718230.46661
  19477983.3824   -1497053.98048  -1146692.69964
  19435516.8984  -25189448.37947 -19499519.76264
 91  4 23 23 14 59.9950000  0  5G13G15G19G 2G 6
  20758361.765   -11613113.491 6  -8724019.64221
  22346736.062    -4049180.443 5  -3052261.57221
  22287336.1324    7347474.07844   5743737.65961
  19477364.7494   -1500308.66648  -1149228.80864
  19430368.6484  -25216505.03047 -19520602.83664
 91  4 23 23 15 14.9950000  0  5G13G15G19G 2G 6
  20747037.265   -11672612.577 6  -8770382.40521
  22343846.226    -4064376.274 5  -3064102.44021
  22293577.3904    7380268.62744   5769291.71761
  19476755.7654   -1503511.63148  -1151724.61764
  19425234.2654  -25243484.93747 -19541626.10964
 91  4 23 23 15 29.9950000  0  5G13G15G19G 2G 6
  20735731.507   -11732016.093 6  -8816670.69821
  22340976.913    -4079437.700 5  -3075838.57221
  22299827.757     7413122.114 4   5794891.70921
  19476155.1874   -1506664.32648  -1154181.25564
  19420114.8824  -25270389.14747 -19562590.39964
 91  4 23 23 15 44.9950000  0  5G13G15G19G 2G 6
  20724446.030   -11791325.890 6  -8862885.96121
  22338133.093    -4094366.915 5  -3087471.67921
  22306093.0694    7446032.18645   5820535.81061
  19475565.1874   -1509769.04748  -1156600.50664
  19415008.9524  -25297219.74647 -19583497.32764
 91  4 23 23 15 59.9950000  0  5G13G15G19G 2G 6
  20713177.3044  -11850544.30646  -8909030.02261
  22335318.4994   -4109166.52745  -3099003.78761
  22312362.7104    7478996.09545   5846221.84761
  19474982.9604   -1512828.19148  -1158984.24464
  19409916.0934  -25323978.85847 -19604348.55264
 91  4 23 23 16 14.9950000  0  5G13G15G19G 2G 6
  20701925.648   -11909671.237 6  -8955102.79621
  22332529.671    -4123836.584 5  -3110434.94821
  22318648.4764    7512013.28945   5871949.38661
  19474408.0384   -1515842.20448  -1161332.82264
  19404837.7334  -25350666.74547 -19625144.28064
 91  4 23 23 16 29.9950000  0  5G13G15G19G 2G 6
  20690692.937   -11968699.809 6  -9001098.92921
  22329760.8984   -4138370.28245  -3121759.87261
  22324945.835     7545090.234 5   5897723.51721
  19473844.9684   -1518804.70348  -1163641.25564
  19399773.812   -25377276.578 7 -19645879.18724
 91  4 23 23 16 44.9950000  0  5G13G15G19G 2G 6
  20679478.3354  -12027632.81346  -9047020.59261
  22327018.483    -4152771.000 5  -3132981.16121
  22331249.093     7578223.489 5   5923541.50421
  19473291.3354   -1521719.01348  -1165912.14364
  19394724.968   -25403811.411 7 -19666555.65824
 91  4 23 23 16 59.9950000  0  5G13G15G19G 2G 6
  20668280.8904  -12086466.22246  -9092864.65361
  22324308.288    -4167034.507 5  -3144095.53221
  22337564.523     7611416.733 5   5949406.22621
  19472746.2734   -1524581.21948  -1168142.42864
  19389690.882   -25430267.068 7 -19687170.43324
 91  4 23 23 17 14.9950000  0  5G13G15G19G 2G 6
  20657103.101   -12145202.160 6  -9138632.75921
  22321619.812    -4181163.143 5  -3155104.80321
  22343891.0234    7644667.62245   5975315.88161
  19472211.1324   -1527393.79448  -1170334.03664
  19384670.460   -25456645.758 7 -19707725.23024
 91  4 23 23 17 29.9950000  0  5G13G15G19G 2G 6
  20645946.1944  -12203842.00146  -9184325.99161
  22318956.366    -4195158.530 5  -3166010.25821
  22350229.835     7677974.204 5   6001268.94821
  19471684.2024   -1530158.87848  -1172488.64264
  19379665.476   -25482948.979 7 -19728221.22124
 91  4 23 23 17 44.9950000  0  5G13G15G19G 2G 6
  20634803.304   -12262394.947 6  -9229951.51721
  22316314.6634   -4209030.11245  -3176819.22661
  22356575.437     7711326.719 5   6027257.76821
  19471166.6554   -1532885.88848  -1174613.57964
  19374673.413   -25509186.054 7 -19748665.67424
 91  4 23 23 17 59.9950000  0  5G13G15G19G 2G 6
  20623676.4684  -12320854.49446  -9275504.25261
  22313702.218    -4222771.486 5  -3187526.73921
  22362934.265     7744731.396 5   6053287.26621
  19470655.4134   -1535568.63748  -1176704.03164
  19369693.905   -25535350.441 7 -19769053.48624
 91  4 23 23 18 14.9950000  0  5G13G15G19G 2G 6
  20612573.679   -12379211.647 6  -9320977.20921
  22311112.069    -4236374.059 5  -3198126.10821
  22369304.1244    7778196.58145   6079363.90761
  19470154.3124   -1538198.68648  -1178753.42364
  19364729.687   -25561433.584 7 -19789377.99824
 91  4 23 23 18 29.9950000  0  5G13G15G19G 2G 6
  20601485.632   -12437478.214 6  -9366379.58521
  22308547.733    -4249849.704 5  -3208626.55921
  22375679.757     7811710.270 5   6105478.33821
  19469661.8664   -1540787.98648  -1180771.05864
  19359779.780   -25587446.964 7 -19809648.14224
 91  4 23 23 18 44.9950000  0  5G13G15G19G 2G 6
  20590417.7414  -12495645.08346  -9411704.27361
  22306008.5624   -4263189.39045  -3219021.07961
  22382066.6634    7845280.93745   6131637.17761
  19469178.3354   -1543327.79748  -1182750.12564
  19354845.319   -25613381.612 7 -19829856.94324
 91  4 23 23 18 59.9950000  0  5G13G15G19G 2G 6
  20579366.4604  -12553712.87246  -9456951.74761
  22303495.710    -4276393.644 5  -3229310.06321
  22388468.1554    7878907.85145   6157839.83961
  19468704.6014   -1545818.84648  -1184691.19964
  19349924.624   -25639237.945 7 -19850004.71724
 91  4 23 23 19 14.9950000  0  5G13G15G19G 2G 6
  20568334.4684  -12611686.28346  -9502125.68661
  22301009.6554   -4289467.79045  -3239497.68061
  22394875.6404    7912585.44545   6184082.00661
  19468238.9834   -1548266.65848  -1186598.58464
  19345018.546   -25665021.141 7 -19870095.50124
 91  4 23 23 19 29.9950000  0  5G13G15G19G 2G 6
  20557318.273   -12669568.593 6  -9547228.65421
  22298542.616    -4302415.423 5  -3249586.69621
  22401295.015     7946309.944 5   6210360.69521
  19467780.5934   -1550674.78648  -1188475.04664
  19340125.827   -25690734.564 7 -19890131.91624
 91  4 23 23 19 44.9950000  0  5G13G15G19G 2G 6
  20546323.132   -12727349.946 6  -9592252.94121
  22296107.6244   -4315226.64945  -3259569.42761
  22407722.140     7980091.170 5   6236683.60221
  19467330.2734   -1553033.44748  -1190312.96264
  19335247.273   -25716368.075 7 -19910106.06024
 91  4 23 23 19 59.9950000  0  5G13G15G19G 2G 6
  20535347.8584  -12785031.53146  -9637199.47461
  22293694.7734   -4327902.86345  -3269446.96361
  22414163.296     8013927.374 5   6263049.33421
  19466891.7734   -1555344.37748  -1192113.68464
  19330383.569   -25741923.121 7 -19930019.06324
 91  4 23 23 20 14.9950000  0  5G13G15G19G 2G 6
  20524389.179   -12842615.427 6  -9682069.91221
  22291309.3194   -4340446.28545  -3279221.01661
  22420608.796     8047815.992 5   6289455.90921
  19466460.6944   -1557610.13148  -1193879.20164
  19325535.296   -25767401.825 7 -19949872.58324
 91  4 23 23 20 29.9950000  0  5G13G15G19G 2G 6
  20513449.8354  -12900095.67546  -9726859.56361
  22288946.0694   -4352851.21145  -3288887.15661
  22427073.288     8081762.442 4   6315907.54321
  19466038.3664   -1559824.99548  -1195605.06564
  19320702.585   -25792798.372 7 -19969662.08024
 91  4 23 23 20 44.9950000  0  5G13G15G19G 2G 6
  20502532.398   -12957472.207 6  -9771568.41721
  22286611.0544   -4365118.01145  -3298445.65961
  22433543.257     8115766.283 4   6342403.90421
  19465627.3434   -1561989.25748  -1197291.50164
  19315886.132   -25818112.769 7 -19989387.57124
 91  4 23 23 20 59.9950000  0  5G13G15G19G 2G 6
  20491634.273   -13014751.866 6  -9816201.77921
  22284302.726    -4377253.577 5  -3307901.89521
  22440020.4134    8149820.09544   6368939.19961
  19465224.7804   -1564110.23248  -1198944.20764
  19311082.999   -25843351.930 7 -20009054.43024
 91  4 23 23 21 14.9950000  0  5G13G15G19G 2G 6
  20480750.9294  -13071937.71646  -9860762.03461
  22282021.382    -4389261.226 5  -3317258.46021
  22446511.288     8183920.632 4   6395510.90221
  19464828.1714   -1566191.25148  -1200565.78164
  19306294.007   -25868518.992 7 -20028665.10924
 91  4 23 23 21 29.9950000  0  5G13G15G19G 2G 6
  20469889.0304  -13129021.22046  -9905242.54561
  22279760.8194   -4401132.42145  -3326508.71161
  22453011.179     8218076.278 4   6422125.55321
  19464441.2964   -1568224.07748  -1202149.79464
  19301519.116   -25893605.140 7 -20048212.73424
 91  4 23 23 21 44.9950000  0  5G13G15G19G 2G 6
  20459045.140   -13186003.501 6  -9949644.18521
  22277524.101    -4412868.656 5  -3335653.78421
  22459519.773     8252285.275 4   6448781.79421
  19464062.7184   -1570210.42648  -1203697.60164
  19296760.999   -25918611.911 7 -20067698.51224
 91  4 23 23 21 59.9950000  0  5G13G15G19G 2G 6
  20448218.741   -13242892.235 6  -9993972.92921
  22275317.155    -4424477.815 5  -3344699.84921
  22466040.968     8286539.438 4   6475473.20521
  19463692.1404   -1572158.03248  -1205215.21664
  19292015.851   -25943546.819 7 -20087128.29123
 91  4 23 23 22 14.9950000  0  5G13G15G19G 2G 6
  20437411.640   -13299681.373 6 -10038224.06621
  22273133.437    -4435954.176 5  -3353642.42121
  22472565.7104    8320844.29844   6502204.13361
  19463330.6244   -1574061.23548  -1206698.22964
  19287285.577   -25968404.198 7 -20106497.65424
 91  4 23 23 22 29.9950000  0  5G13G15G19G 2G 6
  20426624.0624  -13356366.02046 -10082393.78461
  22270975.655    -4447293.026 5  -3362477.86821
  22479109.163     8355204.197 4   6528977.95921
  19462977.5074   -1575915.90248  -1208143.42564
  19282571.507   -25993179.116 7 -20125802.76923
 91  4 23 23 22 44.9950000  0  5G13G15G19G 2G 6
  20415857.421   -13412951.039 6 -10126485.86921
  22268842.3584   -4458499.47745  -3371210.13761
  22485656.124     8389614.051 4   6555790.67921
  19462632.6404   -1577726.99248  -1209554.66664
  19277871.773   -26017876.425 7 -20145047.40323
 91  4 23 23 22 59.9950000  0  5G13G15G19G 2G 6
  20405107.304   -13469440.643 6 -10170503.59921
  22266732.632    -4469577.683 5  -3379842.47221
  22492211.1874    8424069.23344   6582638.72561
  19462295.8904   -1579499.02948  -1210935.46964
  19273186.538   -26042500.326 7 -20164234.83223
 91  4 23 23 23 14.9950000  0  5G13G15G19G 2G 6
  20394376.710   -13525828.908 6 -10214442.37621
  22264650.085    -4480521.716 5  -3388370.23821
  22498776.202     8458575.210 4   6609526.35721
  19461967.0384   -1581226.29548  -1212281.38964
  19268516.218   -26067044.944 7 -20183360.49023
 91  4 23 23 23 29.9950000  0  5G13G15G19G 2G 6
  20383665.2804  -13582114.58846 -10258301.21561
  22262594.3664   -4491330.91045  -3396792.95561
  22505356.5694    8493132.61444   6636454.04961
  19461646.1714   -1582908.07248  -1213591.86764
  19263859.562   -26091509.159 7 -20202423.49623
 91  4 23 23 23 44.9950000  0  5G13G15G19G 2G 6
  20372973.491   -13638302.087 6 -10302083.53821
  22260562.7654   -4502009.87645  -3405114.20261
  22511936.5464    8527736.78844   6663418.20361
  19461334.2184   -1584549.03948  -1214870.53764
  19259218.5934  -26115897.39847 -20221427.28963
 91  4 23 23 23 59.9950000  0  5G13G15G19G 2G 6
  20362299.483   -13694389.299 6 -10345787.73021
  22258555.366    -4512556.545 5  -3413332.35021
  22518536.6014    8562389.30744   6690420.03061
  19461030.6164   -1586147.26148  -1216115.90964
  19254592.843   -26140207.538 7 -20240370.23523
 91  4 23 23 24 14.9950000  0  5G13G15G19G 2G 6
  20351647.257   -13750378.469 6 -10389415.51521
  22256573.6014   -4522973.25445  -3421449.22561
  22525131.6014    8597087.51544   6717457.45661
  19460734.1164   -1587705.53348  -1217330.14664
  19249981.499   -26164441.964 7 -20259254.18123
 91  4 23 23 24 29.9950000  0  5G13G15G19G 2G 6
  20341013.421   -13806262.615 6 -10432961.47021
  22254615.9994   -4533253.61945  -3429459.87061
  22531747.140     8631837.950 5   6744535.55521
  19460446.7964   -1589217.25948  -1218508.11264
  19245385.062   -26188593.809 7 -20278073.77423
 91  4 23 23 24 44.9950000  0  5G13G15G19G 2G 6
  20330398.265   -13862043.371 6 -10476426.85021
  22252687.1714   -4543399.33245  -3437365.58761
  22538369.3824    8666638.39244   6771652.66361
  19460166.2734   -1590684.37948  -1219651.32264
  19240804.569   -26212664.663 7 -20296830.25823
 91  4 23 23 24 59.9950000  0  5G13G15G19G 2G 6
  20319800.015   -13917728.665 6 -10519817.86921
  22250779.874    -4553418.619 5  -3445172.78221
  22544999.398     8701480.671 4   6798802.34621
  19459894.6634   -1592115.06148  -1220766.14064
  19236238.554   -26236662.616 7 -20315529.93723
 91  4 23 23 25 14.9950000  0  5G13G15G19G 2G 6
  20309224.155   -13973305.760 6 -10563124.55921
  22248898.4604   -4563298.70045  -3452871.50361
  22551636.601     8736377.227 4   6825994.32021
  19459632.5234   -1593497.03748  -1221843.00164
  19231687.648   -26260574.759 7 -20334162.75023
 91  4 23 23 25 29.9950000  0  5G13G15G19G 2G 6
  20298669.640   -14028772.850 6 -10606345.52321
  22247045.0074   -4573038.11745  -3460460.62661
  22558291.4214    8771329.42944   6853229.67361
  19459378.7024   -1594828.51048  -1222880.51064
  19227154.733   -26284399.317 7 -20352727.31523
 91  4 23 23 25 44.9950000  0  5G13G15G19G 2G 6
  20288134.4604  -14084134.51246 -10649484.35861
  22245222.304    -4582641.847 5  -3467944.01221
  22564950.960     8806331.790 4   6880504.09421
  19459134.0934   -1596114.94948  -1223882.93164
  19222636.608   -26308141.281 7 -20371227.52423
 91  4 23 23 25 59.9950000  0  5G13G15G19G 2G 6
  20277619.374   -14139385.669 6 -10692537.07021
  22243417.2334   -4592104.98345  -3475317.85461
  22571623.4994    8841389.09744   6907821.32261
  19458899.3044   -1597351.47448  -1224846.45664
  19218134.671   -26331795.465 7 -20389659.33223
 91  4 23 23 26 14.9950000  0  5G13G15G19G 2G 6
  20267126.7334  -14194528.38246 -10735505.28861
  22241645.2884   -4601429.40245  -3482583.60361
  22578304.9834    8876499.15345   6935179.68061
  19458672.2494   -1598540.20048  -1225772.73664
  19213650.671   -26355363.760 7 -20408024.21323
 91  4 23 23 26 29.9950000  0  5G13G15G19G 2G 6
  20256653.2414  -14249566.13546 -10778391.71761
  22239897.2964   -4610619.05845  -3489744.34561
  22584995.101     8911657.824 4   6962575.89421
  19458453.6324   -1599684.94948  -1226664.74764
  19209180.663   -26378849.819 7 -20426325.01523
 91  4 23 23 26 44.9950000  0  5G13G15G19G 2G 6
  20246202.515   -14304489.955 6 -10821189.36321
  22238172.7734   -4619665.28045  -3496793.30461
  22591697.4524    8946873.64644   6990016.64661
  19458247.4444   -1600777.24848  -1227515.88864
  19204729.773   -26402244.856 7 -20444554.89323
 91  4 23 23 26 59.9950000  0  5G13G15G19G 2G 6
  20235770.788   -14359308.576 6 -10863905.04421
  22236480.5234   -4628577.03545  -3503737.50561
  22598407.780     8982137.676 4   7017494.96121
  19458047.0854   -1601826.05048  -1228333.13364
  19200291.921   -26425557.419 7 -20462720.50323
 91  4 23 23 27 14.9950000  0  5G13G15G19G 2G 6
  20225359.054   -14414015.923 6 -10906534.02021
  22234808.1634   -4637348.44345  -3510572.33761
  22605128.3584    9017455.32044   7045015.06161
  19457856.8124   -1602825.82048  -1229112.17264
  19195873.468   -26448781.629 7 -20480817.26923
 91  4 23 23 27 29.9950000  0  5G13G15G19G 2G 6
  20214968.7334  -14468620.33946 -10949082.78261
  22233163.343    -4645988.016 5  -3517304.42521
  22611860.4914    9052817.86544   7072570.13161
  19457674.2494   -1603785.19248  -1229859.73164
  19191469.405   -26471925.835 7 -20498851.69623
 91  4 23 23 27 44.9950000  0  5G13G15G19G 2G 6
  20204597.741   -14523114.771 6 -10991545.84721
  22231548.3194   -4654488.86945  -3523928.43261
  22618595.694     9088232.023 4   7100165.41421
  19457500.0774   -1604697.46548  -1230570.59164
  19187080.483   -26494983.087 7 -20516818.36623
 91  4 23 23 27 59.9950000  0  5G13G15G19G 2G 6
  20194248.8514  -14577500.68946 -11033924.35961
  22229959.007    -4662852.638 6  -3530445.63421
  22625346.1164    9123695.79644   7127799.36361
  19457336.3514   -1605564.42548  -1231246.14664
  19182710.726   -26517954.843 7 -20534718.41223
 91  4 23 23 28 14.9950000  0  5G13G15G19G 2G 6
  20183922.5774  -14631769.67746 -11076211.75361
  22228395.171    -4671071.404 6  -3536849.83521
  22632108.3514    9159216.98943   7155478.06761
  19457180.4684   -1606377.96048  -1231880.06764
  19178355.608   -26540832.822 7 -20552545.39223
 91  4 23 23 28 29.9950000  0  5G13G15G19G 2G 6
  20173616.0384  -14685926.44446 -11118411.70861
  22226851.718    -4679150.019 6  -3543144.83921
  22638877.1634    9194790.77944   7183197.75061
  19457036.5464   -1607143.01748  -1232476.21864
  19174019.991   -26563621.536 7 -20570302.81524
 91  4 23 23 28 44.9950000  0  5G13G15G19G 2G 6
  20163331.6324  -14739976.38846 -11160528.41861
  22225339.765    -4687093.900 5  -3549334.85021
  22645653.132     9230411.192 3   7210953.75321
  19456898.9294   -1607865.40148  -1233039.11064
  19169699.624   -26586326.652 7 -20587995.09023
 91  4 23 23 28 59.9950000  0  5G13G15G19G 2G 6
  20153067.538   -14793912.796 6 -11202556.66721
  22223859.2334   -4694896.78946  -3555414.97761
  22652444.882     9266084.614 3   7238751.06021
  19456768.0624   -1608538.73348  -1233563.78764
  19165395.843   -26608941.381 7 -20605616.93923
 91  4 23 23 29 14.9950000  0  5G13G15G19G 2G 6
  20142824.1634  -14847736.38446 -11244497.00461
  22222398.6874   -4702559.53546  -3561385.92361
  22659242.5934    9301809.81743   7266588.72661
  19456649.9604   -1609164.02748  -1234051.02864
  19161110.155   -26631466.512 7 -20623168.97323
 91  4 23 23 29 29.9950000  0  5G13G15G19G 2G 6
  20132603.8904  -14901448.19446 -11286350.24361
  22220970.7884   -4710083.41246  -3567248.66061
  22666048.085     9337585.227 3   7294465.51521
  19456539.5774   -1609742.66748  -1234501.91964
  19156839.140   -26653903.173 7 -20640652.06923
 91  4 23 23 29 44.9950000  0  5G13G15G19G 2G 6
  20122404.304   -14955049.998 6 -11328117.77121
  22219559.1404   -4717470.33746  -3573004.67961
  22672867.8354    9373408.80543   7322379.81161
  19456438.2964   -1610276.50048  -1234917.89164
  19152586.546   -26676253.047 7 -20658067.54123
 91  4 23 23 29 59.9950000  0  5G13G15G19G 2G 6
  20112223.8354  -15008546.30946 -11369803.09161
  22218182.2654   -4724725.07546  -3578657.68761
  22679691.4294    9409275.55743   7350327.77761
  19456346.4994   -1610770.55848  -1235302.87164
  19148349.671   -26698520.677 7 -20675418.92523
 91  4 23 23 30 14.9950000  0  5G13G15G19G 2G 6
  20102065.5694  -15061925.71846 -11411397.31861
  22216827.648    -4731836.218 6  -3584198.81921
  22686527.468     9445196.485 3   7378317.93921
  19456260.3744   -1611213.71748  -1235648.18564
  19144129.991   -26720694.842 7 -20692697.47823
 91  4 23 23 30 29.9950000  0  5G13G15G19G 2G 6
  20091927.7804  -15115190.82046 -11452902.48061
  22215500.069    -4738807.044 6  -3589630.61321
  22693373.7334    9481168.43743   7406347.85161
  19456184.0154   -1611608.91348  -1235956.13064
  19139928.249   -26742778.055 7 -20709905.16323
 91  4 23 23 30 44.9950000  0  5G13G15G19G 2G 6
  20081814.5694  -15168343.35946 -11494319.93361
  22214203.4604   -4745639.53046  -3594954.60561
  22700227.796     9517189.280 3   7434415.89121
  19456120.1324   -1611958.16448  -1236228.26864
  19135742.163   -26764772.171 7 -20727043.42223
 91  4 23 23 30 59.9950000  0  5G13G15G19G 2G 6
  20071720.132   -15221391.491 6 -11535656.03221
  22212928.038    -4752341.727 6  -3600177.08321
  22707090.554     9553250.382 3   7462515.27721
  19456060.0304   -1612269.74448  -1236471.06064
  19131572.437   -26786685.254 7 -20744118.53923
 91  4 23 23 31 14.9950000  0  5G13G15G19G 2G 6
  20061646.358   -15274328.130 6 -11576905.25121
  22211676.773    -4758906.812 6  -3605292.69321
  22713963.4214    9589358.44243   7490651.28361
  19456008.7264   -1612537.17448  -1236679.44764
  19127419.280   -26808510.447 7 -20761125.16923
 91  4 23 23 31 29.9950000  0  5G13G15G19G 2G 6
  20051593.3274  -15327155.39246 -11618069.23661
  22210454.273    -4765337.087 6  -3610303.28521
  22720841.4834    9625511.30243   7518822.17861
  19455964.2494   -1612762.65748  -1236855.14864
  19123283.023   -26830249.506 7 -20778064.67923
 91  4 23 23 31 44.9950000  0  5G13G15G19G 2G 6
  20041563.343   -15379868.080 6 -11659143.95121
  22209257.616    -4771628.021 6  -3615205.28021
  22727727.890     9661713.346 4   7547031.41321
  19455931.0154   -1612941.50548  -1236994.50964
  19119164.077   -26851897.704 7 -20794933.39524
 91  4 23 23 31 59.9950000  0  5G13G15G19G 2G 6
  20031553.116   -15432469.855 6 -11700132.24621
  22208086.2334   -4777783.46046  -3620001.72761
  22734629.507     9697960.359 3   7575275.65121
  19455907.4444   -1613078.04648
  19115059.827   -26873458.694 7 -20811734.14923
 91  4 23 23 32 14.9950000  0  5G13G15G19G 2G 6
  20021565.6084  -15484956.93646 -11741031.16561
  22206939.4604   -4783799.65946  -3624689.66361
  22741535.1944    9734255.81044   7603557.66661
  19455888.2414   -1613168.53148
  19110973.757   -26894928.711 7 -20828464.01924
 91  4 23 23 32 29.9950000  0  5G13G15G19G 2G 6
  20011600.202   -15537324.510 6 -11781836.96521
  22205819.765    -4789671.727 6  -3629265.28421
  22748452.1714    9770604.24544   7631880.96061
  19455881.2804   -1613208.08948
  19106905.905   -26916302.634 7 -20845119.00524
 91  4 23 23 32 44.9950000  0  5G13G15G19G 2G 6
  20001656.030   -15589580.053 6 -11822555.46121
  22204732.585    -4795407.412 6  -3633734.62721
  22755376.233     9806997.649 4   7660239.29621
  19455879.6404   -1613204.64547
  19102856.312   -26937588.055 7 -20861705.03424
 91  4 23 23 32 59.9950000  0  5G13G15G19G 2G 6
  19991733.6484  -15641721.25946 -11863184.87561
  22203668.390    -4801005.093 6  -3638096.43421
  22762314.796     9843437.920 3   7688634.15421
  19455890.5154   -1613156.25148
  19098823.093   -26958782.838 7 -20878220.43224
 91  4 23 23 33 14.9950000  0  5G13G15G19G 2G 6
  19981832.030   -15693747.819 6 -11903724.94421
  22202625.593    -4806464.505 6  -3642350.51421
  22769254.296     9879925.183 4   7717065.63121
  19455908.8514   -1613062.84248
  19094807.749   -26979886.621 7 -20894664.92123
 91  4 23 23 33 29.9950000  0  4G13G15G 2G 6
  19971953.5464  -15745662.60946 -11944177.92661
  22201614.163    -4811788.583 5  -3646499.11321
  19455934.7334   -1612927.63048
  19090808.0464  -27000902.30847 -20911040.77363
 91  4 23 23 33 44.9950000  0  4G13G15G 2G 6
  19962097.1944  -15797460.20546 -11984539.59761
  22200624.866    -4816971.837 5  -3650538.01021
  19455970.8744   -1612745.42048
  19086826.382   -27021824.370 7 -20927343.66523
 91  4 23 23 33 59.9950000  0  4G13G15G 2G 6
  19952260.741   -15849144.339 6 -12024812.84421
  22199666.726    -4822018.494 5  -3654470.44921
  19456012.1164   -1612520.26948
  19082863.2804  -27042656.64347 -20943576.59463
 91  4 23 23 34 14.9950000  0  4G13G15G 2G 6
  19942446.194   -15900718.087 6 -12065000.07621
  22198729.6164   -4826932.12945  -3658299.22661
  19456061.4054   -1612255.59148  -1236460.02164
  19078914.6164  -27063402.36447 -20959742.07863
 91  4 23 23 34 29.9950000  0  4G13G15G 2G 6
  19932654.2104  -15952180.37846 -12105100.46361
  22197820.265    -4831711.852 5  -3662023.67721
  19456123.5074   -1611950.53948  -1236222.31964
  19074983.3824  -27084060.33347 -20975839.18363
 91  4 23 23 34 44.9950000  0  4G13G15G 2G 6
  19922883.983   -16003523.867 6 -12145108.27621
  22196941.8744   -4836350.53545  -3665638.22361
  19456187.4914   -1611598.13048  -1235947.71964
  19071070.921   -27104623.317 7 -20991862.27223
 91  4 23 23 34 59.9950000  0  4G13G15G 2G 6
  19913134.585   -16054755.401 6 -12185028.84521
  22196083.6324   -4840855.05145  -3669148.20961
  19456262.7654   -1611205.53748  -1235641.80664
  19067174.249   -27125098.209 7 -21007816.71724
 91  4 23 23 35 14.9950000  0  4G13G15G 2G 6
  19903406.523   -16105871.191 6 -12224859.23521
  22195254.6164   -4845221.81346  -3672550.87161
  19456346.4684   -1610769.29748  -1235301.88064
  19063296.273   -27145481.205 7 -21023699.55524
 91  4 23 23 35 29.9950000  0  4G13G15G 2G 6
  19893703.710   -16156865.558 6 -12264595.00521
  22194448.9374   -4849445.49145  -3675842.01661
  19456435.6554   -1610283.95048  -1234923.69364
  19059434.905   -27165766.519 7 -21039506.27524
 91  4 23 23 35 44.9950000  0  4G13G15G 2G 6
  19884020.358   -16207751.689 6 -12304246.43021
  22193668.405    -4853539.611 5  -3679032.22821
  19456536.5854   -1609762.99448  -1234517.75064
  19055591.905   -27185967.490 7 -21055247.27323
 91  4 23 23 35 59.9950000  0  4G13G15G 2G 6
  19874357.2104  -16258525.52146 -12343810.35861
  22192916.210    -4857500.299 5  -3682118.44921
  19456643.9054   -1609202.48248  -1234080.99164
  19051763.413   -27206080.078 7 -21070919.40523
 91  4 23 23 36 14.9950000  0  4G13G15G 2G 6
  19864718.5074  -16309180.06646 -12383281.34161
  22192190.062    -4861320.979 5  -3685095.59921
  19456757.7104   -1608596.01748  -1233608.42064
  19047955.062   -27226097.357 7 -21086517.26923
 91  4 23 23 36 29.9940000  0  4G13G15G 2G 6
  19855102.5414  -16359713.54546 -12422657.97761
  22191487.549    -4865003.287 5  -3687964.89321
  19456880.5494   -1607945.48448  -1233101.51264
  19044163.525   -27246019.613 7 -21102041.08823
 91  4 23 23 36 44.9940000  0  4G13G15G 2G 6
  19845506.9944  -16410135.56046 -12461947.76861
  22190811.400    -4868550.508 5  -3690728.95421
  19457014.2994   -1607253.89248  -1232562.61264
  19040389.799   -27265852.221 7 -21117495.05523
 91  4 23 23 36 59.9940000  0  4G13G15G 2G 6
  19835933.0254  -16460447.54647 -12501151.82661
  22190161.877    -4871967.653 5  -3693391.64021
  19457154.1354   -1606526.32648  -1231995.67964
  19036632.361   -27285598.767 7 -21132881.95823
 91  4 23 23 37 14.9940000  0  4G13G15G 2G 6
  19826379.377   -16510648.160 6 -12540269.09721
  22189539.088    -4875253.603 5  -3695952.09821
  19457298.6904   -1605761.59748  -1231399.78964
  19032891.471   -27305258.032 7 -21148200.84923
 91  4 23 23 37 29.9940000  0  4G13G15G 2G 6
  19816850.6744  -16560728.71047 -12579292.80861
  22188936.268    -4878399.848 5  -3698403.71021
  19457452.4244   -1604951.30648  -1230768.39964
  19029167.744   -27324821.224 7 -21163444.88023
 91  4 23 23 37 44.9940000  0  4G13G15G 2G 6
  19807342.9164  -16610689.74547 -12618223.39361
  22188367.674    -4881406.876 5  -3700746.83421
  19457614.1114   -1604096.19248  -1230102.07864
  19025463.354   -27344288.735 7 -21178614.35223
 91  4 23 23 37 59.9940000  0  4G13G15G 2G 6
  19797856.9244  -16660542.83447 -12657069.86861
  22187813.807    -4884286.654 5  -3702990.80721
  19457783.8384   -1603208.16148  -1229410.10764
  19021773.502   -27363672.200 7 -21193718.33423
 91  4 23 23 38 14.9940000  0  4G13G15G 2G 6
  19788390.6904  -16710281.92647 -12695827.51261
  22187294.9324   -4887033.62645  -3705131.29561
  19457960.9634   -1602281.67048  -1228688.16864
  19018103.768   -27382965.755 7 -21208752.25423
 91  4 23 23 38 29.9940000  0  4G13G15G 2G 6
  19778949.1824  -16759896.28547 -12734487.95661
  22186800.166    -4889637.331 5  -3707160.13221
  19458146.2754   -1601306.26648  -1227928.11464
  19014451.807   -27402158.721 7 -21223707.79723
 91  4 23 23 38 44.9940000  0  4G13G15G 2G 6
  19769528.979   -16809399.949 7 -12773062.16121
  22186325.1504   -4892111.85245  -3709088.30861
  19458336.9244   -1600295.94248  -1227140.85264
  19010816.213   -27421264.953 7 -21238595.75324
 91  4 23 23 38 59.9940000  0  4G13G15G 2G 6
  19760131.0104  -16858790.02347 -12811547.84561
  22185879.010    -4894454.592 5  -3710913.80021
  19458538.0104   -1599248.15648  -1226324.39864
  19007198.1274  -27440281.59747 -21253413.90562
 91  4 23 23 39 14.9940000  0  4G13G15G 2G 6
  19750755.424   -16908058.837 7 -12849939.04221
  22185462.7444   -4896658.09045  -3712630.79661
  19458745.2604   -1598155.82348  -1225473.22664
  19003596.643   -27459201.119 7 -21268156.37023
 91  4 23 23 39 29.9940000  0  4G13G15G 2G 6
  19741399.315   -16957219.089 7 -12888245.65321
  22185069.9714   -4898735.44745  -3714249.50561
  19458958.9944   -1597031.71448  -1224597.29564
  19000013.244   -27478036.148 7 -21282832.99923
 91  4 23 23 39 44.9940000  0  4G13G15G 2G 6
  19732069.7054  -17006255.76947 -12926455.96761
  22184701.0104   -4900671.73445  -3715758.30061
  19459181.7524   -1595860.98948  -1223685.04064
  18996446.611   -27496771.701 7 -21297432.11323
 91  4 23 23 39 59.9940000  0  4G13G15G 2G 6
  19722758.3694  -17055174.82147 -12964574.62561
  22184358.088    -4902473.253 5  -3717162.07821
  19459412.2134   -1594649.87548  -1222741.32164
  18992899.346   -27515413.699 7 -21311958.33323
 91  4 23 23 40 14.9940000  0  4G13G15G 2G 6
  19713472.9244  -17103972.78647 -13002598.92761
  22184038.666    -4904136.551 5  -3718458.14121
  19459651.4794   -1593395.21648  -1221763.66364
  18989369.611   -27533958.584 7 -21326408.87423
 91  4 23 23 40 29.9940000  0  4G13G15G 2G 6
  19704210.775   -17152652.011 7 -13040530.70721
  22183744.377    -4905664.447 5  -3719648.69721
  19459898.9004   -1592099.47448  -1220753.99664
  18985859.072   -27552408.729 7 -21340785.59423
 91  4 23 23 40 44.9940000  0  4G13G15G 2G 6
  19694969.1044  -17201215.60447 -13078372.38161
  22183484.447    -4907060.142 5  -3720736.22121
  19460151.9714   -1590766.05148  -1219714.96864
  18982366.635   -27570767.131 7 -21355090.82623
 91  4 23 23 40 59.9940000  0  4G13G15G 2G 6
  19685750.1824  -17249663.77947 -13116124.11861
  22183243.4714   -4908324.03245  -3721721.06661
  19460412.8074   -1589395.57648  -1218647.06664
  18978890.440   -27589034.184 7 -21369324.87923
 91  4 23 23 41 14.9940000  0  4G13G15G 2G 6
  19676552.018   -17297994.998 7 -13153784.72721
  22183025.7134   -4909454.90445  -3722602.25261
  19460680.6504   -1587986.70448  -1217549.24264
  18975431.471   -27607208.368 7 -21383486.56423
 91  4 23 23 41 29.9940000  0  4G13G15G 2G 6
  19667377.1354  -17346205.54947 -13191351.31361
  22182837.572    -4910449.371 5  -3723377.15121
  19460956.8224   -1586535.98948  -1216418.81464
  18971991.510   -27625285.962 7 -21397572.98723
 91  4 23 23 41 44.9940000  0  4G13G15G 2G 6
  19658226.955   -17394294.339 7 -13228823.01621
  22182674.7524   -4911306.56045  -3724045.08361
  19461241.1744   -1585042.33148  -1215254.92564
  18968570.424   -27643265.634 7 -21411583.10523
 91  4 23 23 41 59.9940000  0  4G13G15G 2G 6
  19649097.205   -17442265.081 7 -13266202.74421
  22182540.3304   -4912030.52345  -3724609.19661
  19461532.6194   -1583509.84248  -1214060.77464
  18965166.166   -27661151.376 7 -21425520.03323
 91  4 23 23 42 14.9940000  0  4G13G15G 2G 6
  19639993.322   -17490111.606 7 -13303485.67521
  22182425.4084   -4912615.05945  -3725064.68061
  19461831.7444   -1581932.53548  -1212831.70464
  18961782.432   -27678936.802 7 -21439378.78923
 91  4 23 23 42 29.9940000  0  4G13G15G 2G 6
  19630910.354   -17537842.217 7 -13340678.28321
  22182341.416    -4913069.087 5  -3725418.46021
  19462139.9084   -1580319.23648  -1211574.59064
  18958415.065   -27696630.407 7 -21453165.99523
 91  4 23 23 42 44.9940000  0  4G13G15G 2G 6
  19621850.025   -17585450.798 7 -13377775.80421
  22182279.1504   -4913386.64845  -3725665.90361
  19462455.1824   -1578663.83248  -1210284.66664
  18955067.049   -27714225.963 7 -21466876.80623
 91  4 23 23 42 59.9940000  0  4G13G15G 2G 6
  19612812.690   -17632949.620 7 -13414787.78921
  22182239.9714   -4913580.08045
  19462776.3304   -1576978.98848  -1208971.80164
  18951734.158   -27731735.847 7 -21480520.85523
 91  4 23 23 43 14.9940000  0  4G13G15G 2G 6
  19603795.830   -17680326.079 7 -13451704.44021
  22182229.393    -4913636.928 5
  19463104.0654   -1575252.26148  -1207626.30064
  18948422.791   -27749147.351 7 -21494088.24523
 91  4 23 23 43 29.9940000  0  4G13G15G 2G 6
  19594802.627   -17727587.303 7 -13488531.28521
  22182247.213    -4913564.698 5
  19463438.9084   -1573490.77848  -1206253.71964
  18945125.525   -27766467.359 7 -21507584.34123
 91  4 23 23 43 44.9940000  0  4G13G15G 2G 6
  19585832.666   -17774722.856 7 -13525260.21221
  22182284.2294   -4913353.13845
  19463782.4474   -1571684.61848  -1204846.32364
  18941848.9004  -27783685.60647 -21521001.14663
 91  4 23 23 43 59.9940000  0  4G13G15G 2G 6
  19576886.791   -17821730.497 7 -13561889.46821
  22182352.8774   -4913000.37945
  19464134.8614   -1569831.95148  -1203402.68664
  18938592.018   -27800799.986 7 -21534337.01223
 91  4 23 23 44 14.9940000  0  4G13G15G 2G 6
  19567965.025   -17868618.151 7 -13598425.21621
  22182443.041    -4912514.591 5  -3724986.33821
  19464495.5494   -1567940.79148  -1201929.06164
  18935352.291   -27817818.408 7 -21547598.10523
 91  4 23 23 44 29.9940000  0  4G13G15G 2G 6
  19559066.494   -17915382.469 7 -13634864.87021
  22182563.1114   -4911892.99245  -3724501.96861
  19464864.0024   -1566008.03348  -1200423.01064
  18932132.721   -27834737.484 7 -21560781.78523
 91  4 23 23 44 44.9940000  0  4G13G15G 2G 6
  19550190.268   -17962024.005 7 -13671208.84721
  22182706.9474   -4911136.18045  -3723912.24461
  19465238.2054   -1564034.26848  -1198885.01064
  18928933.408   -27851557.655 7 -21573888.39923
 91  4 23 23 44 59.9940000  0  4G13G15G 2G 6
  19541339.072   -18008541.951 7 -13707456.51921
  22182879.3464   -4910243.51645  -3723216.65961
  19465621.2294   -1562019.11648  -1197314.76164
  18925752.3934  -27868278.21547 -21586917.39563
 91  4 23 23 45 14.9940000  0  4G13G15G 2G 6
  19532510.268   -18054933.536 7 -13743605.72421
  22183073.2134   -4909212.42945  -3722413.20961
  19466013.6434   -1559960.12948  -1195710.35364
  18922589.010   -27884896.360 7 -21599866.58623
 91  4 23 23 45 29.9940000  0  4G13G15G 2G 6
  19523706.8934  -18101201.02547 -13779658.24461
  22183292.9324   -4908045.60145  -3721503.98161
  19466413.1114   -1557859.68248  -1194073.64064
  18919445.6824  -27901414.53847 -21612737.88663
 91  4 23 23 45 44.9940000  0  4G13G15G 2G 6
  19514924.385   -18147344.411 7 -13815614.05821
  22183545.2364   -4906743.08945  -3720489.02861
  19466820.4864   -1555717.83448  -1192404.67064
  18916321.8934  -27917832.46647 -21625531.06663
 91  4 23 23 45 59.9940000  0  4G13G15G 2G 6
  19506167.955   -18193365.666 7 -13851474.70021
  22183816.088    -4905306.834 5  -3719369.85621
  19467235.8544   -1553536.87348  -1190705.22264
  18913215.346   -27934152.107 7 -21638247.66023
 91  4 23 23 46 14.9940000  0  4G13G15G 2G 6
  19497432.6904  -18239262.56447 -13887238.45462
  22184116.8304   -4903735.43545  -3718145.40161
  19467658.6904   -1551315.03648  -1188973.92264
  18910128.2914  -27950371.28847 -21650885.97263
 91  4 23 23 46 29.9940000  0  4G13G15G 2G 6
  19488723.6354  -18285032.22547 -13922903.05861
  22184445.2914   -4902026.02145  -3716813.38461
  19468089.8074   -1549049.49448  -1187208.56564
  18907063.1824  -27966487.00647 -21663443.66663
 91  4 23 23 46 44.9940000  0  4G13G15G 2G 6
  19480038.979   -18330673.687 7 -13958467.76122
  22184792.0334   -4900177.66545  -3715373.09761
  19468530.5724   -1546739.31048  -1185408.42364
  18904016.3154  -27982498.17647 -21675919.89263
 91  4 23 23 46 59.9940000  0  4G13G15G 2G 6
  19471376.8464  -18376188.79647 -13993934.00861
  22185168.838    -4898192.749 5  -3713826.38921
  19468977.3854   -1544386.68148  -1183575.21064
  18900988.7054  -27998406.96347 -21688316.34263
 91  4 23 23 47 14.9940000  0  4G13G15G 2G 6
  19462739.080   -18421583.788 7 -14029306.65522
  22185572.690    -4896077.891 5  -3712178.45421
  19469431.0654   -1541998.27448  -1181714.11464
  18897979.0024  -28014219.53547 -21700637.81663
 91  4 23 23 47 29.9940000  0  4G13G15G 2G 6
  19454123.846   -18466853.432 7 -14064581.62122
  22186002.885    -4893828.449 5  -3710425.62421
  19469893.5104   -1539569.13548  -1179821.28264
  18894989.2364  -28029930.79047 -21712880.34663
 91  4 23 23 47 44.9940000  0  4G13G15G 2G 6
  19445533.9714  -18511994.05247 -14099756.06261
  22186459.4634   -4891440.40646
  19470364.4864   -1537095.52248
  18892019.4864  -28045536.74847 -21725040.82463
 91  4 23 23 47 59.9940000  0  4G13G15G 2G 6
  19436967.830   -18557011.988 7 -14134834.90722
  22186938.736    -4888920.291 6
  19470842.1664   -1534583.86148
  18889070.5574  -28061043.63547 -21737124.10263
 91  4 23 23 48 14.9940000  0  4G13G15G 2G 6
  19428425.236   -18601905.424 7 -14169816.72822
  22187440.7754   -4886266.44145  -3704533.12761
  19471328.1664   -1532032.57548  -1173948.65064
  18886137.3694  -28076449.49147 -21749128.65763
 91  4 23 23 48 29.9940000  0  4G13G15G 2G 6
  19419903.721   -18646680.572 7 -14204706.38522
  22187970.1114   -4883485.63246  -3702366.25961
  19471819.4244   -1529448.38348  -1171935.00064
  18883222.6744  -28091760.83347 -21761059.55863
 91  4 23 23 48 44.9940000  0  4G13G15G 2G 6
  19411407.010   -18691328.534 7 -14239496.93122
  22188522.8224   -4880569.16246  -3700093.68261
  19472319.9324   -1526822.37048  -1169888.75864
  18880329.7364  -28106968.66647 -21772909.81463
 91  4 23 23 48 59.9940000  0  4G13G15G 2G 6
  19402935.979   -18735850.611 7 -14274189.38622
  22189105.0414   -4877518.55646  -3697716.59161
  19472828.0414   -1524156.01348  -1167811.08364
  18877454.9944  -28122074.20547 -21784680.35463
 91  4 23 23 49 14.9940000  0  4G13G15G 2G 6
  19394486.502   -18780250.733 7 -14308786.80321
  22189712.775    -4874338.360 6  -3695238.51221
  19473340.7294   -1521453.71148  -1165705.39664
  18874599.7294  -28137081.57447 -21796374.39663
 91  4 23 23 49 29.9940000  0  4G13G15G 2G 6
  19386062.385   -18824521.138 7 -14343283.15322
  22190342.6194   -4871020.72646  -3692653.33561
  19473864.0964   -1518707.78048  -1163565.71564
  18871763.5334  -28151982.73647 -21807985.68363
 91  4 23 23 49 44.9940000  0  4G13G15G 2G 6
  19377660.736   -18868667.484 7 -14377682.83421
  22190999.2364   -4867571.35846  -3689965.51861
  19474393.7684   -1515923.88548  -1161396.45264
  18868947.3384  -28166783.42447 -21819518.68063
 91  4 23 23 49 59.9940000  0  4G13G15G 2G 6
  19369286.783   -18912680.817 7 -14411978.85821
  22191681.3694   -4863981.52846  -3687168.22561
  19474932.5884   -1513093.09348  -1159190.64164
  18866152.557   -28181474.307 7 -21830966.10923
 91  4 23 23 50 14.9940000  0  4G13G15G 2G 6
  19360933.9244  -18956567.78347 -14446176.42562
  22192387.752    -4860258.150 5  -3684266.86721
  19475478.9164   -1510222.52748  -1156953.84264
  18863375.0184  -28196062.37847 -21842333.42863
 91  4 23 23 50 29.9940000  0  4G13G15G 2G 6
  19352606.8464  -19000331.48547 -14480277.94561
  22193120.791    -4856404.907 5  -3681264.32421
  19476032.5884   -1507315.52948  -1154688.65464
  18860618.6504  -28210550.60947 -21853622.94863
 91  4 23 23 50 44.9940000  0  4G13G15G 2G 6
  19344303.0804  -19043965.00547 -14514278.02262
  22193885.3074   -4852415.03845  -3678155.33961
  19476592.7684   -1504365.43348  -1152389.88564
  18857883.1354  -28224932.10747 -21864829.30363
 91  4 23 23 50 59.9940000  0  4G13G15G 2G 6
  19336024.072   -19087468.246 7 -14548176.57722
  22194669.979    -4848288.827 5  -3674940.09621
  19477162.0654   -1501372.22948  -1150057.51664
  18855165.260   -28239206.664 7 -21875952.32123
 91  4 23 23 51 14.9940000  0  4G13G15G 2G 6
  19327769.1434  -19130850.58247 -14581980.92662
  22195474.729    -4844035.932 5  -3671626.16021
  19477739.4714   -1498345.69948  -1147699.18864
  18852467.6434  -28253383.80547 -21886999.43863
 91  4 23 23 51 29.9940000  0  4G13G15G 2G 6
  19319539.0334  -19174104.67347 -14615685.34262
  22196308.7214   -4839649.16245  -3668207.88261
  19478323.2994   -1495278.87148  -1145309.45364
  18849789.8614  -28267456.16447 -21897964.90263
 91  4 23 23 51 44.9940000  0  4G13G15G 2G 6
  19311332.3544  -19217227.06847 -14649287.14562
  22197172.4474   -4835125.21745  -3664682.73961
  19478915.2294   -1492168.07048  -1142885.46064
  18847131.5804  -28281420.07947 -21908845.86563
 91  4 23 23 51 59.9940000  0  4G13G15G 2G 6
  19303149.705   -19260220.304 7 -14682788.29322
  22198055.7214   -4830466.93645  -3661052.92561
  19479515.5574   -1489015.83648  -1140429.17764
  18844494.5654  -28295278.01547 -21919644.24263
 91  4 23 23 52 14.9940000  0  4G13G15G 2G 6
  19294994.0654  -19303085.44747 -14716189.64062
  22198964.1824   -4825675.66245  -3657319.46361
  19480122.5024   -1485823.67948  -1137941.78664
  18841877.393   -28309031.234 7 -21930361.03123
 91  4 23 23 52 29.9940000  0  4G13G15G 2G 6
  19286859.1354  -19345833.52147 -14749499.76062
  22199901.494    -4820762.872 5  -3653491.32621
  19480735.2604   -1482602.83048  -1135432.03864
  18839278.4404  -28322690.55647 -21941004.64963
 91  4 23 23 52 44.9940000  0  4G13G15G 2G 6
  19278750.111   -19388450.777 7 -14782707.94222
  22200864.7754   -4815714.89545  -3649557.82861
  19481355.2054   -1479339.65048  -1132889.30264
  18836699.736   -28336242.246 7 -21951564.39823
 91  4 23 23 52 59.9940000  0  4G13G15G 2G 6
  19270663.2994  -19430942.05447 -14815817.96461
  22201851.916    -4810536.899 5  -3645523.02921
  19481983.3464   -1476039.23348  -1130317.55064
  18834140.1194  -28349691.29347 -21962044.16363
 91  4 23 23 53 14.9940000  0  4G13G15G 2G 6
  19262602.5654  -19473302.53047 -14848826.06262
  22202863.4634   -4805224.21045  -3641383.26861
  19482619.2134   -1472696.86448  -1127713.10964
  18831602.6434  -28363032.63247 -21972440.00763
 91  4 23 23 53 29.9940000  0  4G13G15G 2G 6
  19254566.5884  -19515528.70647 -14881729.51462
  22203895.3384   -4799773.71245  -3637136.14161
  19483264.6044   -1469309.34548  -1125073.49064
  18829084.7294  -28376262.79047 -21982749.21163
 91  4 23 23 53 44.9940000  0  4G13G15G 2G 6
  19246556.9474  -19557626.53747 -14914532.95162
  22204964.5104   -4794191.38345  -3632786.25861
  19483915.2364   -1465882.57848  -1122403.28564
  18826587.7054  -28389387.59847 -21992976.32463
 91  4 23 23 53 59.9940000  0  4G13G15G 2G 6
  19238569.2134  -19599594.66747 -14947235.32662
  22206049.1434   -4788476.27545  -3628332.92161
  19484576.2524   -1462415.36048  -1119701.56364
  18824109.1584  -28402405.51547 -22003120.14663
 91  4 23 23 54 14.9940000  0  4G13G15G 2G 6
  19230607.3224  -19641436.12147 -14979838.99162
  22207163.963    -4782631.905 5  -3623778.88521
  19485241.9244   -1458911.10848  -1116970.98164
  18821651.6824  -28415319.77647 -22013183.19963
 91  4 23 23 54 29.9940000  0  4G13G15G 2G 6
  19222669.1904  -19683145.58947 -15012339.80962
  22208295.4244   -4776652.83945  -3619119.86061
  19485917.8304   -1455364.50748  -1114207.40264
  18819215.9164  -28428125.01847 -22023161.30163
 91  4 23 23 54 44.9940000  0  4G13G15G 2G 6
  19214758.8384  -19724723.49847 -15044738.11762
  22209464.986    -4770539.699 5  -3614356.39121
  19486599.9554   -1451776.11548  -1111411.25764
  18816799.7294  -28440821.44547 -22033054.61263
 91  4 23 23 54 59.9940000  0  4G13G15G 2G 6
  19206871.940   -19766169.377 7 -15077033.54322
  22210648.299    -4764292.294 5  -3609488.27321
  19487291.5104   -1448145.47348  -1108582.18864
  18814404.1354  -28453408.53447 -22042862.72663
 91  4 23 23 55 14.9940000  0  4G13G15G 2G 6
  19199012.1114  -19807478.21247 -15109222.17662
  22211865.2994   -4757906.07545  -3604511.98861
  19487992.1274   -1444468.21048  -1105716.79464
  18812030.8464  -28465881.51847 -22052581.93063
 91  4 23 23 55 29.9940000  0  4G13G15G 2G 6
  19191173.9864  -19848657.99747 -15141310.25162
  22213104.3544   -4751389.56545  -3599434.20061
  19488698.8934   -1440752.31448  -1102821.29664
  18809677.6434  -28478248.20247 -22062218.29663
 91  4 23 23 55 44.9940000  0  4G13G15G 2G 6
  19183362.5494  -19889708.13547 -15173297.30662
  22214368.0494   -4744742.33045  -3594254.53361
  19489412.4864   -1436997.47048  -1099895.45164
  18807344.4004  -28490508.28447 -22071771.59763
 91  4 23 23 55 59.9940000  0  4G13G15G 2G 6
  19175576.1194  -19930623.89647 -15205179.65562
  22215662.744    -4737959.711 5  -3588969.36421
  19490135.6114   -1433198.95948  -1096935.58164
  18805031.9634  -28502656.59747 -22081237.80963
 91  4 23 23 56 14.9940000  0  4G13G15G 2G 6
  19167815.1504  -19971409.98947 -15236960.95962
  22216979.8774   -4731046.69645  -3583582.60461
  19490865.1114   -1429361.80548  -1093945.59564
  18802742.1114  -28514697.89947 -22090620.63463
 91  4 23 23 56 29.9940000  0  4G13G15G 2G 6
  19160079.9794  -20012061.13747 -15268637.11262
  22218320.7524   -4723998.22445  -3578090.29061
  19491604.1664   -1425480.66348  -1090921.33564
  18800471.5334  -28526626.89847 -22099915.94963
 91  4 23 23 56 44.9940000  0  4G13G15G 2G 6
  19152368.3224  -20052582.80347 -15300212.37162
  22219684.8464   -4716819.88546  -3572496.77161
  19492350.6974   -1421560.85048  -1087866.94864
  18798220.8384  -28538448.66447 -22109127.71263
 91  4 23 23 56 59.9940000  0  4G13G15G 2G 6
  19144682.6354  -20092972.09147 -15331684.47862
  22221075.0024   -4709509.13945  -3566800.08861
  19493104.2054   -1417600.16048  -1084780.70264
  18795992.6504  -28550160.52047 -22118253.82563
 91  4 23 23 57 14.9940000  0  4G13G15G 2G 6
  19137022.1114  -20133228.61447 -15363053.12962
  22222492.6904   -4702065.86345  -3561000.12461
  19493866.0964   -1413598.11348  -1081662.23264
  18793784.9714  -28561761.93447 -22127293.88263
 91  4 23 23 57 29.9940000  0  4G13G15G 2G 6
  19129386.5184  -20173350.86647 -15394317.15762
  22223932.9634   -4694488.72845  -3555095.85961
  19494634.3694   -1409553.18648  -1078510.34864
  18791598.7684  -28573251.41047 -22136246.71363
 91  4 23 23 57 44.9940000  0  4G13G15G 2G 6
  19121775.9004  -20213342.87647 -15425479.69962
  22225396.0654   -4686782.09045  -3549090.68061
  19495412.4944   -1405469.82348  -1075328.51164
  18789433.3614  -28584633.02747 -22145115.49463
 91  4 23 23 57 59.9940000  0  4G13G15G 2G 6
  19114190.5574  -20253203.43947 -15456539.81162
  22226890.8774   -4678945.18345  -3542983.99861
  19496197.4634   -1401346.81948  -1072115.78964
  18787287.8154  -28595905.49847 -22153899.23163
 91  4 23 23 58 14.9940000  0  4G13G15G 2G 6
  19106632.0024  -20292926.58147 -15487492.84562
  22228408.3854   -4670972.34245  -3536771.39961
  19496990.3694   -1397178.43548  -1068867.71064
  18785164.8774  -28607062.89347 -22162593.30563
 91  4 23 23 58 29.9940000  0  4G13G15G 2G 6
  19099098.3854  -20332515.48447 -15518341.27562
  22229953.0494   -4662866.92445  -3530455.48161
  19497791.4634   -1392968.14548  -1065586.96664
  18783062.9794  -28618108.31147 -22171200.11263
 91  4 23 23 58 44.9940000  0  4G13G15G 2G 6
  19091591.1904  -20371970.18147 -15549085.12762
  22231517.6274   -4654628.95945  -3524036.28461
  19498601.2524   -1388715.90948  -1062273.54364
  18780982.4474  -28629041.65947 -22179719.59863
 91  4 23 23 58 59.9940000  0  4G13G15G 2G 6
  19084107.8464  -20411295.56947 -15579728.22362
  22233115.8154   -4646263.78445  -3517517.97261
  19499416.4554   -1384426.89948  -1058931.46864
  18778921.9164  -28639867.80447 -22188155.55063
 91  4 23 23 59 14.9940000  0  4G13G15G 2G 6
  19076648.3074  -20450492.06647 -15610270.88762
  22234730.2054   -4637772.23246  -3510901.18161
  19500239.2994   -1380101.71248  -1055561.19864
  18776882.8934  -28650587.26247 -22196508.36863
 91  4 23 23 59 29.9940000  0  4G13G15G 2G 6
  19069216.5654  -20489550.06947 -15640705.62462
  22236368.8304   -4629144.78445  -3504178.49361
  19501072.4714   -1375730.78948  -1052155.28964
  18774864.5024  -28661190.02747 -22204770.25563
 91  4 23 23 59 44.9940000  0  4G13G15G 2G 6
  19061807.3304  -20528471.57947 -15671034.01462
  22238036.3934   -4620383.50746  -3497351.51061
  19501912.7684   -1371316.17248  -1048715.33864
  18772868.6114  -28671678.21247 -22212942.85963
 91  4 23 23 59 59.9940000  0  4G13G15G 2G 6
  19054428.4404  -20567258.08247 -15701257.20362
  22239727.4164   -4611490.24945  -3490421.70061
  19502759.8384   -1366859.50648  -1045242.62164
  18770895.5724  -28682053.21647 -22221027.27663
 91  4 24  0  0 14.9940000  0  4G13G15G 2G 6
  19047073.0494  -20605912.96647 -15731377.82162
  22241443.0414   -4602468.93545  -3483392.10861
  19503614.9404   -1362364.31548  -1041739.88064
  18768941.0104  -28692318.38147 -22229026.10363
 91  4 24  0  0 29.9940000  0  4G13G15G 2G 6
  19039741.4474  -20644430.59647 -15761391.49262
  22243186.229    -4593314.084 5  -3476258.44021
  19504479.1274   -1357825.15148  -1038202.87864
  18767009.9324  -28702468.22147 -22236935.06363
 91  4 24  0  0 44.9940000  0  4G13G15G 2G 6
  19032438.3694  -20682812.04747 -15791299.05762
  22244950.9554   -4584026.99045  -3469021.73861
  19505351.5334   -1353243.39748  -1034632.68764
  18765098.6744  -28712503.63647 -22244754.86163
 91  4 24  0  0 59.9940000  0  4G13G15G 2G 6
  19025159.1584  -20721061.61347 -15821103.84962
  22246742.5574   -4574612.03345  -3461685.39461
  19506230.4794   -1348623.10948  -1031032.47464
  18763211.4714  -28722428.69347 -22252488.67163
 91  4 24  0  1 14.9940000  0  4G13G15G 2G 6
  19017906.9554  -20759176.84647 -15850803.96562
  22248561.2684   -4565067.12245  -3454247.80461
  19507117.2294   -1343962.04748  -1027400.48164
  18761344.5184  -28732241.01947 -22260134.63563
 91  4 24  0  1 29.9940000  0  4G13G15G 2G 6
  19010680.8384  -20797153.63147 -15880396.20462
  22250405.7214   -4555388.51745  -3446706.04361
  19508012.6974   -1339256.23848  -1023733.62864
  18759499.0964  -28741936.38447 -22267689.46263
 91  4 24  0  1 44.9940000  0  4G13G15G 2G 6
  19003479.8544  -20834993.22247 -15909881.53462
  22252275.5964   -4545577.82845  -3439061.36161
  19508916.4634   -1334507.01648  -1020032.94564
  18757676.6744  -28751516.14347 -22275154.20763
 91  4 24  0  1 59.9940000  0  4G13G15G 2G 6
  18996304.9084  -20872697.00447 -15939261.04562
  22254164.697    -4535636.470 5  -3431314.86121
  19509828.1584   -1329716.16948  -1016299.82464
  18755874.5964  -28760981.54147 -22282529.84263
 91  4 24  0  2 14.9940000  0  4G13G15G 2G 6
  18989156.5334  -20910263.65847 -15968533.69762
  22256079.877    -4525563.102 5  -3423465.51121
  19510748.5724   -1324882.13448  -1012533.05364
  18754095.8304  -28770331.12547 -22289815.23463
 91  4 24  0  2 29.9940000  0  4G13G15G 2G 6
  18982033.6504  -20947687.94947 -15997695.41662
  22258024.174    -4515352.948 5  -3415509.57421
  19511676.7364   -1319999.86848  -1008728.69864
  18752339.9554  -28779559.46647 -22297006.14763
 91  4 24  0  2 44.9940000  0  4G13G15G 2G 6
  18974937.025   -20984984.081 7 -16026757.28722
  22259990.315    -4505020.690 5  -3407458.47421
  19512612.1434   -1315083.77648  -1004897.98664
  18750604.7604  -28788680.86347 -22304113.72663
 91  4 24  0  2 59.9940000  0  4G13G15G 2G 6
  18967866.6434  -21022143.19047 -16055712.37662
  22261979.533    -4494557.588 5  -3399305.42621
  19513555.9554   -1310124.86048  -1001033.90664
  18748889.9944  -28797686.27847 -22311130.93663
 91  4 24  0  3 14.9940000  0  4G13G15G 2G 6
  18960820.9404  -21059160.29447 -16084556.80862
  22263997.6354   -4483958.92445  -3391046.72561
  19514508.7604   -1305118.52848   -997132.87864
  18747200.6744  -28806570.77047 -22318053.91863
 91  4 24  0  3 29.9940000  0  4G13G15G 2G 6
  18953804.5254  -21096038.87247 -16113293.30362
  22266033.486    -4473228.278 5  -3382685.19821
  19515470.5104   -1300068.18647   -993197.55464
  18745531.7444  -28815337.74947 -22324885.33063
 91  4 24  0  3 44.9940000  0  4G13G15G 2G 6
  18946811.8154  -21132782.76447 -16141924.84562
  22268100.5964   -4462370.05345  -3374224.25361
  19516437.940    -1294977.901 7   -989231.11024
  18743885.5334  -28823991.03147 -22331628.14963
 91  4 24  0  3 59.9940000  0  4G13G15G 2G 6
  18939845.8774  -21169388.19847 -16170448.50162
  22270193.1504   -4451380.90545  -3365661.29361
  19517415.4864   -1289844.06748   -985230.72864
  18742260.3304  -28832526.82647 -22338279.42263
 91  4 24  0  4 14.9940000  0  4G13G15G 2G 6
  18932905.6744  -21205857.79247 -16198866.30662
  22272309.619    -4440263.192 5  -3356998.14021
  19518399.9004   -1284669.37648   -981198.50564
  18740657.9164  -28840947.75747 -22344841.18263
 91  4 24  0  4 29.9940000  0  4G13G15G 2G 6
  18925991.4474  -21242190.60447 -16227177.52762
  22274451.9244   -4429016.71445  -3348234.66061
  19519393.7834   -1279452.82948   -977133.66964
  18739077.1274  -28849252.61547 -22351312.50463
 91  4 24  0  4 44.9940000  0  4G13G15G 2G 6
  18919104.2214  -21278385.78547 -16255381.50762
  22276618.705    -4417640.716 5  -3339370.24521
  19520394.1504   -1274193.93648   -973035.84064
  18737519.4324  -28857440.65647 -22357692.79863
 91  4 24  0  4 59.9940000  0  4G13G15G 2G 6
  18912243.5884  -21314439.98347 -16283475.62762
  22278810.8304   -4406132.00345  -3330402.40861
  19521403.4714   -1268889.36248   -968902.41264
  18735984.0654  -28865508.37647 -22363979.33163
 91  4 24  0  5 14.9940000  0  4G13G15G 2G 6
  18905408.8694  -21350356.90447 -16311462.78462
  22281025.0024   -4394494.49845  -3321334.22461
  19522421.0334   -1263542.91148   -964736.35664
  18734471.5724  -28873459.47447 -22370174.99563
 91  4 24  0  5 29.9940000  0  4G13G15G 2G 6
  18898598.5104  -21386140.60647 -16339346.12862
  22283262.6274   -4382732.46345  -3312169.01161
  19523445.6664   -1258158.72048   -960540.89264
  18732979.4164  -28881297.85447 -22376282.82663
 91  4 24  0  5 44.9940000  0  3G13G 2G 6
  18891817.1824  -21421773.15047 -16367111.69262
  19524480.9554   -1252718.85548   -956302.04364
  18731512.6744  -28889005.42947 -22382288.73463
 91  4 24  0  5 59.9940000  0  3G13G 2G 6
  18885062.494   -21457269.309 7 -16394770.98322
  19525522.768    -1247237.986 7   -952031.25424
  18730067.9474  -28896596.88447 -22388204.15763
 91  4 24  0  6 14.9940000  0  3G13G 2G 6
  18878334.838   -21492629.730 7 -16422324.50722
  19526573.8694   -1241717.00147   -947729.19764
  18728644.9164  -28904072.84447 -22394029.58063
 91  4 24  0  6 29.9940000  0  3G13G 2G 6
  18871632.2054  -21527851.54647 -16449770.01662
  19527632.557    -1236153.465 7   -943393.98524
  18727245.8694  -28911430.61847 -22399762.91163
 91  4 24  0  6 44.9940000  0  3G13G 2G 6
  18864956.0414  -21562930.53147 -16477104.23362
  19528699.9864   -1230542.84547   -939022.08664
  18725869.2684  -28918665.83047 -22405400.73963
 91  4 24  0  6 59.9940000  0  3G13G 2G 6
  18858307.096   -21597874.970 7 -16504333.61622
  19529774.4634   -1224893.49947   -934620.00964
  18724513.9714  -28925786.45447 -22410949.28163
 91  4 24  0  7 14.9940000  0  3G13G 2G 6
  18851683.971   -21632678.370 7 -16531453.09322
  19530858.979    -1219199.206 7   -930182.90724
  18723181.7214  -28932786.02847 -22416403.49963
 91  4 24  0  7 29.9940000  0  3G13G 2G 6
  18845087.5574  -21667340.60847 -16558462.57562
  19531950.9944   -1213459.86447   -925710.70264
  18721872.7054  -28939664.29347 -22421763.19063
 91  4 24  0  7 44.9940000  0  3G13G 2G 6
  18838518.143   -21701866.177 7 -16585365.55822
  19533050.9714   -1207680.14347   -921207.03564
  18720585.5884  -28946425.78547 -22427031.89363
 91  4 24  0  7 59.9940000  0  3G13G 2G 6
  18831976.150   -21736247.406 7 -16612156.07722
  19534159.690    -1201852.304 7   -916665.87224
  18719322.7914  -28953062.68647 -22432203.50563
 91  4 24  0  8 14.9940000  0  3G13G 2G 6
  18825459.002   -21770492.623 7 -16638840.60622
  19535276.8544   -1195984.65948   -912093.69064
  18718082.4164  -28959583.27947 -22437284.49263
 91  4 24  0  8 29.9940000  0  3G13G 2G 6
  18818968.783   -21804597.131 7 -16665415.49622
  19536402.7604   -1190072.50748   -907486.82864
  18716864.4324  -28965982.71347 -22442271.06363
 91  4 24  0  8 44.9940000  0  3G13G 2G 6
  18812505.416   -21838561.923 7 -16691881.52022
  19537535.682    -1184117.071 8   -902846.24324
  18715669.3544  -28972262.14647 -22447164.13263
 91  4 24  0  8 59.9940000  0  3G13G 2G 6
  18806068.354   -21872390.869 7 -16718241.68622
  19538675.4474   -1178122.39447   -898175.07463
  18714496.9404  -28978425.21947 -22451966.53163
 91  4 24  0  9 14.9940000  0  3G13G 2G 6
  18799656.604   -21906082.355 7 -16744494.73922
  19539824.197    -1172087.023 7   -893472.20123
  18713346.8384  -28984470.41747 -22456677.07763
 91  4 24  0  9 29.9940000  0  3G13G 2G 6
  18793271.111   -21939640.252 7 -16770643.70122
  19540979.471    -1166014.787 7   -888740.60124
  18712218.1744  -28990401.38047 -22461298.60763
 91  4 24  0  9 44.9940000  0  3G13G 2G 6
  18786910.783   -21973057.885 7 -16796683.36422
  19542142.861    -1159899.040 7   -883975.09724
  18711112.0024  -28996211.51347 -22465825.98763
 91  4 24  0  9 59.9940000  0  3G13G 2G 6
  18780578.486   -22006336.449 7 -16822614.66222
  19543314.986    -1153741.116 7   -879176.73023
  18710029.4864  -29001901.82947 -22470260.00463
 91  4 24  0 10 14.9940000  0  3G13G 2G 6
  18774272.174   -22039478.476 7 -16848439.57222
  19544495.190    -1147543.249 7   -874347.23823
  18708969.3384  -29007474.56147 -22474602.39763
 91  4 24  0 10 29.9940000  0  3G13G 2G 6
  18767992.283   -22072480.210 7 -16874155.15422
  19545682.236    -1141302.072 7   -869483.99823
  18707930.9794  -29012926.07747 -22478850.33063
 91  4 24  0 10 44.9940000  0  3G13G 2G 6
  18761739.400   -22105341.384 7 -16899761.21322
  19546878.9794   -1135017.43447   -864586.89063
  18706917.4084  -29018256.20847 -22483003.68263
 91  4 24  0 10 59.9940000  0  3G13G 2G 6
  18755511.736   -22138064.125 7 -16925259.40222
  19548082.2834   -1128691.54947   -859657.64164
  18705925.9404  -29023466.85047 -22487063.92363
 91  4 24  0 11 14.9940000  0  3G13G 2G 6
  18749312.822   -22170641.945 7 -16950644.67122
  19549295.9554   -1122317.42547   -854690.80263
  18704957.5334  -29028551.19047 -22491025.74863
 91  4 24  0 11 29.9940000  0  3G13G 2G 6
  18743138.486   -22203082.979 7 -16975923.35122
  19550515.830    -1115903.679 7   -849693.09523
  18704012.9404  -29033517.43147 -22494895.54263
 91  4 24  0 11 44.9940000  0  3G13G 2G 6
  18736992.096   -22235386.651 7 -17001094.99522
  19551744.213    -1109449.634 7   -844663.98223
  18703091.4084  -29038364.87447 -22498672.77763
 91  4 24  0 11 59.9940000  0  3G13G 2G 6
  18730870.861   -22267551.922 7 -17026158.79422
  19552979.510    -1102954.464 7   -839602.81924
  18702190.6744  -29043092.48647 -22502356.63463
 91  4 24  0 12 14.9940000  0  3G13G 2G 6
  18724776.775   -22299579.182 7 -17051115.05622
  19554223.416    -1096418.540 7   -834509.91124
  18701313.6434  -29047700.62147 -22505947.39063
 91  4 24  0 12 29.9940000  0  3G13G 2G 6
  18718708.065   -22331469.408 7 -17075964.52922
  19555474.354    -1089842.596 7   -829385.81224
  18700460.5104  -29052189.94147 -22509445.56263
 91  4 24  0 12 44.9940000  0  3G13G 2G 6
  18712665.549   -22363218.330 7 -17100703.90622
  19556734.229    -1083222.395 7   -824227.22823
  18699629.1744  -29056556.08647 -22512847.75863
 91  4 24  0 12 59.9940000  0  3G13G 2G 6
  18706651.963   -22394824.643 7 -17125332.15622
  19558003.104    -1076556.844 7   -819033.30223
  18698821.7604  -29060797.63947 -22516152.86463
 91  4 24  0 13 14.9940000  0  3G13G 2G 6
  18700664.455   -22426292.314 7 -17149852.37222
  19559278.393    -1069850.256 7   -813807.40823
  18698038.9944  -29064918.79847 -22519364.15763
 91  4 24  0 13 29.9940000  0  3G13G 2G 6
  18694701.893   -22457621.284 7 -17174264.50922
  19560563.0964   -1063102.40347   -808549.35363
  18697277.2294  -29068919.28147 -22522481.41963
 91  4 24  0 13 44.9940000  0  3G13G 2G 6
  18688767.416   -22488806.292 7 -17198564.47222
  19561855.346    -1056308.169 7   -803255.16123
  18696539.4794  -29072794.08347 -22525500.74863
 91  4 24  0 13 59.9940000  0  3G13G 2G 6
  18682860.627   -22519847.427 7 -17222752.32422
  19563157.697    -1049467.447 7   -797924.74523
  18695825.9324  -29076542.82247 -22528421.84563
 91  4 24  0 14 14.9940000  0  3G13G 2G 6
  18676979.1584  -22550752.05247 -17246833.80762
  19564467.346    -1042587.858 7   -792564.03723
  18695134.7994  -29080172.89247 -22531250.47663
 91  4 24  0 14 29.9940000  0  3G13G 2G 6
  18671126.674   -22581513.801 7 -17270803.95822
  19565785.275    -1035663.058 7   -787168.10623
  18694467.9794  -29083677.91047 -22533981.65963
 91  4 24  0 14 44.9940000  0  3G13G 2G 6
  18665298.783   -22612136.031 7 -17294665.38422
  19567110.4944   -1028696.35647   -781739.51963
  18693824.3384  -29087060.96547 -22536617.80963
 91  4 24  0 14 59.9940000  0  3G13G 2G 6
  18659497.4084  -22642619.07547 -17318418.36262
  19568444.049    -1021687.984 7   -776278.46223
  18693204.2754  -29090322.17147 -22539159.01463
 91  4 24  0 15 14.9940000  0  3G13G 2G 6
  18653722.986   -22672962.680 7 -17342062.68222
  19569786.4084   -1014637.82347   -770784.83863
  18692605.7914  -29093461.39347 -22541605.16563
 91  4 24  0 15 29.9940000  0  3G13G 2G 6
  18647977.479   -22703160.798 7 -17365593.64522
  19571135.994    -1007539.623 7   -765253.78923
  18692033.3614  -29096472.40847 -22543951.41263
 91  4 24  0 15 44.9940000  0  3G13G 2G 6
  18642257.611   -22733217.498 7 -17389014.40522
  19572496.2834   -1000397.55947   -759688.54963
  18691482.7994  -29099359.33447 -22546200.97263
 91  4 24  0 15 59.9940000  0  3G13G 2G 6
  18636565.065   -22763130.662 7 -17412323.31622
  19573863.807     -993209.616 7   -754087.56723
  18690958.4324  -29102119.84747 -22548352.02763
 91  4 24  0 16 14.9940000  0  3G13G 2G 6
  18630899.268   -22792902.601 7 -17435522.18822
  19575240.5494    -985978.42547   -748452.88563
  18690455.8224  -29104756.31147 -22550406.42263
